GFSSGP_500_rhum_000.txt.gz
RH
28 31 36 29 18 15 21 32 80 64 77 76 67 62 54 52 48 44 42 38 31 28 28 26 25 17 11 10 9 7 8 9 9 8 9 9 8 7 8 12 11 13 14 7 5 4 3 4 4
29 35 36 22 12 15 34 57 71 65 70 78 70 66 55 56 50 47 43 41 30 29 27 27 23 13 10 13 9 9 9 9 9 8 10 8 8 8 9 11 11 12 15 12 8 5 5 4 4
32 40 32 13 12 22 55 76 99 63 83 78 72 63 58 59 54 54 48 47 28 29 27 29 23 13 15 15 12 10 11 10 10 9 10 10 7 7 7 9 9 11 15 16 16 15 11 5 4
35 40 25 12 17 61 48 88 58 60 73 68 74 64 62 64 63 56 50 48 32 28 27 28 23 15 12 15 12 9 10 10 11 9 9 10 8 6 6 8 9 16 19 19 19 18 14 8 6
34 38 19 16 35 72 98 95 89 62 71 70 74 62 72 70 62 55 49 46 39 28 28 25 22 15 14 14 10 8 10 11 11 8 7 10 8 5 5 8 8 11 14 17 20 19 15 9 8
34 38 16 22 36 60 67 72 59 86 78 77 69 66 71 67 58 50 46 43 41 31 28 24 17 16 21 10 8 5 8 10 8 6 6 9 8 5 6 5 2 12 7 5 5 6 6 8 9
31 35 19 27 34 46 51 49 54 70 70 54 63 70 65 56 51 48 43 40 42 38 29 26 16 21 22 9 7 5 6 7 7 8 8 7 6 3 5 4 19 8 11 14 10 3 4 5 6
35 33 24 32 35 40 71 53 84 70 62 50 73 59 50 48 48 45 42 39 40 38 31 25 18 25 27 14 7 7 8 8 8 12 12 9 3 4 5 16 20 14 19 15 14 11 8 5 4
38 28 26 41 46 50 50 71 93 81 65 65 67 47 39 38 46 45 41 38 39 37 32 23 22 27 28 26 13 8 9 9 11 14 14 12 8 5 6 22 16 24 19 18 18 15 11 8 6
40 27 30 45 52 56 49 71 77 79 75 62 56 42 39 33 34 52 47 36 37 36 29 23 28 28 24 24 24 18 12 12 11 12 14 16 14 8 8 21 20 26 22 25 26 26 18 12 10
41 28 26 41 50 51 47 62 64 69 62 50 42 41 41 42 33 50 55 37 36 34 23 19 24 23 21 20 20 21 19 14 12 11 12 16 16 14 8 20 21 26 23 25 27 28 28 26 19
40 35 25 36 44 47 50 53 50 45 47 44 46 36 42 39 36 53 43 37 32 30 27 21 25 29 22 17 17 16 16 16 13 12 12 14 13 10 7 17 19 24 23 24 26 28 30 31 32
43 44 28 28 35 45 46 46 46 44 45 41 44 38 35 34 32 54 41 38 27 26 26 25 26 27 25 23 19 19 19 18 20 21 21 21 15 10 9 12 19 20 24 25 24 25 25 27 31
39 46 37 42 38 32 35 36 37 42 43 40 35 36 32 28 44 50 39 35 30 33 32 30 29 25 27 27 26 26 21 23 25 23 22 20 17 13 10 10 20 17 19 20 21 21 24 26 26
32 48 48 46 49 62 77 61 63 73 53 46 35 30 26 28 50 36 36 32 34 34 30 29 28 28 26 24 17 16 17 22 20 18 18 14 12 10 8 10 20 19 18 15 17 21 24 25 26
28 45 51 49 52 46 43 56 50 51 48 63 41 32 32 56 39 35 37 36 35 31 28 26 26 22 19 15 12 11 11 12 12 11 10 9 8 8 7 10 18 20 22 23 25 27 28 27 28
22 35 43 38 39 29 31 32 42 45 52 67 63 59 52 42 40 37 32 31 31 28 26 22 14 12 11 10 8 7 6 6 6 6 6 7 7 7 6 10 15 17 21 22 19 23 27 28 31
14 28 32 30 27 22 30 38 41 44 54 60 61 51 41 37 35 34 30 27 26 23 18 11 7 8 7 6 6 7 6 7 7 6 6 7 7 7 6 8 11 11 9 5 5 3 10 16 14
15 32 32 26 24 14 28 39 42 42 47 51 51 39 39 35 35 32 28 23 18 14 6 3 3 4 5 6 6 6 7 7 7 7 7 6 6 7 7 7 8 8 6 4 2 1 1 3 6
14 22 23 28 18 11 28 43 45 41 45 42 40 37 36 35 31 27 19 14 7 2 2 4 3 3 3 3 4 5 5 5 5 6 6 6 7 6 6 8 7 7 8 6 3 2 3 13 35
14 17 28 27 17 12 19 43 44 40 38 38 37 34 32 30 25 15 9 1 3 4 3 2 1 0 0 0 0 0 0 1 2 3 3 4 4 5 5 5 6 6 5 6 15 33 40 39 41
12 17 17 11 10 12 14 30 41 45 42 39 38 35 28 11 3 1 4 6 6 5 5 4 4 4 4 4 4 5 6 6 5 4 5 7 9 10 10 9 10 10 20 31 36 38 38 35 42
6 14 10 8 7 7 15 22 27 31 29 23 12 8 3 0 3 7 8 9 10 13 14 14 15 14 14 14 14 13 12 12 13 14 14 16 19 20 22 24 23 23 26 33 40 43 46 48 57
2 3 3 5 6 8 11 16 17 19 14 5 3 3 6 9 10 10 10 10 13 14 16 18 20 21 21 20 20 20 21 22 23 24 25 27 27 27 30 35 40 46 45 44 46 49 55 60 66
1 2 5 8 10 10 11 12 11 10 2 2 4 4 4 5 7 9 11 14 16 18 22 23 26 28 30 32 34 35 36 37 39 40 40 40 38 37 34 33 34 38 38 36 42 41 40 58 53
4 6 7 9 9 10 9 6 5 3 4 4 7 11 16 21 22 24 25 25 27 33 37 36 37 38 39 39 38 37 34 31 28 26 24 23 23 23 23 22 22 21 20 23 30 34 43 47 35
4 6 8 8 8 6 5 8 7 9 22 28 27 25 28 32 34 39 40 43 44 44 42 40 37 32 28 24 22 21 20 19 18 18 18 18 17 17 18 18 19 19 19 21 24 27 32 38 42
13 14 14 13 13 17 17 22 28 27 34 38 44 44 50 49 47 43 40 38 35 31 27 22 20 19 18 17 16 15 14 14 13 14 15 18 20 23 31 37 42 48 50 48 46 44 46 46 49
19 19 20 21 23 27 28 42 52 48 46 47 44 41 38 32 28 25 23 19 17 15 14 15 15 17 18 20 24 25 27 30 37 39 45 45 44 47 46 42 40 41 48 55 52 53 54 55 57
28 33 38 40 40 47 46 47 47 45 41 36 32 28 22 18 17 14 13 12 13 15 18 32 32 34 40 44 48 48 49 48 47 48 48 47 48 49 49 50 48 48 50 53 54 49 48 47 47

GFSSGP_500_rhum_003.txt.gz
RH
14 15 21 22 21 21 19 26 66 75 74 71 70 68 61 58 53 50 41 47 46 36 30 29 30 23 15 10 10 8 7 8 8 8 8 8 11 11 9 9 10 10 11 15 13 11 9 6 3
15 18 20 28 23 20 20 37 41 46 82 69 80 66 61 60 54 56 49 47 51 33 29 29 30 22 12 12 11 8 9 9 8 8 9 9 9 9 8 8 9 8 10 13 16 17 16 13 10
15 21 20 29 25 13 23 17 33 50 70 74 75 62 59 61 63 57 52 48 51 30 28 28 26 21 14 16 13 10 11 11 10 9 9 9 10 8 6 6 7 7 10 15 17 17 18 18 15
18 20 22 30 13 18 27 78 90 94 60 68 65 61 62 65 67 64 60 51 48 31 27 27 22 16 12 12 14 11 10 11 11 11 9 8 9 8 6 4 6 3 6 9 6 5 4 6 8
14 19 25 31 15 19 40 49 85 81 63 62 51 60 71 73 66 64 58 51 46 38 27 25 17 14 14 15 12 10 9 10 10 10 9 6 7 8 7 5 5 6 14 11 14 10 6 2 4
8 21 28 24 17 30 41 94 97 66 62 65 47 49 68 73 67 63 54 47 44 41 30 27 20 14 17 20 12 7 6 8 9 8 6 7 7 7 5 5 4 19 11 18 15 13 12 10 5
9 23 33 21 30 57 73 80 85 74 64 64 58 57 70 74 70 53 49 46 42 40 40 29 26 15 19 20 15 7 5 6 8 8 9 10 10 5 3 5 8 23 17 18 17 16 14 12 10
10 18 33 22 27 44 65 62 57 61 66 62 75 72 78 73 58 50 48 45 42 40 41 34 29 18 25 27 19 7 7 8 8 9 12 13 12 10 6 5 11 21 22 18 20 21 22 19 15
17 16 36 26 26 42 48 52 51 57 63 58 69 70 76 61 46 39 47 49 40 38 40 38 30 22 29 31 29 17 8 8 9 10 13 14 15 16 15 9 9 21 21 18 21 26 28 29 28
31 14 33 26 30 37 39 44 54 64 50 55 53 71 58 41 44 37 34 54 49 38 37 36 28 25 28 27 25 25 22 17 13 13 12 11 13 16 16 14 9 16 18 20 20 23 26 28 31
38 13 35 24 33 36 36 48 70 75 83 66 58 66 56 44 44 37 31 50 53 35 34 33 25 22 25 22 23 21 21 20 18 16 14 13 12 13 14 14 13 10 18 19 22 23 23 24 25
41 16 36 25 30 42 47 57 62 66 71 68 59 52 47 45 41 37 28 44 41 33 31 30 22 18 21 26 24 18 18 17 17 19 19 15 17 19 20 19 13 11 12 18 19 21 21 21 21
35 17 37 26 28 45 49 51 53 55 51 48 46 44 41 42 40 35 27 40 44 31 26 27 26 25 25 27 26 25 22 20 19 20 22 24 26 25 22 21 19 12 9 17 19 18 18 17 19
36 18 36 26 26 42 46 49 47 50 47 45 43 39 35 35 35 33 27 38 42 31 25 25 26 27 28 30 30 29 28 26 25 26 25 27 24 21 20 18 13 10 8 9 18 20 20 19 24
41 19 37 32 26 32 45 44 42 43 42 40 42 39 32 30 30 28 25 38 34 31 28 32 32 30 28 27 26 22 18 16 14 14 14 16 16 15 13 11 9 8 7 8 13 18 22 25 26
50 19 37 40 35 38 29 36 59 47 50 59 48 38 33 27 26 23 30 35 33 30 29 28 27 27 24 16 13 14 12 10 9 8 8 8 9 9 8 8 8 8 6 7 12 13 16 19 16
44 19 30 40 39 42 52 54 49 45 44 47 48 42 20 19 26 44 39 35 31 30 28 27 24 20 10 6 7 7 6 6 6 6 6 6 6 6 6 7 7 8 7 7 9 8 6 5 5
53 23 27 44 48 48 46 39 29 20 34 41 49 57 62 58 47 42 35 34 33 30 26 20 15 8 1 2 3 4 5 7 7 7 7 7 7 7 6 7 7 7 7 7 7 8 7 6 5
37 27 17 41 49 40 26 30 26 31 37 41 50 58 59 51 44 39 37 35 31 25 16 8 3 0 2 2 2 3 3 3 3 4 5 5 5 5 6 6 7 7 7 7 8 7 5 4 3
34 30 13 35 36 32 23 24 23 28 40 42 47 49 49 44 40 37 32 29 19 10 4 0 1 1 1 0 0 0 0 0 0 0 0 0 1 2 2 3 3 3 4 4 5 5 4 5 10
56 27 12 26 26 26 26 17 16 40 45 41 44 42 40 37 35 35 27 8 2 1 2 3 3 2 2 2 3 5 5 6 6 5 6 7 7 7 8 10 11 14 16 19 26 30 35 36 38
71 18 9 15 15 20 26 24 17 31 44 42 39 38 39 38 36 25 6 0 1 4 6 8 9 10 10 11 12 12 13 14 14 15 16 17 19 20 21 21 21 21 21 21 24 26 30 36 42
62 12 7 14 17 25 15 16 18 22 32 44 39 33 26 15 9 2 1 5 10 12 12 11 11 12 14 17 18 18 18 18 19 20 23 25 29 31 35 37 39 39 39 39 39 40 42 49 50
31 4 5 10 18 26 11 10 14 18 23 27 22 16 9 3 3 6 8 9 10 10 12 15 18 20 20 20 19 21 23 27 31 33 34 35 35 35 34 32 30 28 27 25 24 23 23 24 24
3 2 5 8 13 12 10 12 13 12 13 11 7 2 3 4 4 8 11 16 20 21 21 22 25 28 30 34 36 36 34 31 27 24 22 22 22 23 24 23 22 22 22 22 23 22 21 25 44
1 1 2 4 6 5 6 6 6 8 8 5 2 3 8 17 22 24 28 32 35 38 38 39 38 34 28 24 20 18 16 16 16 16 16 16 16 16 16 16 17 18 19 20 24 25 28 31 39
1 0 1 2 4 6 8 9 8 5 3 4 12 20 31 41 40 43 42 36 32 30 27 23 19 16 14 14 12 13 13 15 18 21 23 27 30 30 33 34 36 42 46 45 43 47 52 56 57
2 3 5 7 8 8 10 16 10 17 23 26 28 45 48 45 38 31 26 23 19 18 17 15 14 15 18 21 25 30 35 41 43 45 48 48 50 49 50 49 48 49 52 52 51 50 48 47 46
5 6 8 14 14 18 23 26 33 48 50 47 45 43 38 30 26 24 20 15 15 15 21 31 32 32 33 28 20 16 17 18 16 17 22 30 37 44 50 56 61 66 68 67 64 63 61 59 54
16 21 24 27 30 42 50 52 51 47 43 40 39 34 23 20 18 17 18 30 32 29 20 11 6 6 6 7 7 7 7 7 8 8 9 11 13 21 27 33 37 39 48 60 68 68 68 66 64

GFSSGP_500_rhum_006.txt.gz
RH
13 18 19 17 22 24 23 23 21 21 44 91 98 85 60 63 58 48 46 49 48 46 34 30 29 30 18 11 9 9 8 8 8 8 8 9 9 11 10 10 10 10 10 12 16 17 18 17 16
12 12 16 21 25 27 25 18 16 24 40 77 90 54 71 68 60 54 58 56 51 49 31 29 30 29 17 12 10 7 8 9 9 9 9 9 9 9 9 9 8 9 8 11 13 10 8 9 10
10 11 18 23 31 31 21 17 16 22 40 79 85 42 68 73 59 53 61 61 53 49 29 28 26 22 17 15 10 10 10 11 11 11 9 9 10 10 9 6 5 7 4 12 9 12 11 7 3
8 13 17 26 31 24 14 13 15 20 50 77 60 40 58 74 67 64 64 62 54 49 29 27 25 14 15 11 9 10 11 11 11 12 11 9 8 9 9 7 5 6 8 10 15 14 13 12 9
13 10 21 31 34 21 10 13 37 65 62 54 50 58 66 68 71 73 67 63 53 48 36 27 24 15 14 14 8 6 6 10 10 12 10 7 6 8 8 7 5 4 18 12 17 14 13 13 12
21 10 20 31 32 18 14 29 94 86 78 63 47 58 71 70 75 69 67 56 50 47 42 32 25 16 13 15 12 7 6 6 8 9 7 7 8 7 6 5 4 6 19 15 16 18 18 17 15
32 15 13 30 29 18 14 16 63 96 63 68 50 55 66 64 69 69 61 52 50 46 41 42 31 24 15 18 15 8 7 6 6 8 8 9 10 11 8 6 5 6 18 18 18 19 22 25 28
32 24 10 30 28 19 19 25 86 88 63 56 55 57 75 63 74 71 55 52 52 45 42 41 40 31 20 26 21 15 6 7 8 8 8 11 13 13 13 14 12 7 14 19 21 21 23 26 29
25 34 10 25 32 21 22 24 79 75 69 48 57 69 68 76 72 63 44 40 48 52 40 40 40 34 27 23 32 27 18 7 6 8 10 10 13 14 16 16 15 14 10 17 19 24 22 23 25
19 35 11 23 32 24 19 28 61 52 53 48 58 75 70 69 63 49 38 38 35 51 43 37 38 35 28 25 29 28 27 25 19 17 14 14 14 12 12 12 13 14 11 10 16 19 24 26 24
20 36 22 15 31 25 19 35 43 48 59 54 59 59 63 68 51 43 42 37 30 48 47 36 36 34 26 24 25 23 23 22 21 21 19 17 16 15 14 14 17 22 19 10 10 15 20 20 20
21 26 38 15 31 26 28 33 40 49 74 53 56 73 76 65 51 40 41 36 28 38 40 34 32 32 22 23 25 27 24 20 19 18 17 17 18 18 20 24 26 26 24 19 12 8 14 20 19
23 25 36 16 28 30 33 37 40 62 65 65 68 60 54 51 46 36 36 35 30 31 49 34 28 29 26 26 26 27 29 28 26 26 24 22 21 21 22 24 25 23 21 17 13 8 7 10 19
25 24 39 19 29 33 32 48 44 56 56 60 56 52 48 46 42 38 34 35 32 27 38 34 29 28 28 27 28 29 30 30 30 26 23 23 22 23 24 24 22 17 15 13 10 9 8 7 11
28 24 38 23 28 35 28 50 49 50 51 50 50 45 47 44 37 31 29 28 28 26 36 33 29 30 32 32 30 29 27 21 18 18 15 13 12 12 12 13 13 12 10 9 8 8 7 7 7
27 23 36 30 24 38 24 41 45 46 46 45 44 46 43 43 38 36 26 24 24 34 33 33 32 32 29 27 23 19 14 10 11 11 11 9 8 8 7 7 8 7 7 7 7 8 8 7 7
28 25 39 31 23 38 26 33 35 37 42 43 42 40 36 34 35 33 27 30 43 38 36 33 30 29 25 18 10 3 2 3 5 5 6 6 6 6 6 7 7 7 7 7 7 7 7 8 8
31 29 36 35 20 38 36 41 45 55 48 36 29 37 45 50 63 42 46 45 40 37 36 34 30 22 14 4 1 1 2 3 3 4 4 5 5 5 5 4 4 5 5 6 6 7 7 7 8
33 26 33 38 20 40 43 45 48 46 32 19 36 40 46 56 62 56 45 40 37 36 33 27 18 8 1 1 1 0 0 0 0 1 1 1 2 2 3 3 4 4 4 5 4 4 4 5 5
36 30 33 45 17 36 51 51 37 24 28 35 36 41 46 54 55 48 43 38 34 32 25 13 5 1 3 3 2 3 5 6 7 8 10 11 11 13 15 16 17 20 22 24 23 22 22 21 25
30 32 31 50 21 18 43 51 34 23 18 37 44 46 50 49 44 40 37 37 36 28 9 1 2 4 5 8 10 11 12 15 18 19 18 18 18 18 18 19 21 24 27 31 35 38 39 39 42
29 34 30 58 21 19 36 37 32 25 17 32 44 44 43 41 39 39 36 32 24 7 1 6 9 10 10 10 13 17 19 19 19 20 22 26 28 30 30 31 31 31 32 34 33 32 30 29 28
41 45 50 64 15 17 31 32 27 28 19 22 36 40 40 37 32 26 14 5 3 5 9 9 10 14 18 19 20 22 24 30 32 33 32 30 28 25 24 23 22 22 23 23 24 24 23 23 22
52 55 70 64 13 11 21 27 26 21 16 20 24 31 30 26 17 8 5 6 6 7 12 23 29 35 36 34 33 33 30 26 22 18 16 17 18 18 17 17 17 17 17 17 17 17 18 18 19
47 48 61 49 21 7 16 26 26 26 15 17 19 21 18 7 3 4 4 10 20 30 39 38 38 36 32 28 24 19 15 13 12 13 16 20 24 26 28 28 30 31 34 36 38 40 44 47 47
52 59 58 25 9 5 11 20 17 15 12 11 12 11 6 4 6 13 25 41 43 39 35 33 29 25 21 17 15 14 16 22 28 30 26 21 17 13 9 6 6 7 9 15 22 28 36 43 50
52 58 27 9 2 4 7 6 5 5 6 9 7 5 14 17 19 41 41 39 33 31 27 24 20 17 16 19 26 28 23 13 7 7 7 7 7 7 8 8 8 8 8 9 9 10 11 13 14
44 17 9 4 2 2 3 7 8 10 9 8 14 26 33 35 45 41 37 32 27 24 19 18 20 25 24 11 6 6 8 9 10 9 8 8 8 9 9 10 11 11 12 12 12 13 16 20 22
30 8 3 3 3 5 8 9 12 20 32 38 43 44 44 43 37 32 27 23 23 22 27 31 28 11 8 9 9 10 11 11 10 9 9 10 11 11 11 11 11 11 12 13 15 16 19 24 35
4 3 4 5 10 15 24 34 46 52 49 46 44 40 34 29 26 25 26 31 37 35 23 13 11 11 12 13 13 13 13 12 11 11 12 12 12 13 14 15 14 13 13 13 17 23 31 46 57

GFSSGP_500_rhum_009.txt.gz
RH
11 15 26 24 21 25 28 25 27 34 29 30 38 90 72 58 55 55 54 47 43 46 45 34 31 31 28 17 10 5 6 8 9 9 9 8 8 9 12 12 11 10 9 8 9 10 8 8 6
11 13 17 21 22 28 30 26 22 26 25 35 67 94 97 61 60 64 62 62 54 49 48 34 30 30 29 16 11 5 6 8 10 10 9 9 10 10 11 11 12 10 7 6 11 9 14 12 11
9 13 18 17 24 33 32 26 22 22 21 32 85 86 72 54 64 73 71 66 59 52 50 30 29 28 24 16 13 7 8 11 11 11 11 10 9 10 10 10 8 6 6 6 11 14 15 13 12
16 9 16 24 30 32 30 25 17 18 19 27 59 78 65 57 61 82 78 66 59 55 50 31 29 25 18 15 10 7 10 12 12 12 11 10 9 8 9 10 8 6 5 12 12 17 14 16 15
32 12 9 19 32 33 31 21 14 12 16 23 34 59 58 60 64 85 77 69 63 55 49 38 28 26 13 14 13 6 6 11 12 12 11 10 9 7 7 8 7 5 4 15 16 17 18 19 22
36 26 10 14 34 33 27 17 11 12 42 36 47 53 67 56 67 78 77 72 58 53 48 43 32 27 17 12 15 9 6 5 6 9 10 10 8 8 8 7 6 3 5 14 19 19 20 22 24
33 31 17 11 28 29 28 17 12 18 50 70 56 46 62 57 69 74 75 73 58 51 48 42 41 32 26 16 16 16 7 8 7 7 8 8 8 9 10 11 10 10 6 7 20 21 22 22 24
24 33 25 9 23 28 25 17 14 57 66 63 45 46 50 56 66 67 72 72 52 51 47 43 41 42 34 29 18 22 18 6 7 7 8 8 8 11 13 15 15 16 15 9 8 19 22 23 23
19 36 34 10 17 25 29 23 16 25 82 79 52 52 48 56 60 75 76 60 40 40 50 44 40 41 40 33 25 25 30 22 10 6 7 8 10 11 12 13 12 13 14 13 10 9 13 19 23
19 26 41 23 13 21 26 26 22 29 81 73 57 52 51 63 74 73 67 44 38 34 39 53 41 37 38 36 28 25 30 29 25 21 18 16 16 15 15 14 13 13 14 18 22 20 14 9 15
19 26 40 35 13 18 28 29 22 36 70 54 55 52 57 64 66 74 61 44 42 33 30 47 41 36 35 35 28 26 26 23 22 22 21 20 20 19 18 17 16 16 20 25 27 26 24 20 13
19 25 28 39 22 14 29 30 26 30 56 48 49 60 60 60 59 66 55 44 42 37 28 39 51 37 32 33 25 24 28 28 27 24 21 19 18 18 18 20 21 22 22 23 24 24 20 19 16
19 26 24 34 38 15 26 30 28 31 45 47 58 67 62 60 63 61 51 40 38 36 33 27 38 40 31 32 30 26 26 26 28 28 27 27 28 29 28 28 27 27 26 24 24 20 15 14 12
21 23 24 29 50 26 22 31 26 42 44 58 61 68 64 59 56 50 45 41 36 32 31 29 33 36 34 40 37 33 33 32 32 31 30 29 25 21 19 20 18 16 15 14 14 13 12 10 9
23 23 26 32 40 36 21 33 31 39 46 56 55 54 54 53 52 48 45 39 30 26 27 26 34 34 33 36 38 33 29 28 26 23 19 13 14 14 13 11 10 9 8 8 8 8 7 7 7
27 23 25 35 32 42 23 31 34 37 44 47 48 49 50 46 46 45 42 37 30 26 25 31 35 34 35 32 30 28 25 21 14 7 4 4 6 7 6 7 8 7 7 7 7 7 7 8 8
24 21 24 30 32 38 20 33 32 36 42 45 45 43 43 44 44 41 39 36 31 33 34 40 36 34 34 32 29 21 14 4 1 2 3 4 5 5 6 5 4 4 4 4 4 4 4 4 5
21 28 27 33 39 39 18 36 28 23 31 41 51 47 47 30 41 43 33 36 57 51 44 39 37 36 32 27 17 8 2 1 1 0 0 1 1 2 3 5 6 9 10 13 15 16 17 18 18
30 27 24 34 37 46 18 36 37 48 50 50 48 38 21 27 44 54 63 64 55 48 40 38 36 31 22 11 4 2 2 2 2 6 10 11 14 17 17 17 18 19 20 22 24 26 28 31 34
29 27 26 36 30 44 19 34 38 43 47 39 22 11 22 40 44 52 60 53 46 42 38 35 32 25 9 1 2 5 7 11 13 16 19 20 20 22 24 26 28 30 30 32 32 32 32 32 33
34 26 31 37 30 53 24 27 47 56 49 23 18 18 40 44 48 52 50 45 40 36 34 26 20 9 1 6 8 10 12 17 22 25 30 32 32 32 31 29 28 26 22 22 22 21 19 19 20
44 33 34 37 38 51 33 18 45 52 44 27 21 30 46 42 41 42 40 37 34 27 21 10 4 2 7 10 17 23 27 31 34 35 33 30 26 23 21 19 17 16 16 15 17 19 20 22 20
67 51 34 34 37 30 41 16 28 33 33 26 24 21 36 44 41 41 38 30 24 17 7 3 6 9 21 30 34 35 36 36 32 28 24 21 18 17 16 17 20 22 23 22 20 16 12 12 13
88 48 37 31 33 21 32 15 24 30 29 26 20 19 24 31 32 32 29 20 10 4 5 17 32 35 36 37 35 32 29 25 20 16 15 16 18 18 13 8 7 6 6 6 7 7 8 8 8
72 42 33 32 30 32 37 15 15 26 27 28 22 19 19 21 24 22 17 6 3 15 32 40 39 38 36 35 30 25 20 18 19 19 13 8 8 8 9 8 8 8 8 8 8 8 8 8 9
58 40 37 44 39 47 42 25 9 15 22 23 17 15 16 17 16 14 6 6 26 43 46 41 36 33 28 23 21 20 22 11 6 6 7 9 9 10 10 9 9 9 10 10 11 11 12 12 12
45 34 54 48 44 43 40 18 6 8 11 12 11 11 10 9 8 5 12 38 48 46 39 35 29 25 21 22 29 21 9 10 10 10 11 12 12 12 12 12 12 13 13 13 13 12 12 12 13
40 71 62 47 41 41 30 6 5 7 7 6 8 9 9 7 16 39 47 48 44 35 28 25 25 31 31 21 13 12 12 11 12 13 15 15 16 16 16 15 14 12 11 10 10 10 12 13 13
51 51 48 41 32 17 7 4 5 8 13 15 19 25 32 42 46 45 42 36 29 25 32 48 40 22 14 12 14 15 16 19 20 19 18 18 18 15 13 11 8 7 6 7 8 8 8 8 8
61 76 50 30 16 8 5 9 14 23 32 45 50 51 49 44 37 33 35 33 31 41 42 31 18 14 15 18 19 20 22 22 21 21 20 18 15 12 9 8 7 7 7 7 6 6 7 7 9

GFSSGP_500_rhum_012.txt.gz
RH
18 8 16 21 20 21 25 26 27 29 28 29 24 32 59 66 60 55 59 52 46 43 45 44 39 32 30 26 21 12 6 7 8 10 9 9 8 9 9 12 12 13 13 10 8 7 9 12 12
25 9 20 23 19 26 30 32 28 26 24 26 28 34 83 87 67 61 65 63 59 52 50 47 40 31 30 29 21 12 4 4 8 11 10 9 9 9 10 10 11 11 9 5 5 10 10 15 13
33 11 17 25 20 28 30 30 26 25 22 19 24 37 85 94 80 60 75 78 66 60 56 49 38 30 28 22 18 14 6 6 10 12 11 11 10 9 10 10 10 9 8 6 5 12 14 15 14
42 23 10 22 25 32 35 31 26 24 24 21 17 49 88 82 74 65 82 76 67 61 58 50 40 30 28 18 16 13 8 9 13 13 12 11 12 11 9 9 9 8 7 6 6 15 16 16 17
41 36 14 11 22 32 35 25 25 25 21 17 14 33 73 78 72 72 80 76 68 62 57 49 45 31 28 18 14 13 7 8 12 13 14 13 12 12 10 8 7 7 6 3 5 15 17 18 19
23 38 29 12 11 21 27 28 27 26 17 16 17 24 57 61 67 75 76 75 71 60 54 49 46 39 29 25 13 14 14 6 6 9 13 12 10 11 8 8 7 7 5 4 5 11 20 21 19
17 34 36 22 9 14 21 26 26 22 14 18 30 37 45 49 65 66 74 77 74 59 54 50 46 42 38 29 24 15 17 15 7 7 7 8 9 9 8 8 10 12 12 13 11 7 10 17 21
17 21 36 29 13 11 18 22 24 19 14 20 58 75 59 42 57 50 69 72 74 56 46 51 48 43 41 41 32 28 19 21 18 6 7 8 8 8 8 10 13 14 16 16 16 15 12 10 12
16 17 35 34 18 12 15 19 25 23 20 88 89 79 65 51 55 56 61 62 72 45 38 40 54 47 40 41 41 34 27 22 28 26 14 6 7 8 9 11 12 12 13 13 12 12 13 16 20
17 17 31 39 30 18 16 19 24 27 25 56 84 89 86 68 63 61 80 73 62 46 38 32 46 48 43 38 40 38 32 26 26 31 29 27 25 22 20 20 19 19 17 16 16 16 19 24 26
18 18 26 34 35 28 17 18 26 30 30 64 67 62 65 66 64 72 72 68 52 47 41 32 34 51 44 36 36 38 33 28 26 26 25 23 23 23 22 21 20 18 18 19 21 22 23 22 23
19 21 24 29 28 34 15 16 28 29 32 42 69 54 59 66 59 65 61 66 52 46 42 36 32 29 40 41 32 34 30 25 25 27 27 27 27 27 27 26 25 27 27 27 27 26 27 27 26
22 25 23 25 24 39 26 12 23 30 32 32 66 54 56 67 69 60 61 65 54 42 38 34 31 29 34 39 32 30 31 28 28 28 29 29 28 28 29 29 28 23 20 19 17 16 13 12 12
28 27 21 20 34 26 38 19 21 33 31 33 41 53 70 74 63 54 53 55 51 44 39 30 26 28 34 38 35 34 35 36 35 30 28 27 25 24 21 15 11 11 11 10 10 9 8 8 7
29 26 20 23 36 30 28 33 16 32 25 36 42 64 62 59 52 46 48 51 49 45 38 26 26 29 34 37 36 37 34 30 28 26 24 22 16 8 4 3 5 6 6 7 7 7 7 6 6
30 25 20 27 30 31 26 36 21 30 33 41 48 55 55 50 45 45 45 46 46 43 37 29 25 28 37 36 34 33 32 29 24 19 12 4 1 2 3 4 4 5 5 4 4 3 3 4 4
34 22 22 31 26 27 26 46 24 31 34 36 46 50 48 44 46 46 50 48 44 41 35 28 29 36 37 36 36 32 26 17 11 6 2 1 0 1 1 3 7 9 12 16 17 18 17 19 22
38 22 25 33 27 27 33 44 22 33 34 32 38 42 45 49 50 49 35 35 42 45 33 48 41 41 38 37 33 26 16 6 3 2 2 3 7 10 15 19 21 21 23 26 28 28 29 30 33
39 26 28 30 25 24 30 37 21 35 28 27 39 48 55 50 43 26 14 29 50 63 56 56 46 40 38 35 30 21 7 2 3 5 8 10 16 20 21 23 28 32 34 35 33 30 27 25 22
41 27 29 30 23 26 34 38 22 37 41 44 47 45 36 17 12 24 40 46 61 62 57 49 43 39 35 31 20 5 4 8 9 11 16 22 26 31 35 36 34 30 26 22 18 16 15 15 18
41 30 29 30 27 29 35 39 17 34 39 46 52 31 19 18 31 36 46 52 54 52 46 40 37 34 22 10 3 6 9 13 20 25 29 35 38 37 33 28 23 19 17 17 17 15 13 11 9
38 40 36 28 25 30 28 37 23 22 45 58 51 35 20 23 44 47 49 49 43 37 36 32 26 16 5 5 8 14 26 31 36 40 40 38 35 29 22 19 18 14 10 8 8 8 8 8 9
64 48 48 33 26 28 40 38 24 18 40 50 41 32 23 22 31 39 43 40 37 29 28 23 8 4 6 16 30 34 40 43 42 39 34 25 20 17 12 8 8 8 9 9 10 10 10 10 10
75 65 53 39 30 23 41 32 34 17 24 27 25 23 24 20 23 22 23 25 26 27 18 5 4 8 21 30 37 40 39 36 30 24 20 14 9 8 9 11 12 13 13 13 12 13 13 13 13
68 87 53 46 31 20 37 33 32 18 20 23 25 25 24 19 17 19 20 22 21 13 6 4 17 28 37 44 44 38 29 23 26 25 14 11 11 14 16 16 17 17 17 16 16 16 15 13 10
97 76 47 41 31 23 26 31 38 19 11 14 19 19 19 19 16 17 17 16 12 6 8 23 38 45 48 42 34 25 26 27 16 12 12 14 15 17 19 20 20 20 20 19 15 12 9 8 8
87 78 69 48 35 22 27 41 43 27 8 8 12 14 16 14 12 11 9 7 10 22 39 48 47 44 34 25 28 32 18 13 12 14 17 18 19 20 21 22 22 20 16 13 11 10 10 10 9
66 86 60 48 42 30 28 33 35 17 7 7 8 8 7 8 8 10 14 28 49 51 47 44 35 28 30 34 31 16 15 19 20 19 18 20 22 23 22 20 18 16 14 13 12 11 10 9 8
56 50 42 46 40 34 32 34 25 7 4 12 17 16 14 13 17 30 50 54 46 39 34 34 35 34 28 17 18 21 19 18 18 19 20 21 22 21 20 18 17 15 13 12 11 10 9 8 7
60 56 58 50 50 52 39 29 8 7 11 16 19 19 25 36 54 57 46 38 35 37 39 34 18 18 22 22 21 21 23 23 23 23 23 22 21 20 17 15 15 13 12 11 10 8 6 6 7

GFSSGP_500_rhum_015.txt.gz
RH
33 34 13 8 11 13 16 19 21 22 21 20 19 26 29 49 57 52 54 53 50 48 45 41 41 40 34 31 28 25 17 9 6 8 10 10 9 8 8 9 12 12 13 13 12 7 6 9 10
27 39 14 15 17 19 22 25 25 24 21 21 23 23 31 58 62 65 57 51 50 55 50 48 43 44 33 30 28 26 16 6 4 8 11 10 10 10 10 10 10 10 10 9 6 6 7 10 12
22 38 21 13 23 24 27 26 26 25 23 23 21 25 31 56 89 88 71 62 64 61 56 54 47 45 31 30 22 19 15 7 4 6 11 11 11 11 10 10 10 10 10 9 8 6 7 13 16
17 41 31 13 21 28 27 28 26 26 27 27 24 24 36 86 95 88 77 70 72 65 57 55 50 49 32 29 21 15 13 8 7 9 13 12 11 11 12 11 10 9 9 8 7 5 7 15 16
17 34 44 15 14 25 25 23 26 28 31 31 27 25 36 92 90 84 81 76 73 64 60 55 49 48 36 29 26 13 14 8 7 10 13 13 13 12 12 12 10 8 7 7 6 3 5 12 18
18 21 41 31 11 15 23 24 26 29 30 30 24 22 31 61 84 82 76 78 69 65 60 54 50 48 44 32 28 20 13 15 8 6 6 10 13 13 11 11 9 7 8 9 9 9 8 7 11
21 18 28 41 20 10 12 18 22 27 29 26 19 23 29 48 76 70 72 72 66 68 63 52 52 48 44 42 34 28 22 16 17 13 8 7 6 7 10 10 8 8 11 13 14 15 15 15 13
20 20 19 42 34 17 12 12 21 25 28 21 19 41 69 64 60 62 72 67 60 67 63 42 45 49 46 42 41 36 29 27 20 20 22 11 7 7 8 9 9 9 11 12 13 13 13 13 13
22 20 18 33 43 22 17 13 19 25 28 21 46 66 82 88 75 66 73 61 55 59 59 39 36 46 52 44 40 39 38 32 29 24 24 29 27 18 9 8 8 11 15 16 17 17 16 15 15
26 21 19 22 38 33 24 15 15 25 29 30 84 94 91 91 87 78 73 58 44 56 53 42 37 32 45 46 40 36 36 37 35 30 26 28 30 28 26 24 24 23 22 22 20 19 19 20 22
30 22 25 23 23 37 30 20 15 24 29 28 34 79 72 73 73 73 69 67 62 66 49 42 41 34 32 33 42 38 33 35 37 33 28 26 26 25 25 26 26 26 26 25 26 27 26 26 26
36 24 30 26 21 27 37 28 18 21 33 24 33 73 66 64 67 66 72 77 73 70 52 42 42 36 30 30 31 39 31 31 33 28 24 24 25 26 27 28 29 27 26 26 25 19 16 16 14
38 27 34 30 18 21 32 34 23 18 32 25 30 69 63 54 64 70 70 72 69 66 61 47 40 35 28 29 30 36 35 31 34 34 34 33 30 28 26 24 22 20 17 12 8 8 9 9 9
43 31 38 29 18 20 24 34 26 16 27 24 23 47 65 60 71 80 70 62 57 54 56 49 42 32 27 29 33 38 37 37 36 34 31 29 24 21 12 8 3 2 2 2 4 6 6 7 7
44 34 39 26 22 22 17 30 44 26 23 28 31 44 50 68 73 62 51 47 50 51 50 48 44 37 28 33 40 40 35 34 34 32 29 22 15 8 4 1 1 2 3 3 4 4 4 4 5
47 38 36 27 26 20 16 58 36 33 21 31 36 44 62 63 61 53 46 47 49 50 49 44 41 33 28 32 40 37 36 34 32 26 19 11 7 4 2 2 3 5 7 9 11 14 17 18 18
50 38 34 39 26 18 18 44 32 30 22 30 31 43 55 54 52 45 46 47 47 48 45 44 44 37 31 39 38 37 36 34 30 21 10 4 3 4 6 10 14 18 21 21 20 20 21 25 28
51 41 31 41 25 18 18 32 25 32 25 34 33 36 48 50 46 45 45 46 49 46 23 32 48 29 40 42 39 38 37 34 26 11 4 4 6 9 11 16 21 23 27 31 33 34 34 30 25
55 46 34 42 28 17 20 24 27 35 26 33 29 37 44 43 45 53 52 48 23 11 22 54 63 62 52 44 41 39 36 24 13 4 7 9 11 14 19 24 30 37 39 36 29 21 16 15 14
60 50 41 37 28 17 20 23 28 33 25 34 34 44 42 41 45 46 27 11 33 41 50 62 63 55 49 45 41 34 17 7 4 9 12 19 26 32 37 41 39 33 24 19 15 12 9 8 9
62 58 46 36 28 21 21 23 35 33 29 38 49 49 49 45 28 14 22 31 44 61 60 57 52 47 44 39 22 8 6 8 10 18 30 36 42 45 41 31 22 16 12 8 8 9 10 12 13
65 57 47 39 28 26 22 21 51 39 22 36 40 47 54 48 20 23 41 46 47 48 49 44 48 47 31 16 6 6 10 19 30 38 43 45 40 31 23 17 11 10 12 13 15 16 16 16 17
69 58 47 38 29 26 22 22 48 50 20 28 41 56 52 45 22 24 35 44 46 42 44 47 41 28 12 4 5 12 29 40 46 48 40 28 24 24 19 14 12 13 14 14 16 18 20 20 20
69 59 47 39 34 25 28 23 55 51 23 19 29 40 34 25 25 24 24 29 33 37 36 33 23 14 4 5 19 34 44 48 45 34 26 25 22 14 14 17 19 18 16 17 20 21 21 20 18
64 54 54 48 36 24 30 24 41 37 29 18 20 24 21 18 17 18 19 19 23 25 21 16 11 6 8 19 40 50 48 37 29 30 25 14 15 20 21 18 15 15 16 19 20 20 20 19 17
65 70 59 41 38 30 30 24 35 35 34 18 17 20 22 22 21 20 18 18 17 14 10 8 9 19 34 52 51 42 29 30 34 23 16 20 21 19 17 16 15 16 18 20 20 20 19 18 16
77 82 78 54 41 33 30 28 29 43 40 32 19 10 10 15 17 15 13 13 11 10 10 20 44 53 49 39 32 31 33 27 19 21 21 21 18 16 15 15 18 21 21 21 20 19 18 16 14
90 93 64 61 54 34 30 33 38 40 39 35 28 14 7 7 8 9 12 12 14 26 50 56 52 39 36 38 32 22 20 22 22 20 18 17 16 16 16 20 21 22 22 21 20 19 16 14 12
64 60 81 74 56 32 31 37 46 40 33 27 12 5 8 11 14 16 22 28 54 64 55 43 38 40 29 20 24 24 22 20 18 18 18 18 19 21 22 23 24 24 23 21 18 16 13 12 9
65 91 82 75 54 47 46 52 53 38 22 10 6 6 12 18 22 32 51 68 62 44 41 45 32 21 25 25 23 20 18 19 22 22 23 23 24 25 26 26 25 24 21 18 15 14 11 9 8

GFSSGP_500_rhum_018.txt.gz
RH
17 14 31 33 12 6 6 12 15 20 22 19 17 21 33 34 41 46 42 47 44 43 43 42 40 36 36 36 32 29 27 22 13 7 8 10 10 9 8 8 8 12 12 12 13 13 7 6 9
19 16 30 33 16 12 14 17 18 20 20 21 18 18 34 34 36 51 54 50 48 43 45 44 41 38 40 38 31 28 25 21 11 3 7 10 11 10 10 10 10 10 11 11 9 8 7 6 10
21 16 27 36 14 17 21 22 24 24 21 22 22 21 30 36 49 66 64 65 62 50 48 51 46 42 40 36 31 26 17 13 8 4 7 10 11 11 11 10 10 10 10 10 9 8 7 6 10
27 18 19 39 19 18 24 29 30 26 23 24 26 25 29 36 47 75 86 82 68 63 62 51 50 44 47 40 30 28 14 12 8 6 6 11 13 12 11 11 12 11 10 9 9 8 7 4 6
32 21 18 44 25 16 24 30 28 27 26 28 30 29 26 34 63 87 78 82 70 66 56 51 50 47 47 45 34 29 22 13 11 6 9 11 13 13 13 13 12 12 11 8 7 7 7 5 5
34 27 19 30 36 17 20 28 27 25 29 30 30 32 28 28 45 87 85 82 77 64 55 54 52 49 48 47 42 34 28 18 14 14 7 6 7 9 11 13 11 11 9 8 10 12 11 12 12
35 35 22 19 44 23 15 21 25 26 28 27 32 29 22 21 27 67 79 77 70 62 57 59 50 48 49 47 43 41 35 30 25 17 18 13 8 7 7 7 7 9 9 9 11 13 14 15 15
35 35 26 20 28 41 19 12 15 19 24 30 30 21 18 26 33 66 72 70 63 57 59 60 44 41 45 48 45 41 40 38 33 30 24 21 22 17 8 7 7 8 9 9 10 11 13 15 16
40 32 30 23 20 40 34 17 12 15 28 29 26 17 47 77 74 49 63 66 63 52 54 59 45 34 36 47 45 42 40 39 39 39 34 29 26 28 30 27 25 24 23 23 23 23 23 22 21
40 32 34 28 21 24 38 28 14 16 25 31 25 31 58 75 78 72 66 63 57 52 49 60 46 36 33 34 37 44 42 37 34 36 38 37 32 27 26 27 25 24 24 25 25 25 25 25 24
42 33 38 32 25 20 32 34 18 14 23 30 27 63 70 90 80 69 74 70 65 59 70 65 47 42 40 35 32 30 36 39 33 32 35 36 32 28 27 27 27 26 26 26 27 27 28 25 24
47 42 39 37 29 17 22 36 24 13 22 30 25 34 62 68 71 70 68 64 74 82 82 73 52 43 41 37 32 29 31 36 35 30 32 32 29 27 29 30 28 27 26 24 22 19 17 12 8
56 46 43 40 29 18 21 31 31 19 16 28 27 24 61 60 59 64 64 64 85 85 81 72 62 48 42 35 29 27 30 35 36 34 36 35 32 30 28 26 23 20 15 8 2 2 2 3 4
66 52 51 43 33 20 21 29 22 32 14 18 26 26 50 61 54 60 70 71 80 78 70 64 57 49 45 39 30 29 29 38 38 34 31 31 28 27 25 19 15 10 3 1 1 2 3 4 4
69 54 52 46 34 23 23 21 30 48 25 17 25 28 30 63 64 60 75 77 68 58 52 51 50 49 45 38 35 33 33 38 36 35 33 30 26 18 10 5 5 3 2 3 4 6 10 14 17
78 58 51 53 34 26 22 27 38 27 34 22 25 30 31 61 61 62 70 57 51 50 48 49 48 45 43 40 33 31 35 38 35 36 35 33 27 14 4 4 7 8 10 13 17 20 22 23 23
82 50 51 55 37 32 19 35 28 21 24 32 24 31 40 46 57 64 60 52 48 45 45 49 56 43 40 47 37 36 40 38 37 37 37 28 15 6 6 9 11 13 15 20 24 28 32 36 34
69 56 55 52 43 30 20 35 24 19 24 33 24 31 38 48 59 55 52 46 45 46 51 55 48 16 33 55 64 60 47 38 39 38 27 12 7 8 11 14 18 25 30 34 38 38 34 26 18
83 74 58 54 49 29 20 33 22 17 28 30 26 33 33 43 49 50 48 41 47 54 55 30 28 38 51 68 66 55 44 42 39 22 10 6 9 11 20 31 36 39 40 35 28 18 12 9 9
82 71 59 58 48 31 24 24 22 20 22 33 27 32 30 39 46 46 42 43 44 45 23 30 44 49 60 66 59 48 44 37 16 8 7 10 13 29 38 41 39 33 25 18 13 11 11 13 14
84 72 59 64 48 30 28 26 24 22 21 30 28 28 36 44 46 45 43 42 28 14 23 59 64 61 61 57 51 46 27 12 7 9 22 36 42 45 40 32 26 23 21 16 13 16 16 12 13
86 70 67 64 51 32 29 24 26 24 22 28 30 33 43 47 47 45 32 15 19 35 43 50 60 65 65 52 40 22 12 8 12 29 38 48 47 38 29 25 25 17 14 18 19 13 11 10 9
86 76 76 65 54 36 30 25 29 24 22 31 26 41 46 44 52 53 37 21 32 43 48 57 62 59 54 35 20 10 9 20 35 49 53 43 33 30 30 22 14 17 20 16 13 13 14 14 15
94 82 73 63 56 39 30 26 37 29 30 38 24 29 37 41 56 55 34 23 32 39 47 54 49 37 25 14 8 10 27 48 54 49 36 31 35 33 18 19 21 18 16 16 17 18 18 19 20
96 83 71 63 54 38 31 25 39 36 46 46 29 18 23 40 38 25 20 21 23 30 34 32 26 18 13 11 16 44 53 51 42 34 39 41 27 20 22 18 17 18 19 19 18 18 20 21 22
81 77 66 56 49 35 32 27 35 43 53 47 36 22 18 20 21 20 21 20 19 23 21 17 13 11 18 33 57 49 38 37 38 34 23 22 23 19 18 20 21 20 19 20 21 22 23 24 24
71 68 66 60 46 37 41 30 37 33 34 36 35 25 15 18 20 21 18 15 16 15 14 12 14 32 56 57 42 40 39 26 23 25 22 19 19 22 23 23 23 23 23 24 25 26 26 25 23
71 73 68 56 50 45 50 37 35 35 32 32 37 36 29 17 9 8 9 10 10 11 14 29 55 58 45 42 39 26 23 26 24 20 20 23 25 25 25 26 27 28 28 28 29 28 26 24 21
62 82 67 57 56 47 49 38 30 40 46 43 39 37 31 22 15 10 11 14 18 26 46 64 51 43 41 27 24 27 26 23 21 25 27 28 28 29 31 31 31 31 33 33 30 28 25 22 19
98 97 80 67 61 52 50 52 43 41 47 42 36 32 25 17 7 10 17 21 38 62 57 45 48 35 25 26 26 24 24 27 28 29 30 32 33 32 32 34 37 38 36 33 30 26 23 18 14

GFSSGP_500_rhum_021.txt.gz
RH
27 22 17 16 29 27 9 7 4 8 13 11 15 20 25 33 29 36 36 32 33 37 37 37 36 37 33 33 26 32 30 28 27 19 11 7 9 10 9 8 7 6 10 12 12 13 13 9 6
28 27 21 19 29 28 13 8 9 12 14 17 17 17 23 30 30 29 35 36 37 42 43 40 38 39 38 33 38 34 31 27 23 16 4 5 8 10 10 10 10 9 9 10 12 11 9 8 8
32 30 26 19 32 28 21 14 14 16 20 20 18 17 20 26 29 27 28 34 48 54 55 42 44 44 42 39 36 34 30 21 15 11 4 5 10 11 11 10 10 10 10 11 10 10 9 8 7
35 33 29 20 26 30 19 19 19 22 24 23 22 25 25 26 26 28 40 58 68 72 59 50 50 52 42 42 41 34 30 27 15 10 6 5 7 12 13 12 11 11 12 12 11 9 8 7 6
35 36 32 25 20 34 22 21 28 30 27 26 28 27 26 26 25 27 36 58 78 72 61 52 50 52 48 46 45 39 32 29 21 14 9 7 8 12 14 14 14 14 13 11 11 8 7 8 8
37 38 37 32 21 28 28 20 31 31 28 29 29 29 29 28 25 29 43 79 73 71 68 53 53 53 49 49 45 44 40 33 29 22 16 14 8 7 8 10 11 12 11 9 10 8 10 12 13
42 39 39 37 26 21 35 22 31 30 28 29 30 33 27 28 24 22 34 76 69 69 65 53 58 52 46 47 46 44 41 40 35 31 29 23 19 18 12 7 8 8 8 8 9 9 9 11 12
48 42 36 39 35 24 24 31 19 31 27 23 33 34 32 24 19 19 21 57 63 58 57 51 64 54 41 40 45 46 45 43 41 41 39 36 31 26 25 26 23 14 10 9 9 10 16 20 22
58 46 35 39 41 30 20 38 24 15 23 25 28 32 26 21 20 24 29 56 63 48 49 57 57 57 39 34 36 44 47 44 42 38 37 37 39 38 32 28 28 29 28 26 25 23 23 24 24
51 54 42 44 45 39 24 21 38 15 13 20 28 31 24 18 42 68 48 49 60 54 46 55 52 60 42 40 35 32 31 33 39 40 35 33 36 38 37 32 30 28 27 27 27 28 27 26 26
30 48 53 47 44 44 32 21 31 27 13 17 26 27 22 24 65 71 73 63 59 58 51 55 55 63 47 42 40 37 31 29 30 34 37 31 33 34 32 28 26 26 28 28 29 28 27 26 24
30 29 57 51 44 46 37 22 20 34 14 14 23 28 27 38 65 76 72 68 61 58 59 67 67 66 58 46 41 38 32 29 29 30 36 35 37 38 36 32 30 28 27 25 24 23 20 11 3
33 33 51 55 46 50 39 25 20 31 18 13 19 27 38 48 69 75 71 67 63 63 73 79 79 74 65 54 45 40 31 29 29 33 37 37 35 33 31 29 28 26 23 18 13 8 3 1 1
38 34 50 54 49 52 39 28 18 28 35 15 16 26 29 31 49 62 61 62 64 65 78 81 76 71 62 61 50 47 40 36 31 35 38 34 33 32 29 28 25 17 10 6 5 3 3 4 8
36 38 49 52 55 55 42 26 18 51 34 33 16 21 28 26 44 58 53 62 70 70 75 76 71 62 52 50 56 49 37 37 34 38 40 34 34 36 36 32 23 12 5 4 6 9 14 18 19
41 46 39 49 59 57 42 26 21 33 22 34 26 16 27 28 42 66 60 59 72 72 69 60 52 51 52 48 46 48 42 37 35 44 40 33 36 38 34 17 8 6 7 10 13 14 16 21 22
54 36 34 50 61 61 40 27 30 28 21 26 32 21 27 28 28 57 65 57 70 63 52 50 47 49 46 52 48 36 41 47 52 55 39 37 39 34 16 8 8 10 17 23 27 29 32 34 31
29 39 36 40 66 60 49 29 36 31 22 23 26 30 26 31 35 48 56 62 65 58 50 46 46 51 57 58 33 18 54 63 64 50 42 41 32 13 8 10 13 28 35 38 38 35 28 22 17
55 56 50 46 75 62 51 29 38 29 21 26 23 29 25 30 38 45 56 62 57 51 45 44 49 56 56 31 23 43 65 67 56 46 42 32 11 8 13 31 40 41 40 33 28 22 21 18 15
58 71 52 67 70 63 54 34 38 24 19 26 30 31 25 32 35 40 54 51 47 47 44 46 45 41 22 34 47 60 65 58 48 44 31 10 8 18 33 43 45 38 31 26 24 22 16 14 18
96 71 59 73 73 69 52 37 35 27 24 22 28 34 27 33 32 34 39 47 47 46 46 39 25 11 68 63 64 63 60 55 45 27 10 8 28 44 50 45 36 32 31 28 20 15 18 20 16
65 69 62 89 76 73 52 39 40 32 24 23 23 30 30 30 27 32 44 48 45 40 26 14 23 33 42 60 68 62 52 40 22 9 9 29 49 52 42 35 36 39 30 18 19 18 16 16 16
67 72 70 94 89 72 50 37 37 32 26 24 23 26 28 30 33 44 46 46 48 46 21 28 40 44 58 64 56 47 31 16 10 12 29 52 50 40 37 43 43 28 21 18 18 21 21 20 18
65 77 97 97 93 66 50 42 35 34 30 25 24 26 28 31 39 45 45 47 55 50 23 31 46 54 56 47 34 22 15 14 24 46 48 41 38 37 33 25 22 20 20 23 23 22 22 20 21
98 100 99 95 84 63 56 44 51 30 28 27 26 30 32 24 36 41 40 49 54 24 22 28 35 36 32 25 18 14 17 33 50 43 40 38 30 24 24 21 20 24 26 26 25 25 25 25 24
85 76 92 81 72 61 53 41 38 32 32 30 29 34 40 26 20 26 35 39 26 20 19 21 22 22 17 15 17 27 54 50 42 39 26 25 26 23 22 26 27 27 28 27 27 28 27 26 29
93 77 96 82 67 74 49 44 33 35 35 41 44 48 44 32 21 19 21 21 20 20 18 17 16 14 16 34 62 53 42 41 30 25 28 26 24 27 28 29 30 30 30 31 31 30 31 33 36
90 73 94 83 66 57 52 48 43 35 33 45 50 48 40 33 22 16 15 12 10 10 10 10 13 22 44 62 47 44 34 26 28 27 24 25 29 31 32 33 34 35 36 35 34 36 40 40 39
88 87 80 68 60 75 67 62 42 40 37 38 36 35 36 38 36 33 27 19 13 10 12 17 29 55 55 47 44 30 27 27 25 26 28 31 34 35 36 37 38 38 38 38 43 47 45 40 33
57 73 77 68 58 60 52 57 52 50 39 39 40 39 40 40 36 30 24 16 8 11 17 38 63 54 47 41 27 25 28 32 28 31 34 36 38 40 42 42 41 40 46 49 51 47 40 31 24

GFSSGP_500_rhum_024.txt.gz
RH
27 26 27 23 16 14 30 21 8 8 25 6 11 15 24 29 24 27 22 19 26 22 27 34 36 33 29 24 23 23 26 31 28 27 25 17 11 8 9 10 8 8 7 7 11 13 12 12 12
28 29 28 28 20 17 25 19 16 13 5 8 11 15 24 28 19 22 23 20 19 24 33 41 42 39 27 29 31 33 32 32 30 25 19 12 4 7 10 11 10 10 10 10 10 10 11 11 9
34 32 30 29 29 18 27 25 19 18 8 9 14 15 20 22 19 25 28 23 23 32 40 52 52 36 40 40 42 36 35 32 29 19 13 8 4 8 12 12 11 11 11 11 11 11 11 10 9
38 38 32 31 30 24 23 27 22 19 15 16 14 18 19 21 21 23 24 24 26 31 52 63 50 48 48 48 42 38 38 32 30 24 15 9 6 6 9 13 13 12 11 12 12 12 12 10 8
44 38 38 33 33 31 20 29 25 20 19 23 22 24 12 20 23 26 25 24 25 50 69 63 50 48 53 49 46 41 42 39 32 29 20 14 10 7 8 11 14 15 14 14 14 12 11 8 8
50 45 38 34 38 36 24 22 27 24 27 28 27 27 22 24 28 27 27 24 24 41 71 66 54 54 57 51 48 46 44 42 40 34 29 26 18 17 11 7 7 8 7 8 8 8 9 9 10
55 53 42 41 42 40 33 19 31 25 25 31 24 29 22 24 28 28 28 22 20 70 72 72 55 56 64 48 45 46 47 46 43 42 40 36 32 29 25 22 22 17 8 7 8 8 9 10 11
34 56 48 42 44 43 37 27 25 29 30 24 26 31 21 19 30 30 24 21 20 66 68 65 50 57 66 49 39 38 45 48 47 44 42 40 39 40 40 34 30 28 28 30 28 26 24 23 23
25 24 44 47 49 48 43 31 25 30 24 25 32 32 27 24 34 26 19 19 21 38 58 46 46 61 62 53 36 37 36 37 39 42 43 40 38 36 37 39 39 37 32 28 27 26 26 25 25
24 23 21 49 53 53 47 30 34 23 32 17 21 29 30 25 24 23 17 18 26 43 52 42 47 54 55 51 47 41 36 33 30 30 34 40 39 33 33 34 36 34 32 30 28 27 27 27 28
25 22 25 30 55 52 42 37 41 27 32 25 15 20 19 23 28 23 18 36 40 44 50 42 46 48 45 48 50 44 42 39 33 30 31 37 38 37 35 35 35 35 34 31 29 28 27 26 25
21 21 28 27 45 52 43 52 39 33 24 36 17 13 16 27 28 21 35 62 57 50 47 50 44 49 40 44 60 50 42 40 34 30 29 32 36 37 37 34 32 32 29 26 25 26 24 20 18
14 16 21 30 32 44 46 50 45 33 22 35 32 14 15 22 27 26 46 71 65 57 48 52 60 48 52 55 67 62 54 48 42 36 36 31 33 37 34 34 33 32 33 32 26 19 12 8 6
16 19 21 23 31 28 40 53 42 38 25 27 41 17 14 24 26 46 76 78 73 65 61 64 67 72 71 73 70 64 63 56 50 45 43 39 33 35 36 35 36 37 35 24 13 6 4 3 5
22 19 18 15 23 25 30 45 39 41 29 26 41 24 14 23 28 39 30 66 61 62 64 62 66 80 79 69 66 56 53 54 57 51 41 37 34 38 35 37 39 39 26 13 6 6 9 10 14
29 25 18 14 18 24 24 35 47 41 34 27 27 38 19 20 28 28 31 57 55 57 64 72 68 77 72 58 52 54 48 45 43 44 41 42 43 46 40 40 42 26 9 6 8 18 26 32 34
34 26 18 17 15 24 24 30 51 48 39 28 27 40 31 15 20 28 28 53 58 55 65 70 69 58 50 48 48 46 56 53 29 30 51 53 54 48 43 44 27 8 7 12 26 35 37 36 33
26 30 25 22 22 19 25 37 49 50 40 26 23 30 31 19 24 29 26 35 63 56 65 69 58 51 48 47 48 54 59 31 20 45 67 63 55 47 45 31 8 9 23 37 44 41 34 30 26
17 17 30 30 24 26 30 43 52 52 46 28 22 23 28 34 27 29 29 29 33 56 62 63 58 49 44 43 46 42 27 27 48 64 64 54 50 46 28 7 6 22 41 47 41 34 30 28 26
17 13 22 51 37 38 44 38 57 49 48 30 25 24 25 25 37 26 32 36 44 53 60 56 53 49 42 40 38 44 54 55 64 61 56 53 44 25 8 7 23 38 45 40 33 34 33 27 20
25 15 24 52 57 54 49 36 48 57 46 31 27 26 29 30 27 26 31 35 38 50 50 48 48 44 41 32 13 19 44 60 62 60 54 41 20 11 10 15 31 44 38 37 38 30 24 21 20
33 17 40 89 77 55 64 33 52 61 42 36 28 25 28 36 32 28 34 33 32 36 45 49 45 42 20 20 34 41 53 61 55 45 30 17 13 14 25 42 41 38 35 26 23 21 20 22 23
25 27 70 98 98 76 72 41 50 59 41 32 28 26 24 30 36 30 30 31 30 42 48 44 48 35 25 38 43 48 49 42 31 24 16 12 30 43 42 40 34 27 26 23 22 24 26 25 26
26 85 66 53 79 83 57 45 51 60 42 36 31 23 22 26 33 31 30 32 41 47 46 49 48 34 26 31 34 37 28 25 19 14 16 28 45 43 34 27 27 26 24 25 27 28 29 30 30
36 99 97 96 89 76 50 64 67 60 45 36 32 24 24 25 32 31 28 36 48 47 40 44 39 25 24 23 23 22 19 16 14 27 48 47 41 28 29 28 26 26 29 30 31 32 31 32 33
77 100 96 58 84 90 60 69 60 55 42 34 28 25 24 25 41 38 22 28 36 37 37 36 23 20 20 21 17 16 13 18 46 50 46 34 28 30 28 27 30 31 33 34 34 35 37 38 36
98 97 99 97 82 62 60 71 60 55 42 32 28 27 28 26 40 44 29 20 18 21 22 20 20 20 16 14 11 12 24 57 51 46 29 30 30 28 30 32 34 35 37 39 41 42 40 35 34
96 94 88 83 87 83 82 72 60 56 41 33 30 30 35 36 46 42 30 22 18 18 17 15 12 10 10 13 24 40 57 50 42 29 29 30 33 34 33 36 38 40 44 45 44 39 36 37 41
98 97 91 71 73 91 81 68 55 48 39 32 32 44 52 52 50 41 35 29 21 20 20 18 15 12 16 32 54 59 48 41 28 28 40 38 32 36 38 41 45 48 50 48 44 42 43 43 39
99 96 78 78 78 94 81 59 51 52 46 43 39 38 40 40 39 38 38 39 38 29 21 16 12 18 36 59 61 50 41 35 48 50 31 34 38 40 43 48 51 53 50 48 47 44 38 26 18

GFSSGP_500_rhum_027.txt.gz
RH
29 28 28 24 24 20 15 23 25 21 17 11 18 18 20 18 19 23 20 18 16 16 20 19 19 25 32 34 24 21 24 28 34 30 28 26 24 12 8 10 10 9 8 8 8 8 12 13 13
33 32 30 28 26 26 18 18 15 18 21 14 9 12 18 14 15 20 19 19 17 18 18 19 22 36 42 35 28 28 28 28 32 32 22 19 18 6 6 10 12 10 10 10 10 10 10 10 11
42 33 32 31 29 31 26 20 19 21 20 14 13 6 9 12 14 28 22 18 19 19 23 27 32 50 50 36 34 31 34 35 35 31 20 14 9 5 5 9 12 12 11 11 11 12 12 11 11
45 39 34 33 37 33 29 23 16 21 24 17 10 10 8 10 12 19 22 22 22 25 24 24 43 61 48 39 45 38 35 38 35 32 30 17 13 7 5 8 11 13 14 13 11 11 12 12 12
26 47 40 34 42 41 36 29 21 21 24 20 17 15 14 17 16 23 19 20 21 23 25 39 69 58 46 51 50 42 35 38 41 38 31 29 18 15 9 7 8 11 14 15 15 15 14 13 10
19 35 46 38 43 46 34 29 26 24 24 22 21 17 15 18 24 22 18 23 24 21 21 45 68 58 49 55 53 48 47 44 43 43 41 34 30 28 22 18 14 9 7 7 7 7 8 8 8
22 20 34 47 44 46 38 27 28 19 26 24 25 25 24 19 24 24 24 25 25 21 22 46 68 61 49 53 55 46 42 46 47 47 45 42 42 38 36 32 30 26 23 23 22 18 12 9 8
23 23 19 39 50 49 44 36 36 26 24 26 28 29 27 24 21 28 30 27 25 20 20 65 66 61 45 55 58 45 39 39 46 48 48 46 44 41 39 38 39 38 36 33 29 26 26 29 30
19 16 20 17 47 66 58 45 32 35 25 28 27 31 29 25 21 32 26 24 20 16 20 59 55 49 41 60 58 47 41 40 36 33 32 36 40 41 39 34 33 35 37 38 37 34 31 29 28
14 10 17 24 24 52 69 53 33 39 33 26 28 27 26 23 17 26 26 26 22 16 16 36 56 39 39 58 54 48 47 44 42 38 33 31 32 33 36 35 32 34 36 35 32 30 30 29 28
20 9 16 25 25 26 53 59 43 38 41 31 27 26 22 22 20 27 30 29 21 17 20 26 45 39 45 57 54 55 61 46 42 40 36 31 31 34 41 41 40 38 34 31 30 29 28 27 25
21 16 13 24 27 24 21 43 49 40 42 35 24 30 28 16 16 22 26 22 21 21 46 38 41 34 36 43 40 43 57 63 55 48 47 40 38 37 34 37 36 34 32 33 34 35 33 31 26
24 21 14 17 23 25 24 18 39 48 46 41 31 24 34 24 13 15 24 26 21 41 62 52 46 40 35 41 37 39 57 68 65 61 54 50 44 43 42 38 38 36 35 37 38 38 30 18 11
28 22 14 9 13 17 20 17 18 49 57 38 38 26 25 35 15 16 26 30 31 35 69 64 54 46 46 41 48 60 67 66 60 56 57 57 51 48 41 38 37 35 36 38 40 35 17 8 6
20 15 16 13 11 11 19 9 11 31 54 44 45 32 21 33 18 16 30 28 42 48 63 72 66 61 58 61 73 72 65 59 57 54 46 42 46 46 42 37 38 38 39 41 40 16 6 6 10
27 22 17 16 17 14 16 8 11 22 41 48 48 37 20 34 23 15 29 29 35 38 66 62 59 60 62 61 67 64 54 51 45 48 44 24 24 42 42 40 37 41 46 42 20 6 8 17 30
32 25 22 22 20 21 19 11 11 24 28 46 51 41 23 26 31 15 24 27 30 33 60 56 60 68 66 68 57 50 48 46 53 53 34 34 46 64 58 46 49 48 39 14 5 5 15 33 42
37 38 39 32 33 30 27 17 13 23 28 43 52 42 27 23 37 25 16 21 29 30 54 55 60 70 68 59 52 48 45 45 42 32 42 56 64 62 57 53 47 32 17 9 6 22 36 39 39
37 36 31 33 33 35 27 24 16 17 31 37 53 43 29 22 36 28 17 24 29 29 38 58 62 68 69 64 54 49 43 41 34 52 61 62 61 56 50 45 30 18 12 9 18 39 43 38 36
53 46 35 28 27 29 31 26 23 21 23 41 57 44 30 21 25 47 27 25 29 32 33 36 58 63 61 60 53 46 40 18 24 45 56 55 53 52 42 27 19 13 10 18 38 41 38 34 32
62 46 34 25 21 20 23 32 24 16 18 45 54 49 33 22 24 32 38 34 28 32 40 48 56 59 53 51 47 39 19 25 40 44 51 55 50 34 23 16 11 20 38 43 40 35 29 24 22
74 59 54 34 20 17 29 28 28 18 23 45 54 52 40 23 30 33 32 30 26 31 36 42 52 47 49 48 44 25 28 39 43 46 46 41 26 20 13 14 31 43 42 31 28 27 24 23 26
71 81 60 48 26 16 23 45 24 25 22 41 47 50 33 22 29 44 36 30 29 34 34 34 36 48 47 47 51 35 28 32 35 32 28 23 16 12 22 44 47 37 29 29 28 26 26 28 30
81 88 68 57 36 39 14 42 36 26 26 33 49 52 36 24 26 35 37 41 30 31 32 34 44 46 47 48 53 34 27 26 25 23 19 14 15 39 49 44 32 31 30 29 30 34 33 34 36
100 99 78 56 33 22 35 66 65 38 34 40 53 51 34 25 27 32 32 38 30 30 34 39 44 45 41 46 43 22 21 22 20 16 13 20 48 51 42 31 32 30 30 33 34 34 37 38 39
72 97 66 40 24 17 96 97 52 50 53 48 56 50 36 26 25 29 28 34 28 24 30 35 40 38 36 31 22 21 18 15 13 13 31 55 53 41 32 32 32 35 37 35 37 39 41 43 45
72 91 37 24 26 79 89 85 56 59 62 58 49 42 35 30 29 27 28 45 36 19 18 23 24 23 21 21 19 13 10 11 21 45 56 53 39 31 32 36 39 36 37 39 42 45 48 44 42
80 69 43 72 98 99 99 70 35 35 64 54 45 37 33 28 27 29 40 48 38 24 20 19 19 18 15 13 11 12 15 30 55 59 53 38 32 40 46 36 36 39 42 48 50 48 43 44 39
65 68 90 100 97 98 81 51 55 78 65 56 45 36 31 32 32 34 43 48 44 32 24 18 18 21 20 17 16 18 33 68 62 56 41 57 64 40 35 38 42 44 52 53 48 45 42 30 20
94 98 99 94 98 96 87 48 51 74 60 50 41 35 34 38 46 51 50 47 42 37 35 34 30 25 20 14 21 38 62 62 63 57 66 67 43 45 40 43 46 54 56 49 46 36 24 13 12

GFSSGP_500_rhum_030.txt.gz
RH
24 24 26 26 24 24 22 17 12 13 21 21 14 13 16 28 32 25 19 19 18 18 15 15 16 16 21 32 34 29 21 20 22 25 28 26 24 24 18 11 10 11 10 9 8 8 8 10 14
27 26 26 28 29 28 26 20 15 14 17 22 21 20 16 13 13 14 19 17 16 16 17 15 16 18 28 39 40 28 27 22 24 28 31 22 16 16 13 5 9 11 11 10 10 10 10 11 11
18 31 30 29 30 34 30 25 18 16 18 21 21 22 16 9 8 13 21 18 15 16 15 16 18 22 32 43 40 31 30 28 27 33 32 25 16 9 6 5 8 12 12 12 10 11 12 13 12
17 17 32 31 32 36 34 29 26 20 19 26 28 21 16 9 6 12 15 19 18 15 15 19 21 23 40 53 37 38 34 31 35 36 32 31 24 14 9 6 6 9 13 13 14 12 11 11 12
18 17 17 33 40 39 36 33 30 26 20 25 24 20 15 14 11 12 22 25 22 19 18 20 22 28 56 56 38 39 36 39 36 37 38 34 31 28 17 13 8 7 8 10 14 15 15 14 14
19 19 17 16 46 46 38 38 34 30 22 19 22 22 18 17 14 14 20 20 21 22 22 20 23 43 63 50 41 44 48 46 41 38 39 40 38 32 31 29 23 18 14 9 8 8 8 7 8
18 16 19 17 28 52 45 37 40 39 28 21 20 21 21 20 18 20 19 24 28 26 24 21 20 30 58 54 40 47 51 44 43 44 46 45 43 41 40 38 36 34 31 29 27 24 24 24 23
21 18 12 18 17 48 60 43 43 40 41 26 22 20 24 25 24 26 29 30 30 27 24 23 21 30 59 56 42 52 54 42 40 42 44 42 44 44 43 41 39 38 38 39 41 39 35 32 29
20 16 10 10 20 31 56 51 41 36 41 33 25 21 22 25 23 22 27 28 25 26 24 22 21 42 59 55 41 56 57 45 42 41 38 36 32 32 33 37 39 36 34 34 37 37 37 35 33
17 15 11 12 18 25 60 47 49 38 42 38 28 21 22 23 23 26 27 26 27 28 27 24 20 23 57 50 40 55 56 53 45 44 43 42 37 32 32 35 40 40 40 40 38 33 29 27 27
18 13 17 17 14 22 31 28 42 43 40 47 38 26 25 24 25 27 30 32 32 26 29 25 22 21 43 43 37 51 52 52 52 53 46 44 44 42 40 39 36 38 38 33 30 31 33 35 36
17 19 20 21 16 19 21 30 21 36 45 52 47 35 24 27 27 22 25 33 25 26 29 23 25 29 47 46 43 49 53 51 51 60 54 58 54 55 51 45 45 44 39 38 36 36 37 38 40
19 18 17 22 23 14 18 19 19 17 36 58 50 44 35 25 24 30 18 16 19 27 31 24 54 50 51 55 46 47 50 45 47 64 68 60 57 57 57 55 53 51 42 38 37 37 39 40 40
17 16 17 17 24 20 14 14 14 16 22 38 52 50 46 41 25 24 28 14 15 27 32 32 71 60 53 48 43 41 44 51 70 72 62 59 54 46 42 45 49 52 47 39 36 38 41 43 28
18 18 24 22 25 25 19 10 8 12 25 20 42 53 46 46 32 22 32 15 16 23 34 40 83 75 65 57 56 59 66 72 70 61 56 42 42 42 36 30 35 43 44 40 36 33 37 34 9
28 28 23 24 24 24 28 9 12 12 18 26 30 52 51 44 37 23 31 18 16 25 28 54 86 81 72 67 65 65 65 70 59 49 41 51 47 32 52 49 49 43 34 33 33 42 32 14 7
33 28 25 27 35 33 30 13 16 14 16 21 25 38 52 43 39 27 32 21 15 26 29 35 60 63 62 68 76 76 66 55 48 45 46 41 36 48 62 64 61 56 52 49 40 25 16 12 10
39 37 36 33 42 37 33 20 20 19 17 16 24 22 41 43 41 30 29 31 16 22 27 31 37 55 60 71 78 67 58 52 49 46 43 33 42 62 60 57 54 51 47 32 23 19 14 9 12
42 44 40 37 40 39 30 23 20 19 17 15 19 23 31 44 39 31 25 34 27 17 18 29 32 55 62 71 71 71 66 56 51 40 23 38 52 53 51 50 46 40 29 23 18 12 12 15 31
49 44 38 43 39 36 34 22 21 20 16 17 17 22 30 45 38 32 33 35 29 17 22 30 32 48 62 67 66 69 58 52 45 25 28 38 44 45 46 42 34 26 20 16 11 14 31 40 42
50 47 55 47 40 36 32 25 24 25 23 18 14 16 23 38 39 32 28 35 33 29 37 30 36 36 39 60 65 61 52 48 37 25 33 39 41 39 37 30 23 18 12 21 43 46 41 33 31
65 76 82 72 56 44 39 25 24 29 23 19 20 16 20 27 39 32 27 30 38 42 40 28 35 47 53 58 64 52 50 47 46 30 30 34 33 28 26 20 14 15 30 43 44 38 33 29 27
76 100 98 93 81 63 43 30 20 24 20 16 20 16 21 40 39 33 34 29 27 36 31 27 31 40 45 57 49 49 46 48 52 36 27 24 25 24 18 13 22 40 48 41 32 32 30 29 38
92 100 100 100 100 78 46 35 18 20 16 19 20 19 28 52 38 34 34 32 35 37 34 29 34 36 38 42 44 45 43 45 48 31 24 23 19 14 13 30 47 52 42 33 32 32 34 39 36
100 100 100 100 98 48 50 42 13 14 17 26 25 23 36 53 43 36 34 36 36 38 43 29 28 35 36 38 41 39 38 43 34 24 22 15 13 16 38 49 52 42 34 32 36 40 38 36 38
100 100 100 100 89 71 62 44 13 13 13 36 26 24 40 57 45 39 35 31 29 31 42 28 24 32 36 37 37 33 31 24 22 16 12 13 20 40 53 54 40 33 38 48 43 40 40 42 47
82 96 78 99 100 83 56 34 26 23 14 52 26 28 38 54 45 39 33 27 28 31 44 29 19 23 28 25 22 21 21 18 13 14 17 22 49 58 55 40 46 67 56 50 48 42 48 55 53
67 93 100 99 98 69 37 31 20 17 17 51 32 33 58 51 42 38 29 27 30 40 50 34 22 19 19 20 20 16 14 19 18 18 25 59 64 64 51 56 72 65 68 44 45 54 57 51 42
100 85 83 74 63 34 28 21 17 68 53 48 49 68 56 46 40 37 33 32 34 50 39 28 24 22 19 18 23 25 24 19 18 35 64 69 66 72 79 79 72 69 47 53 60 58 47 38 28
61 92 57 54 59 51 34 46 77 63 60 67 89 69 52 42 38 36 37 46 52 49 42 34 29 30 34 33 29 22 18 24 37 66 81 71 72 79 83 87 75 49 68 59 59 44 33 24 20

GFSSGP_500_rhum_036.txt.gz
RH
9 16 22 21 20 19 20 20 17 17 16 14 17 21 21 19 19 25 25 29 25 25 21 21 21 16 14 12 11 10 11 14 14 12 10 12 14 17 17 20 21 21 18 14 14 11 9 9 8
10 9 19 23 23 21 22 21 21 20 20 16 15 20 22 23 22 19 21 26 23 22 18 21 18 18 16 14 13 14 16 17 17 15 14 15 17 20 17 17 18 16 14 8 10 11 11 10 10
13 12 10 11 22 30 26 24 25 24 24 22 19 17 19 22 23 24 24 28 28 23 16 18 21 20 19 17 16 16 22 25 23 19 18 19 21 22 25 20 12 9 8 8 8 10 13 12 11
14 14 14 11 10 17 33 29 27 28 25 25 21 20 20 24 29 30 31 23 27 29 21 23 23 20 18 18 19 21 29 34 31 25 24 22 22 28 28 29 23 16 11 7 6 7 10 13 14
16 16 15 14 16 15 16 31 34 33 31 28 26 22 22 22 28 26 30 31 24 21 20 28 26 23 19 19 22 30 37 40 35 32 28 26 28 32 32 32 31 30 26 21 19 15 10 8 9
15 15 13 14 18 19 19 20 32 40 35 30 27 26 24 25 23 25 33 34 25 18 21 25 28 22 20 22 26 41 54 47 44 39 36 34 31 33 34 36 36 34 31 30 30 30 31 29 27
12 13 12 13 18 21 21 17 19 40 42 36 29 30 28 23 23 26 24 20 22 21 25 29 26 26 24 24 30 54 64 53 48 50 43 40 42 43 43 43 43 42 40 39 39 40 39 39 39
12 11 8 9 12 19 22 20 18 19 45 43 35 32 32 29 25 25 24 22 25 30 31 32 30 31 29 26 26 52 65 62 52 57 50 42 42 42 38 36 35 36 37 39 41 41 38 36 34
10 7 7 12 15 20 23 20 18 18 21 40 45 39 35 32 28 24 23 25 27 33 33 34 35 34 33 29 26 32 55 75 60 59 63 48 46 44 42 41 38 35 35 36 38 39 40 39 37
11 10 12 16 18 21 26 21 17 15 18 24 49 48 43 35 30 26 25 27 32 37 35 36 36 36 34 32 27 26 62 82 75 61 64 60 54 53 49 47 45 44 42 43 44 44 44 43 39
14 12 14 14 14 18 23 22 19 12 13 19 35 51 44 36 31 28 27 27 32 36 36 37 36 35 33 32 30 23 36 79 74 62 62 64 62 60 59 58 53 52 54 52 49 46 48 51 49
13 17 16 18 14 14 21 22 17 9 8 15 19 32 48 42 35 32 28 28 28 32 34 35 35 35 31 30 30 24 25 62 71 58 58 64 57 56 59 60 58 58 52 46 44 42 39 41 44
11 16 20 22 23 16 16 22 21 13 7 10 15 20 43 50 43 40 37 29 28 30 33 35 32 32 30 28 30 30 38 50 68 59 56 60 56 53 59 61 61 52 45 40 39 41 39 39 40
16 18 20 20 20 21 17 24 26 20 16 9 10 16 22 55 54 42 41 38 32 32 28 22 21 25 25 26 30 53 60 59 75 71 56 53 57 63 70 63 50 44 43 37 43 57 54 58 54
17 20 23 23 28 23 21 17 21 25 25 19 16 14 20 25 62 51 44 38 38 33 40 32 17 15 16 25 33 66 68 76 85 76 71 67 69 77 64 53 44 48 42 46 57 61 62 60 58
13 15 19 29 27 27 24 14 21 21 21 20 19 16 16 23 27 61 48 43 39 41 33 39 24 15 17 26 37 64 88 92 84 84 82 76 79 65 56 45 46 42 38 46 56 58 55 52 50
13 14 18 27 38 35 27 18 19 20 21 22 21 17 11 15 24 32 43 46 43 42 36 30 32 16 18 30 44 65 94 92 83 91 90 81 70 57 49 46 43 37 50 52 51 52 49 47 40
14 14 15 17 29 30 27 16 23 23 18 18 19 19 13 9 15 25 22 32 45 45 42 27 32 21 17 33 45 68 91 85 86 91 88 78 62 53 48 45 26 26 35 43 44 42 38 31 26
11 13 16 20 22 23 29 22 21 22 17 15 16 15 14 9 13 20 16 20 51 50 45 34 31 30 17 33 38 51 85 77 80 80 78 73 61 52 48 35 28 38 40 39 32 29 30 22 14
14 16 17 21 35 33 28 19 23 22 15 18 15 14 15 11 13 16 12 17 39 55 45 38 32 42 27 21 28 33 66 73 73 81 74 71 58 51 49 45 32 33 36 31 28 28 19 17 12
20 23 30 36 50 46 37 19 22 28 24 24 22 18 18 14 16 14 13 14 21 52 50 42 28 43 36 17 20 30 38 63 69 75 69 66 56 51 51 55 50 42 34 28 26 16 19 15 13
31 41 50 47 48 40 60 22 22 22 23 25 27 24 21 19 19 17 14 14 15 39 49 46 29 30 38 27 34 33 36 43 58 61 59 66 56 52 50 48 48 42 31 25 16 21 16 18 34
45 49 54 53 53 50 40 48 14 26 26 22 22 25 24 24 24 22 17 15 17 24 48 46 32 39 42 37 41 33 42 45 46 55 62 62 53 49 44 40 41 31 24 17 22 19 22 38 48
23 20 20 29 48 43 36 57 20 23 27 35 27 24 26 27 28 27 21 16 15 28 54 49 33 32 40 46 43 28 32 44 50 50 53 52 46 44 39 35 31 22 19 24 21 32 43 56 60
11 16 16 13 12 10 20 52 21 26 30 36 41 30 30 27 24 27 24 19 16 34 56 50 34 31 37 42 39 31 34 35 37 38 39 41 41 40 30 30 22 22 24 24 35 48 57 63 70
30 33 36 29 23 22 21 15 9 29 38 43 45 41 32 27 23 28 26 21 18 36 57 49 41 36 40 50 43 33 28 30 36 38 37 35 32 26 29 23 26 24 29 35 49 56 66 74 76
36 40 80 92 79 42 27 18 20 16 39 52 52 46 37 30 26 28 30 23 19 48 60 50 46 49 55 52 50 42 26 24 27 26 25 23 26 26 26 27 25 33 35 47 58 65 71 80 83
69 95 97 100 100 86 39 29 63 39 43 53 58 48 39 31 26 26 30 26 24 58 58 50 44 45 45 42 48 46 29 19 18 21 22 24 27 28 27 30 35 34 46 56 62 76 83 86 75
100 99 100 98 100 100 72 35 69 44 48 50 61 44 30 29 30 28 29 26 54 64 55 47 44 40 41 42 52 49 30 22 21 21 26 30 30 34 38 36 33 47 54 64 82 87 82 72 62
99 100 100 100 89 100 98 41 47 82 62 62 43 39 28 24 40 35 30 36 67 67 52 44 42 40 42 42 61 41 22 23 27 33 32 36 44 44 34 38 49 62 76 88 88 72 62 62 78

GFSSGP_500_rhum_039.txt.gz
RH
6 6 7 10 14 14 16 19 19 18 18 17 16 17 19 24 25 31 26 21 10 17 26 23 20 20 18 16 14 13 12 12 12 14 12 10 10 12 17 15 15 17 17 19 18 16 15 11 10
9 8 7 8 14 18 20 19 21 21 21 21 19 18 18 20 23 23 25 23 18 11 14 22 18 18 19 18 15 14 14 15 15 16 14 12 11 12 15 15 16 17 17 16 15 8 10 11 11
13 10 8 7 8 19 26 24 23 23 24 24 23 22 20 19 22 25 28 24 33 25 15 16 15 16 17 18 17 15 15 17 17 22 17 15 14 14 16 19 20 16 12 11 9 7 7 9 12
15 12 11 10 11 11 13 21 26 26 27 28 27 25 24 22 23 30 28 26 30 54 32 23 14 16 18 20 20 18 16 16 18 27 24 21 18 17 18 21 22 26 22 17 13 9 8 7 7
12 13 12 12 14 15 14 11 15 30 28 27 27 28 26 25 24 27 31 32 33 36 40 27 20 17 20 22 21 20 22 26 27 33 31 28 26 23 22 25 27 28 30 30 29 28 26 25 24
11 11 11 13 16 17 17 16 13 15 32 30 27 28 30 31 31 32 30 36 34 37 35 24 22 22 23 23 22 22 24 29 37 39 36 36 36 33 28 30 29 28 32 33 35 34 33 32 32
11 11 11 13 16 14 17 16 16 16 17 35 32 29 31 33 34 34 31 32 41 52 48 32 23 28 26 24 24 25 28 40 51 48 46 45 41 39 40 41 40 40 42 41 42 42 41 40 39
12 11 10 12 13 14 19 20 20 17 16 19 31 37 36 36 33 31 29 30 34 30 28 27 29 31 29 28 29 28 28 44 58 59 52 52 48 42 42 41 38 36 35 35 36 37 37 39 40
10 8 11 13 12 12 15 15 17 16 18 17 18 33 39 40 39 35 33 32 30 29 30 34 33 34 33 32 33 29 28 30 52 64 62 56 61 48 45 43 43 43 41 40 40 40 41 43 42
7 7 11 10 9 11 15 14 13 10 10 14 17 17 28 41 41 40 36 34 30 29 32 33 39 38 37 35 34 31 30 27 36 59 73 63 61 60 50 48 49 49 46 45 46 44 44 43 42
8 10 12 12 12 14 18 18 18 14 10 13 12 15 15 28 41 41 41 37 27 26 33 38 37 37 38 38 35 32 31 26 29 72 82 80 64 64 62 54 58 57 54 52 51 47 45 43 42
9 10 11 14 13 14 14 15 16 16 14 14 11 11 14 16 28 43 44 43 32 28 30 39 38 37 36 36 33 30 30 26 24 57 82 74 67 61 62 56 58 58 57 58 51 45 38 38 42
12 14 12 12 16 17 17 18 15 13 16 17 14 10 9 16 20 46 44 45 39 32 30 32 35 34 33 33 32 30 30 28 28 37 70 69 60 58 60 56 58 59 63 52 44 43 41 46 44
14 15 17 16 16 13 15 20 20 18 19 17 14 14 12 11 17 32 51 48 46 40 35 32 32 34 34 32 32 30 28 32 53 54 70 65 57 51 54 56 64 65 59 44 47 44 46 56 56
10 12 15 19 21 15 15 10 10 24 20 18 17 14 14 14 14 19 52 52 53 51 40 37 33 28 24 24 23 24 27 37 66 67 77 68 62 55 61 74 74 63 48 45 46 39 42 55 55
7 8 9 14 18 17 16 10 17 23 21 19 19 16 16 19 16 18 23 49 53 52 50 41 36 39 35 22 16 16 27 42 80 76 75 73 74 70 76 78 65 55 48 48 39 41 50 54 53
9 7 9 11 11 13 13 11 16 19 21 19 20 18 13 11 18 16 22 23 30 49 54 53 46 35 34 33 18 17 30 45 87 82 76 76 78 82 81 72 59 52 50 43 27 41 43 42 43
7 7 7 9 11 12 12 11 15 18 18 19 16 18 14 10 14 19 18 22 18 19 45 56 51 46 33 36 26 17 30 54 77 82 82 80 84 90 82 68 61 55 50 32 30 37 39 40 35
8 9 9 13 17 17 14 9 12 16 16 17 20 18 16 12 14 22 17 21 16 16 26 56 57 49 36 33 31 17 31 49 63 67 80 78 84 82 78 72 64 54 49 39 31 33 37 32 30
15 16 18 19 20 19 18 15 12 12 16 17 21 22 23 17 16 18 23 18 17 16 19 41 61 53 44 31 34 20 32 49 70 78 77 78 81 77 75 72 61 53 52 51 50 43 34 30 25
16 15 17 19 20 19 19 14 16 14 13 18 18 27 25 21 18 20 20 18 16 13 20 30 58 57 47 36 35 36 22 47 63 75 78 75 79 78 70 68 62 54 50 48 42 41 33 24 18
22 24 24 22 22 21 23 16 15 18 18 21 21 21 34 31 25 24 25 20 16 13 20 23 42 59 51 40 34 41 20 28 43 43 53 73 69 69 62 68 61 53 48 40 37 34 23 19 27
25 25 27 33 37 34 29 33 15 17 20 24 39 34 25 38 35 31 30 29 23 18 17 21 24 50 56 46 38 44 34 38 47 46 41 47 55 53 62 64 55 49 42 34 32 23 21 27 24
31 44 44 32 19 21 19 16 24 26 26 26 35 47 39 28 36 36 33 31 27 22 18 16 18 32 55 50 43 53 44 43 34 37 46 50 55 56 54 50 46 42 33 32 25 25 26 25 28
36 15 13 15 16 16 14 17 9 10 11 19 26 39 50 39 30 32 33 31 32 28 20 19 20 39 59 49 38 46 47 45 32 29 37 41 45 42 40 41 39 30 35 29 28 27 30 32 34
18 21 18 23 31 30 28 20 22 27 21 17 11 29 50 58 42 31 32 32 32 32 24 22 25 52 61 49 38 37 42 41 33 33 33 36 38 38 36 30 29 36 31 30 30 36 34 37 45
23 29 35 38 46 55 40 41 38 31 50 37 20 10 39 54 43 42 36 32 30 31 24 26 32 62 63 47 42 40 40 48 45 30 24 23 24 24 23 31 38 33 32 38 40 35 40 44 53
48 54 74 94 96 95 72 63 36 50 50 36 27 16 25 53 47 39 36 32 28 31 25 23 25 51 62 45 48 55 54 57 60 49 31 21 23 26 33 37 36 37 45 40 39 41 51 74 77
59 76 96 100 99 99 98 66 60 67 49 29 47 42 33 58 51 42 33 29 32 29 26 22 24 45 61 50 63 57 52 56 65 58 30 27 31 38 37 39 47 50 42 43 44 66 80 80 56
75 90 100 100 100 100 100 52 96 70 49 64 94 68 61 57 52 41 33 29 33 29 25 24 39 58 60 49 51 52 52 59 76 47 28 33 41 40 50 58 56 48 44 51 82 85 83 53 66

GFSSGP_500_rhum_042.txt.gz
RH
7 6 6 6 10 10 14 16 18 18 17 16 16 15 15 18 23 35 32 30 19 12 10 14 14 15 17 15 13 12 12 11 11 12 11 12 11 11 14 14 15 14 17 18 18 17 16 16 15
9 8 6 6 8 11 14 15 16 19 20 20 20 19 18 16 18 23 26 31 25 20 14 16 19 19 16 15 14 12 11 11 12 14 13 14 13 13 16 16 14 15 16 16 15 15 12 9 10
10 9 9 7 6 8 15 17 17 18 20 23 23 22 20 18 18 19 23 31 29 27 25 18 18 15 12 13 13 13 13 12 12 16 17 17 15 13 14 17 17 17 16 15 14 13 12 10 8
12 11 9 8 8 8 8 12 16 21 21 24 24 25 25 22 22 23 23 30 76 27 46 34 26 21 13 11 13 14 14 14 14 17 17 22 20 17 16 16 17 18 19 19 17 15 12 8 8
12 11 10 10 11 11 10 9 9 13 19 24 24 26 28 26 25 23 26 32 29 32 43 48 34 27 13 15 15 16 15 16 16 21 24 27 24 22 20 18 18 17 22 25 25 26 27 28 28
11 11 10 9 14 13 13 12 11 11 11 15 26 27 30 30 29 28 27 31 30 32 36 36 41 24 14 16 18 20 19 18 19 24 30 36 33 33 33 28 24 23 23 23 24 26 29 31 34
11 12 11 10 13 14 15 13 13 14 14 13 13 26 29 34 33 33 32 37 40 37 35 51 50 40 20 18 22 22 20 21 22 29 39 44 44 42 38 37 38 37 37 37 38 36 38 39 40
9 10 9 11 13 12 14 15 13 13 13 15 14 16 26 30 35 36 34 35 38 36 38 48 43 41 26 22 23 25 25 25 23 28 43 53 48 51 44 42 41 40 37 35 34 35 36 38 39
10 9 8 12 14 12 14 15 14 12 12 14 16 15 16 29 33 35 37 37 35 31 33 35 30 33 30 34 30 30 31 30 29 27 39 59 60 56 56 49 45 44 42 42 43 43 44 44 44
9 8 11 12 13 12 12 13 13 10 8 10 15 16 15 17 29 38 40 40 37 34 33 33 34 33 36 36 36 34 34 32 31 27 29 48 71 66 61 64 51 50 50 50 51 47 46 43 41
9 10 10 11 11 10 10 9 8 8 9 10 11 11 11 13 16 27 41 43 42 38 36 32 32 35 34 37 36 37 37 35 32 30 26 39 64 79 70 66 64 61 57 58 56 54 53 50 44
10 12 10 11 11 10 8 8 9 9 12 11 12 12 13 12 13 17 33 48 46 42 40 31 30 37 38 38 37 37 35 32 31 30 26 37 71 76 76 65 63 61 59 58 58 61 52 45 42
12 14 12 11 11 12 12 12 12 11 14 14 12 13 14 14 12 13 18 41 55 53 46 36 29 34 41 39 35 34 31 31 31 31 28 27 49 79 71 62 60 61 59 59 62 61 48 47 45
14 15 16 15 13 11 13 15 10 13 16 16 14 13 13 15 16 12 15 22 56 60 52 40 32 31 35 40 37 33 31 30 31 32 36 36 41 65 65 58 60 62 63 68 63 57 46 47 42
12 15 14 19 18 15 14 13 11 17 19 16 16 16 14 13 15 15 13 19 34 62 60 51 40 34 32 32 33 33 30 30 29 30 49 58 60 72 67 65 65 68 75 72 62 51 47 46 38
12 11 10 13 12 12 12 13 16 18 16 13 15 15 16 14 15 19 17 14 21 47 61 59 53 44 36 34 31 28 24 19 18 29 42 74 68 71 69 74 78 84 84 66 57 51 52 34 40
8 8 8 9 9 9 9 8 14 18 17 15 14 15 14 16 13 17 20 15 17 20 34 59 61 53 45 38 34 32 34 23 17 27 42 82 79 79 75 83 84 81 77 64 60 57 51 28 26
7 7 7 8 8 8 6 4 8 11 12 13 15 15 16 18 16 14 17 21 17 16 18 30 60 62 52 47 44 33 29 35 19 26 46 77 91 85 78 89 90 82 76 67 64 57 49 36 32
8 8 7 7 8 6 6 4 5 10 13 10 13 15 18 20 21 16 16 18 23 17 17 19 33 69 64 53 49 43 31 39 30 33 51 67 95 93 82 88 86 82 79 74 65 55 51 46 46
9 8 8 7 9 7 6 5 9 11 14 16 14 12 14 19 23 21 16 18 20 25 17 15 21 39 69 66 56 47 35 34 46 44 61 85 92 87 85 89 84 77 74 72 66 56 52 47 44
12 10 16 15 15 14 13 7 12 12 14 15 18 16 15 17 24 29 24 18 18 24 23 16 18 24 32 58 62 54 46 35 34 26 52 76 88 90 86 88 86 80 70 69 68 59 51 46 40
16 18 17 17 18 18 17 13 12 14 15 17 22 21 17 16 20 30 30 25 22 22 25 23 15 20 21 39 59 59 51 37 43 37 29 59 74 79 96 88 79 73 63 65 67 56 47 44 40
19 21 25 24 22 20 20 23 7 16 17 23 20 21 23 20 17 23 35 28 24 24 21 23 15 18 19 25 61 62 54 40 40 54 56 59 69 65 58 61 62 62 57 63 57 45 45 43 29
31 26 28 28 32 27 25 21 12 16 16 18 22 27 30 29 25 23 28 33 24 22 24 22 17 17 18 20 33 64 62 48 46 57 61 59 57 61 49 47 49 56 56 50 42 42 36 27 26
27 31 39 35 22 19 16 15 13 16 15 15 15 21 14 27 33 30 33 30 33 23 27 27 22 18 17 19 20 54 64 52 62 69 64 43 42 42 46 54 53 49 41 39 32 31 27 29 31
40 38 18 16 16 23 24 18 25 30 26 19 21 28 19 13 20 37 37 33 34 31 32 30 26 21 18 18 20 50 63 50 52 64 60 38 41 54 55 54 41 35 30 29 32 29 32 35 41
25 16 19 27 40 46 46 39 38 62 55 45 47 40 29 16 13 20 39 42 29 35 35 34 32 26 20 19 21 61 68 50 44 58 62 42 38 37 28 25 23 24 30 36 34 35 42 45 45
16 27 45 60 63 72 61 58 56 70 72 74 58 51 32 16 18 12 36 48 33 34 37 36 34 29 23 20 23 64 70 50 47 61 79 79 71 61 47 32 30 32 40 39 42 51 50 50 48
34 49 69 96 93 99 85 44 82 92 99 99 93 65 43 38 30 12 32 51 43 32 34 35 34 30 23 21 25 56 64 51 59 78 82 83 90 82 40 33 37 42 42 51 59 59 57 51 66
43 67 89 100 100 98 94 22 97 100 100 74 93 74 38 36 27 40 42 54 47 36 37 33 33 28 24 24 25 65 65 59 81 72 70 82 97 76 38 44 45 48 62 68 72 62 54 88 90

GFSSGP_500_rhum_045.txt.gz
RH
6 6 6 6 8 7 11 13 15 17 17 16 14 14 13 14 23 62 32 27 22 15 11 9 8 8 9 11 13 13 12 10 9 8 8 10 10 10 10 10 11 11 12 15 16 15 15 15 15
8 8 7 6 6 6 10 14 14 17 17 18 18 17 16 19 15 18 21 23 27 26 22 16 14 15 14 13 12 12 12 10 9 9 9 11 12 12 11 13 16 16 16 16 16 15 14 14 14
10 10 9 8 6 6 9 12 12 14 17 19 21 21 19 19 17 16 20 21 25 27 23 23 19 20 20 16 14 12 11 10 11 11 10 12 14 15 14 13 17 17 15 14 14 14 14 14 13
12 11 10 8 8 8 7 7 9 13 18 20 21 24 23 21 19 19 22 21 24 28 28 26 25 25 19 15 11 11 12 11 11 11 11 12 14 17 18 17 18 18 21 22 20 17 15 14 14
14 12 10 8 9 10 9 8 6 7 11 20 23 27 25 24 22 21 21 20 25 22 26 24 23 25 25 19 14 10 12 11 11 12 12 14 19 23 21 19 19 20 20 21 21 22 22 23 26
12 12 10 8 10 13 11 10 9 8 8 10 16 26 28 26 26 24 24 24 23 23 23 24 27 29 28 23 14 12 11 12 13 13 14 17 19 30 28 28 27 24 23 23 21 20 20 24 28
12 11 10 11 10 12 13 13 10 11 11 10 11 10 22 21 27 28 28 27 25 24 24 26 25 25 30 28 19 12 12 14 15 15 17 22 28 35 39 38 38 35 32 32 32 34 35 35 35
11 11 10 11 12 12 13 12 12 12 12 12 11 14 17 8 26 30 32 32 30 26 27 26 26 29 37 36 29 17 19 20 20 20 20 23 32 47 48 45 42 39 39 38 37 35 34 35 36
12 10 9 11 12 13 13 9 14 12 13 12 13 14 11 14 19 32 36 36 35 32 29 27 25 29 30 25 24 22 22 24 25 28 27 26 34 50 57 58 54 46 44 44 43 43 42 43 43
11 9 9 12 12 13 12 10 12 10 12 12 12 12 13 16 16 17 33 41 40 38 36 32 28 27 28 27 27 25 27 30 32 32 31 28 28 44 61 66 64 64 53 49 50 52 50 47 44
10 7 12 10 12 12 11 8 11 10 11 11 10 10 9 12 17 17 17 26 41 43 41 38 34 30 28 27 30 29 29 32 34 34 32 30 28 30 48 73 75 67 68 64 58 55 54 51 50
9 8 11 10 10 10 10 8 8 9 10 10 8 7 8 13 11 13 14 18 21 37 46 44 40 38 33 28 27 30 32 33 35 34 32 30 30 28 42 74 87 80 68 67 63 60 55 53 60
7 9 11 11 10 11 8 8 9 7 9 8 8 10 9 11 11 13 15 15 17 21 40 52 48 43 40 29 27 32 37 39 36 33 33 31 31 30 27 59 84 78 71 65 63 60 59 60 62
7 12 11 11 12 10 8 9 7 8 10 9 10 11 11 11 11 13 16 17 15 17 22 46 55 49 42 33 28 30 37 40 34 33 35 35 33 34 32 37 71 72 67 67 66 63 65 65 60
11 12 12 13 14 11 10 9 8 12 11 10 10 10 12 13 12 12 13 18 17 15 17 21 49 55 51 39 31 31 32 35 37 36 37 37 34 35 52 54 70 71 70 69 69 70 75 65 57
14 14 14 14 15 12 11 11 11 13 13 12 12 12 12 12 14 15 14 15 20 14 12 16 24 48 55 48 40 34 30 32 33 36 30 23 30 33 97 81 75 80 74 76 82 85 79 62 55
20 16 17 15 13 10 10 9 13 12 15 13 14 14 14 13 12 14 15 15 21 19 12 12 14 25 51 55 48 44 37 32 33 33 32 18 19 32 47 96 86 84 84 88 87 86 75 63 60
21 16 14 13 10 8 7 6 8 8 11 9 10 10 11 12 14 14 14 15 19 21 18 13 13 18 33 53 54 50 45 41 38 39 41 30 18 28 41 81 96 93 86 92 93 89 76 70 66
16 12 10 10 9 8 6 5 5 6 6 7 8 9 10 10 12 14 14 14 16 20 21 20 15 17 22 35 56 56 51 48 47 51 42 54 41 28 45 71 100 96 91 94 89 82 79 75 69
12 11 10 11 10 8 7 5 5 5 5 6 8 10 14 16 15 12 15 17 17 16 20 22 20 18 18 21 37 55 50 50 49 56 58 62 69 70 76 90 96 96 90 93 91 82 74 71 70
12 11 11 10 9 8 6 4 6 5 5 7 10 11 10 12 14 16 14 15 19 18 18 22 21 24 19 19 21 24 28 64 58 54 49 49 54 74 72 90 97 97 97 96 94 89 78 64 67
12 12 12 10 9 9 8 6 7 10 11 13 14 15 15 16 15 15 17 15 14 16 17 20 22 25 26 18 19 18 25 47 64 57 58 63 68 59 60 72 88 88 99 96 96 82 69 61 62
15 14 15 15 16 15 17 18 7 12 12 12 14 15 18 20 18 17 17 17 17 19 18 21 21 20 25 25 17 20 15 19 54 66 60 56 54 74 69 53 61 78 76 75 71 63 56 58 56
17 17 21 24 25 19 18 19 9 12 15 15 14 14 13 14 20 23 20 20 18 18 19 21 25 24 21 26 18 18 14 18 37 65 64 60 64 71 76 72 72 73 69 52 49 52 56 51 42
26 35 29 24 20 15 20 17 11 12 15 15 21 22 21 17 11 12 22 24 21 21 22 22 28 28 22 24 17 17 14 21 23 46 73 66 82 77 76 70 77 59 47 48 56 57 43 37 30
30 23 31 25 24 21 17 9 11 20 23 28 37 38 31 26 17 13 11 15 28 24 29 23 33 32 27 26 18 14 18 19 24 37 67 66 60 63 70 54 39 47 60 64 53 31 26 30 34
25 32 33 28 20 15 15 20 23 28 50 58 46 38 40 45 39 25 17 13 14 28 28 31 34 37 33 31 22 18 18 21 27 35 64 62 51 49 66 62 61 44 40 33 32 31 34 39 39
29 35 29 19 22 26 23 25 54 60 74 66 53 36 31 40 57 41 26 16 14 14 30 41 38 45 39 35 28 21 21 22 23 49 71 65 52 61 73 82 83 86 79 51 37 39 43 42 53
40 27 22 30 37 60 45 29 81 95 77 42 22 21 36 64 56 54 39 29 19 11 25 48 41 47 40 38 30 25 23 23 25 54 70 64 60 78 92 93 90 97 84 44 44 46 54 68 76
21 32 47 67 89 90 82 28 99 90 48 30 20 21 50 99 72 77 60 39 17 12 28 51 46 46 42 41 34 29 24 23 27 50 72 60 80 97 83 74 82 98 60 46 50 70 87 88 77

GFSSGP_500_rhum_048.txt.gz
RH
6 6 6 8 8 6 10 15 13 15 18 16 13 14 15 18 16 22 25 18 24 22 18 12 8 5 5 6 6 7 9 11 11 10 8 7 7 7 7 7 8 10 12 13 12 13 14 16 16
5 5 5 5 5 4 6 12 11 16 15 15 18 18 16 18 16 16 19 15 18 20 22 20 18 14 8 8 7 8 8 9 10 10 9 8 8 8 8 9 9 11 12 14 13 14 14 15 14
7 7 7 6 6 5 6 16 28 9 10 15 17 19 18 16 11 15 18 16 15 18 19 19 22 21 15 13 10 9 9 9 9 9 9 9 9 9 9 10 10 11 12 13 13 14 13 13 13
9 9 8 7 7 8 7 9 8 6 13 16 17 16 19 16 16 20 18 17 15 15 18 17 18 20 20 19 14 12 9 8 9 9 9 9 10 10 11 13 13 14 16 18 20 20 18 17 16
11 10 9 8 9 10 10 10 8 7 8 9 21 23 20 19 18 19 18 18 18 17 19 16 16 18 20 20 20 14 11 8 8 10 10 11 11 13 15 18 17 16 16 19 21 22 22 24 25
12 12 9 8 11 12 12 11 11 9 9 8 10 28 18 18 21 22 21 20 20 21 21 17 18 17 18 19 23 22 17 12 9 11 13 14 13 15 16 23 26 25 24 24 25 26 25 24 24
12 13 10 11 10 12 13 15 9 11 10 10 12 12 13 9 19 21 22 23 24 20 21 17 16 17 18 18 18 22 22 14 10 9 10 11 12 15 19 27 35 37 38 37 34 32 36 37 36
11 12 11 10 10 10 13 13 12 10 10 12 9 11 14 7 9 14 24 28 26 22 23 23 20 18 17 18 20 21 22 20 14 14 14 14 15 17 23 30 43 44 43 42 40 38 37 36 35
12 9 9 9 11 12 12 13 11 9 12 11 10 13 12 11 11 14 16 25 30 28 24 25 24 22 22 20 18 22 21 19 18 18 18 20 23 23 24 36 56 57 56 48 45 44 43 43 42
10 10 10 11 13 11 11 11 11 8 12 10 11 14 10 12 12 12 13 14 20 30 32 28 28 27 25 24 22 19 20 22 20 21 23 25 28 26 24 25 35 61 63 61 54 49 47 46 48
10 8 11 12 13 9 9 9 10 9 11 11 11 12 11 12 10 9 12 14 14 16 23 32 28 31 30 28 27 24 22 21 22 25 26 27 27 28 27 26 29 43 62 66 66 64 59 57 54
9 10 13 13 11 7 8 10 9 8 10 10 9 9 8 8 8 8 9 13 14 14 16 22 26 29 35 36 34 30 26 23 23 27 31 32 33 30 29 29 28 40 56 83 74 68 69 67 61
7 11 14 13 9 8 9 8 8 6 7 12 10 9 8 7 10 8 8 8 10 12 13 14 14 17 22 37 37 34 32 26 24 30 35 34 34 34 32 31 31 31 51 78 81 78 69 64 62
6 12 14 12 9 8 9 9 8 6 11 8 8 7 7 7 9 9 9 9 11 12 9 11 14 13 16 24 38 38 38 31 26 30 38 36 33 36 37 34 31 37 38 55 77 74 71 66 62
11 14 15 11 10 10 9 8 8 8 8 7 6 7 7 8 10 10 11 10 10 13 14 10 8 9 13 16 29 33 40 45 33 29 36 36 37 38 39 38 31 35 53 59 72 72 71 69 65
18 14 15 14 12 11 10 8 9 8 8 8 8 8 8 9 10 10 12 14 14 12 13 14 9 8 9 12 32 42 39 44 41 33 33 37 38 41 29 23 24 29 96 81 67 76 77 78 82
20 16 12 15 13 12 11 10 12 9 10 9 10 10 10 11 11 11 12 14 15 14 14 14 14 12 9 8 12 31 39 39 46 43 38 37 40 39 32 20 18 24 68 91 78 80 82 86 88
18 14 12 18 14 14 11 9 13 10 12 10 9 10 9 10 12 14 15 14 14 12 15 16 15 16 14 11 9 16 28 31 50 49 45 43 47 47 43 36 20 21 34 50 86 88 85 90 92
18 13 20 23 23 19 14 10 10 10 7 10 8 7 9 9 13 10 11 11 11 13 12 15 18 17 18 15 12 13 23 22 42 54 54 59 64 68 62 61 58 33 36 46 71 98 90 86 93
21 28 35 32 27 19 14 9 7 7 6 5 6 6 6 6 5 6 6 8 8 9 12 14 16 17 19 18 16 14 16 17 22 50 58 58 59 64 63 55 64 80 64 88 86 96 98 92 90
42 34 25 20 16 12 10 7 7 6 6 6 6 6 5 5 5 5 6 7 8 10 13 12 13 18 16 22 20 15 17 13 18 29 37 55 69 70 57 68 72 76 89 92 89 92 98 98 93
23 18 16 14 13 11 10 6 6 6 5 6 8 8 8 8 7 8 8 8 8 10 14 15 14 18 20 19 20 18 20 19 21 31 37 49 62 71 69 70 80 89 70 61 65 69 74 80 91
18 16 15 14 12 10 9 7 4 5 6 8 10 11 14 14 14 14 13 12 12 13 15 16 16 16 23 20 23 18 22 27 27 31 31 30 48 70 80 74 70 72 71 76 74 75 79 76 62
17 18 17 15 12 8 9 12 4 8 9 12 14 14 15 13 13 13 13 12 13 11 11 16 18 18 21 23 26 21 20 27 26 22 28 27 29 62 82 79 78 77 76 77 71 73 69 58 50
18 18 17 16 15 13 16 13 10 13 13 13 14 14 12 15 15 14 12 10 11 12 17 17 19 21 19 24 30 28 22 24 26 23 26 26 31 52 74 81 78 92 90 70 81 53 45 61 71
19 20 32 22 18 18 15 11 12 12 11 15 18 22 27 28 28 27 31 23 17 15 13 13 20 21 24 22 37 40 27 27 30 27 26 28 32 38 62 82 71 67 74 71 61 66 52 49 55
32 31 28 23 21 16 15 15 12 17 19 29 33 30 36 62 58 52 47 40 39 34 30 18 13 20 27 27 40 37 32 32 33 28 26 28 34 45 56 72 66 61 72 75 80 87 97 92 61
33 29 24 24 23 22 16 14 22 47 56 48 48 55 62 63 46 27 21 17 16 20 37 23 21 12 27 38 32 35 38 36 34 28 25 29 35 47 65 75 72 75 92 99 100 100 99 94 51
25 25 26 27 26 24 17 29 72 76 85 74 68 69 58 46 30 25 19 16 12 14 19 30 17 13 23 37 31 46 47 40 35 30 27 28 34 46 71 79 76 77 99 99 88 83 95 69 51
23 31 32 22 33 39 58 24 84 87 64 52 43 49 48 42 34 31 28 30 28 37 53 39 17 14 21 33 48 59 53 46 40 33 30 35 40 52 82 80 83 97 100 90 79 91 86 57 59

GFSSGP_500_rhum_051.txt.gz
RH
16 14 13 11 11 10 11 14 12 10 13 12 12 12 15 16 19 24 18 20 19 23 19 18 15 9 6 5 5 5 5 6 7 9 10 9 8 7 6 6 6 5 6 7 9 11 11 12 14
17 15 12 9 7 6 9 14 12 11 14 12 16 17 17 16 15 13 16 15 16 17 20 19 19 15 13 9 6 5 5 6 6 7 8 9 8 8 7 7 7 7 6 7 10 12 13 14 14
18 13 8 5 3 4 7 8 8 6 7 14 16 16 16 10 12 13 15 14 13 14 15 15 18 20 21 19 12 8 7 7 7 8 8 9 8 8 8 7 7 8 8 9 11 12 13 13 13
14 8 5 4 4 6 7 8 6 6 4 7 10 14 11 11 14 16 16 17 15 14 14 14 14 14 21 21 18 15 12 9 9 8 9 8 9 8 8 8 8 9 10 11 13 16 16 16 15
7 6 5 4 6 8 8 8 6 4 4 12 9 10 9 8 13 12 13 15 16 17 16 15 14 13 14 18 22 21 19 14 10 8 7 8 9 9 9 10 10 11 13 15 16 17 19 20 20
8 7 6 6 9 10 10 11 8 7 7 8 14 11 10 11 11 12 10 14 16 18 18 19 16 14 13 14 15 17 20 22 17 13 9 8 9 10 11 10 12 15 20 21 20 19 20 22 23
9 10 8 10 11 10 12 12 13 10 8 9 8 14 6 6 8 8 6 9 13 17 20 20 18 16 16 15 15 14 15 17 22 19 12 10 9 9 10 11 14 16 24 26 28 29 29 27 29
14 12 10 8 10 11 14 15 13 9 10 11 9 9 7 7 7 8 6 6 10 14 16 18 18 18 18 19 18 18 17 18 18 20 18 13 13 13 14 15 16 18 26 32 34 37 38 37 36
15 10 8 9 10 13 14 12 11 9 8 12 12 10 10 10 9 10 11 8 9 12 20 21 19 18 19 20 21 21 19 17 19 20 18 17 17 18 19 21 20 23 28 40 42 46 44 44 44
13 10 9 10 15 15 13 12 10 9 8 9 12 10 11 11 10 10 13 12 17 15 11 12 14 17 18 19 21 20 21 21 20 18 21 21 20 20 23 25 25 25 31 45 57 53 53 50 50
13 10 11 14 16 13 10 10 9 8 8 8 13 11 11 11 11 9 9 10 8 8 10 18 14 14 18 20 20 23 24 24 24 22 21 24 24 25 25 28 28 28 28 35 51 65 65 66 64
13 13 12 14 14 12 11 10 8 8 8 8 10 12 8 9 10 9 9 10 8 6 7 11 14 14 16 25 24 24 26 28 27 26 24 26 28 30 31 32 31 29 28 29 31 50 70 74 69
13 13 12 12 11 10 11 10 9 8 8 10 10 10 8 7 9 12 12 9 7 7 9 6 12 12 9 12 11 17 25 29 31 30 27 25 29 34 36 36 34 32 29 27 29 30 47 70 81
10 11 10 10 9 9 12 11 8 7 9 10 8 7 7 6 9 10 13 8 7 8 8 8 7 8 8 8 8 10 14 29 34 40 36 29 27 31 36 35 35 35 32 30 28 35 39 43 64
8 8 9 9 10 11 14 9 6 9 9 7 8 7 6 6 8 7 9 8 8 8 8 8 10 8 9 8 6 9 13 19 22 37 43 41 35 32 37 37 38 36 32 26 25 35 59 55 60
8 8 8 13 12 12 13 7 9 10 8 7 7 7 6 6 7 7 8 9 10 11 9 9 11 11 10 11 8 13 13 10 15 33 42 45 39 38 39 39 39 37 27 20 18 43 90 80 64
12 11 11 15 13 12 12 8 11 8 8 7 7 7 7 8 8 8 9 11 11 12 14 9 9 12 12 12 12 7 8 14 26 26 40 50 50 46 45 39 42 44 41 31 20 20 65 67 66
25 17 15 14 14 13 11 8 10 10 9 9 8 8 8 9 10 11 12 12 12 13 14 15 8 8 11 13 16 12 29 33 19 16 20 49 58 56 51 47 47 53 51 48 50 32 28 40 64
15 16 22 23 17 15 12 8 10 12 9 10 10 10 9 9 11 9 8 10 11 11 10 11 14 10 8 16 19 19 20 12 14 24 20 40 57 67 62 62 65 60 71 68 66 70 45 65 73
12 15 20 23 18 13 12 9 11 15 10 10 11 10 9 8 8 8 7 7 8 8 10 10 9 12 10 12 13 17 20 23 22 33 32 35 33 49 64 73 72 72 66 69 75 76 87 91 96
21 20 24 21 20 14 11 9 15 15 14 13 11 8 8 7 6 6 6 6 7 7 8 9 10 10 11 11 11 18 27 36 32 42 45 29 20 22 42 48 66 77 73 72 81 94 84 86 76
30 25 33 38 35 23 20 10 14 15 13 10 8 7 6 6 6 6 6 6 5 6 7 7 9 9 9 11 13 13 14 21 30 20 34 34 41 50 64 47 56 64 75 79 76 76 84 84 77
43 44 38 31 26 23 18 13 11 11 8 7 7 6 7 7 7 7 7 8 9 9 10 12 13 14 12 11 13 15 16 22 30 38 47 50 54 55 59 54 61 62 71 79 86 86 88 91 89
33 28 22 19 16 15 13 11 8 8 7 6 6 7 11 13 13 14 14 13 13 13 13 13 14 15 14 14 14 15 19 23 28 52 53 53 47 54 52 48 48 56 68 79 89 99 97 94 88
22 20 18 16 13 11 10 9 7 7 8 8 10 13 12 13 13 12 12 11 10 10 11 12 14 16 20 19 13 14 16 27 34 41 58 56 38 40 38 40 36 44 53 75 88 86 77 81 69
21 20 18 15 13 13 10 6 8 13 15 16 16 18 20 17 16 17 18 20 21 21 19 18 15 12 11 19 20 19 17 22 39 46 56 56 54 51 44 35 38 36 49 81 86 72 69 80 90
22 21 20 21 20 14 16 12 14 16 16 19 17 21 27 34 39 39 41 44 54 51 42 32 31 20 12 12 12 25 23 28 42 55 64 64 58 52 37 35 42 44 61 77 80 73 77 78 95
26 26 26 28 22 18 15 14 14 26 31 27 31 36 28 24 22 21 22 36 56 60 63 56 49 37 29 20 22 14 31 50 48 59 66 57 42 38 38 38 44 55 77 77 83 79 80 95 98
32 35 28 24 20 18 15 14 45 38 38 52 42 31 33 41 40 41 35 40 42 31 27 25 35 43 43 34 27 24 26 53 53 63 64 46 43 43 42 41 45 56 58 82 95 82 86 99 92
35 26 21 18 22 25 20 26 64 65 61 32 34 53 62 60 55 47 55 64 60 34 40 40 26 17 17 30 33 23 26 54 59 71 60 52 49 45 40 43 50 56 53 88 89 81 99 93 78

GFSSGP_500_rhum_054.txt.gz
RH
16 13 13 11 11 9 10 11 10 10 11 12 15 13 15 18 26 22 17 18 22 26 25 22 20 15 15 8 5 5 5 5 5 6 7 8 10 9 8 7 7 6 6 6 6 7 8 10 9
18 15 14 11 10 10 12 12 12 9 9 11 13 11 11 13 16 16 15 19 16 19 17 18 22 21 20 17 12 8 6 5 5 5 6 7 8 8 8 8 7 7 7 7 6 8 9 10 10
19 16 15 11 9 9 11 11 9 9 10 10 10 9 8 10 12 14 13 13 14 14 15 15 16 17 21 20 18 16 13 9 6 6 6 7 7 8 8 8 8 8 8 8 8 8 10 11 12
17 16 14 12 10 12 8 7 6 5 6 8 8 7 7 7 12 15 16 16 15 14 13 14 14 13 14 18 20 20 20 16 12 10 9 8 8 8 8 8 8 8 8 8 9 10 11 12 13
18 16 14 10 12 9 6 5 4 4 4 4 6 5 5 6 7 11 14 15 15 15 15 14 14 13 13 13 14 15 19 20 20 18 14 10 7 7 7 8 9 9 9 9 10 11 12 13 14
19 15 12 10 10 8 7 7 5 5 5 6 8 5 5 4 5 6 11 14 14 14 16 16 17 15 13 13 13 14 15 16 18 20 22 18 13 10 8 8 8 9 10 10 11 15 17 17 18
20 19 14 12 8 8 11 9 7 6 5 5 6 5 4 5 4 5 8 11 10 14 16 17 18 17 16 16 16 15 15 15 16 17 18 21 20 14 10 9 8 9 10 12 14 19 22 24 26
21 18 13 8 8 11 14 10 10 7 6 6 6 5 4 5 4 4 6 8 12 13 13 15 16 18 18 18 17 18 18 17 17 18 20 21 20 18 15 13 13 14 13 16 18 26 31 34 36
14 12 10 8 10 14 16 13 13 10 9 7 7 6 6 6 5 5 5 8 8 8 9 15 12 16 17 17 18 18 19 19 18 18 17 18 21 20 18 18 19 21 21 21 25 30 43 41 40
12 8 9 10 14 15 17 13 13 11 9 8 8 8 9 9 8 6 7 8 8 8 11 16 9 13 15 14 16 18 18 18 18 20 20 21 19 21 23 23 25 28 27 27 28 34 41 55 50
12 8 11 14 16 15 14 12 12 10 10 10 8 9 11 9 10 8 8 9 10 9 12 14 11 9 16 16 13 15 17 18 18 19 20 22 23 21 21 23 26 29 31 30 28 28 29 40 52
13 12 13 15 16 13 11 12 11 10 9 10 9 9 10 8 8 8 8 9 10 11 11 9 8 10 14 14 14 13 14 16 20 21 24 26 26 25 24 25 28 30 32 32 30 27 27 28 34
16 13 15 16 16 13 11 9 12 10 10 10 11 9 8 6 6 7 8 8 9 11 10 7 9 14 15 13 12 11 10 10 13 15 21 25 28 31 28 28 32 33 34 34 31 30 28 28 31
16 17 16 15 14 12 12 11 11 11 12 12 11 8 8 5 6 7 8 9 10 9 8 7 9 9 10 15 13 10 9 9 9 10 20 31 32 34 34 30 31 35 37 36 36 34 30 28 31
12 14 16 15 17 16 14 10 8 11 14 11 8 6 7 6 6 6 7 10 9 6 12 13 16 11 10 10 12 16 10 11 14 10 13 21 24 37 43 43 35 35 36 35 38 34 24 21 22
13 10 11 13 14 14 13 7 7 11 13 9 6 7 7 7 6 6 7 8 9 6 7 16 24 27 37 25 19 23 24 19 18 15 12 12 26 37 46 45 45 42 38 39 40 38 34 22 19
17 12 10 11 10 10 10 7 8 10 11 8 7 7 8 8 7 7 7 7 7 7 7 7 8 22 32 38 47 32 26 28 11 10 19 26 28 40 48 52 51 48 45 40 43 46 45 45 39
18 16 13 10 9 8 8 7 7 8 10 10 8 8 8 8 8 8 8 8 8 8 9 8 7 20 27 28 32 42 38 26 26 40 45 40 20 21 37 49 56 57 52 54 60 59 64 64 62
21 16 14 12 10 8 7 7 9 12 11 10 9 11 10 9 9 8 8 9 9 9 10 10 10 7 17 37 48 49 50 52 39 31 34 25 27 29 30 34 42 62 63 64 63 66 63 66 72
18 15 15 14 10 8 9 7 12 13 11 10 10 12 16 12 10 10 10 10 10 12 11 10 10 10 5 6 11 16 28 38 44 43 52 61 36 44 50 46 47 41 55 63 68 76 74 69 78
18 17 17 15 12 8 11 9 13 15 11 11 12 13 14 16 13 12 11 10 10 9 9 9 8 8 7 5 8 20 32 30 38 52 58 63 55 45 55 57 49 45 66 62 66 74 74 74 77
17 18 17 14 14 10 11 7 15 14 14 14 14 16 19 16 14 13 11 10 10 9 8 8 7 6 4 5 5 5 12 14 16 21 29 32 40 37 55 58 63 84 71 62 62 68 66 73 78
26 25 23 18 15 13 15 9 17 19 20 20 20 19 16 12 10 9 8 8 7 6 6 6 6 6 6 5 5 5 6 6 10 17 29 35 52 77 88 86 81 78 72 65 64 69 75 84 90
47 49 38 31 25 14 21 13 14 15 15 15 14 12 10 9 8 7 7 6 6 7 8 8 9 13 15 14 12 10 9 11 12 13 25 32 40 53 82 90 83 81 76 61 58 57 62 68 84
53 47 39 32 26 20 18 15 14 12 11 10 10 9 8 8 7 6 6 8 10 12 13 13 13 13 14 14 13 12 12 12 13 15 17 34 41 58 75 90 87 80 72 56 45 44 51 70 86
37 31 25 20 18 16 14 12 12 11 14 11 10 9 9 9 9 10 11 12 14 14 12 12 12 12 12 11 10 11 11 12 14 17 19 28 43 52 66 81 85 76 74 58 42 42 59 80 72
25 21 20 18 15 12 12 11 16 17 20 18 16 15 13 12 12 14 22 28 29 32 30 36 31 21 18 15 13 12 12 12 15 24 26 38 44 54 62 79 77 81 86 65 39 50 49 75 61
22 21 21 21 17 17 18 20 20 18 16 15 16 19 26 27 26 22 19 17 20 23 24 27 40 49 46 34 23 20 18 10 10 16 30 47 56 66 71 80 82 82 72 47 43 48 50 60 56
22 26 31 31 27 23 19 22 24 23 18 19 29 30 27 22 21 22 27 28 32 34 36 39 38 29 43 61 50 34 27 15 16 54 41 64 65 65 69 80 81 74 49 45 44 47 100 50 63
30 35 34 27 23 20 22 34 29 23 26 42 32 25 20 28 36 38 59 66 56 55 47 79 71 56 40 60 74 58 45 24 31 54 52 64 80 77 75 82 76 52 51 49 56 43 47 48 59

GFSSGP_500_rhum_057.txt.gz
RH
22 19 18 17 15 12 12 12 12 12 12 13 15 17 20 26 24 25 22 21 25 25 23 26 22 18 16 11 8 5 3 3 3 3 4 5 6 7 9 10 9 8 7 7 7 7 6 6 9
22 20 17 15 14 11 11 12 10 9 10 12 14 13 13 15 17 17 18 18 17 18 17 18 18 20 20 18 15 14 11 8 6 5 5 5 5 5 6 7 8 8 8 8 8 8 8 8 10
22 20 18 14 11 10 13 13 11 8 9 9 11 12 13 13 16 14 14 14 14 14 13 14 14 14 17 18 18 17 16 16 14 12 9 7 7 7 7 7 7 8 8 9 9 8 8 9 12
24 22 17 15 12 12 17 17 11 10 9 9 10 10 10 11 13 12 12 12 12 12 12 13 13 13 13 14 13 13 15 17 19 19 17 15 13 9 8 7 7 8 8 8 9 10 10 11 12
25 20 17 13 13 15 18 18 12 9 8 7 7 7 9 11 11 12 11 12 13 12 12 12 13 13 13 12 13 13 13 13 14 16 17 18 19 17 12 9 7 7 8 10 9 11 12 12 14
25 19 15 12 13 16 18 18 11 8 6 5 4 5 5 6 6 9 10 9 12 12 12 14 15 15 13 12 13 13 13 14 14 14 14 14 14 18 19 16 12 10 9 8 8 10 11 11 15
25 21 16 16 16 19 20 14 9 7 4 4 4 4 3 4 5 6 7 10 9 9 11 12 14 13 13 14 15 15 15 15 16 16 16 16 18 18 19 19 16 13 11 11 10 12 14 15 20
28 24 17 16 17 22 16 10 8 6 4 5 4 4 4 4 5 5 6 8 8 9 12 13 12 14 18 18 16 17 16 16 16 17 17 17 17 18 21 20 18 15 15 15 16 16 18 18 28
32 24 15 16 21 20 13 9 7 5 6 6 4 6 6 5 5 5 6 7 10 10 11 11 12 13 13 15 16 20 20 19 19 20 20 19 19 18 18 20 21 20 19 19 21 21 22 24 29
19 18 16 23 24 15 12 9 8 8 7 6 5 6 6 6 6 6 6 6 6 8 10 11 16 22 22 10 18 21 20 17 17 17 18 19 20 21 20 19 20 23 24 25 27 28 27 26 28
11 11 13 19 19 14 16 11 10 9 8 7 6 7 7 7 8 7 7 9 9 8 8 12 19 23 21 13 10 10 14 13 14 17 18 19 21 24 26 25 24 22 24 26 28 30 28 26 26
12 9 10 16 18 16 15 13 11 10 11 9 8 8 7 8 8 9 9 9 10 10 10 9 10 11 10 9 10 15 11 11 11 12 14 17 19 21 23 27 28 27 27 29 31 32 31 29 28
16 13 14 18 19 16 14 12 12 10 12 9 10 9 9 9 10 10 9 8 9 10 12 14 17 12 9 8 10 11 11 12 10 11 11 12 11 15 21 24 29 30 30 32 34 34 32 32 32
21 18 17 20 18 16 14 13 13 11 12 10 11 10 8 9 9 9 19 8 8 10 11 13 14 10 8 9 10 10 12 10 9 9 10 11 11 17 30 34 32 37 38 33 36 37 37 37 35
17 20 20 17 18 17 16 13 10 11 12 12 13 11 9 7 7 6 7 7 8 9 11 14 12 12 7 9 8 9 13 21 11 10 11 14 12 15 22 25 34 43 46 40 36 36 38 36 35
17 15 18 19 20 18 17 9 11 10 14 12 10 11 10 8 6 6 7 7 8 9 14 20 17 12 10 16 24 23 30 29 27 26 16 16 14 15 14 23 35 44 48 49 45 41 37 40 42
22 16 13 14 16 18 15 9 13 12 12 9 8 9 10 9 8 9 9 9 8 7 7 7 7 13 25 32 30 46 59 55 37 33 30 11 16 19 24 24 32 43 47 51 51 49 48 49 56
23 20 18 16 13 12 12 8 12 12 11 9 9 8 10 10 11 12 9 7 7 7 6 5 5 7 11 20 32 45 45 48 49 50 39 26 31 41 36 20 21 29 41 48 54 59 58 60 57
28 22 20 19 17 11 9 8 9 10 10 10 9 10 11 10 11 11 10 8 7 6 6 6 6 7 8 10 23 47 54 54 54 60 57 41 38 45 43 28 30 30 35 43 51 56 61 59 59
40 22 21 21 17 13 11 8 8 8 8 9 9 9 12 11 10 11 10 8 8 8 8 8 7 8 8 9 12 31 44 47 44 51 60 65 73 70 74 52 53 41 46 53 50 37 44 49 55
95 68 38 30 18 14 13 10 9 10 7 8 9 10 12 12 10 11 11 10 9 9 9 9 9 9 10 9 9 9 18 22 29 41 58 61 66 78 72 74 68 55 62 66 60 74 74 66 57
60 26 23 21 18 13 13 10 12 11 12 11 11 12 13 12 12 13 14 13 12 11 11 12 12 11 8 7 5 7 8 10 26 48 36 38 33 47 54 60 72 80 89 80 93 94 95 74 61
23 22 20 18 16 16 15 12 16 16 15 15 16 14 14 12 13 17 18 17 16 15 14 12 12 11 10 8 6 5 4 5 8 9 11 22 26 37 42 54 60 67 84 94 96 96 97 94 69
23 22 21 18 17 15 16 12 18 19 20 19 18 16 16 17 18 18 17 16 14 12 10 9 8 8 7 7 6 5 5 5 5 8 20 27 28 24 36 38 58 68 80 90 98 97 98 94 67
26 27 25 23 18 18 20 15 23 17 17 17 16 16 16 16 15 13 12 11 9 8 8 7 7 6 6 6 6 6 6 6 6 7 18 12 21 19 26 31 41 58 71 80 93 97 97 86 69
47 40 38 28 29 27 23 20 19 17 14 13 13 12 11 11 11 10 10 9 9 8 9 10 10 10 10 10 11 11 10 10 10 11 11 20 37 34 28 29 48 54 73 87 90 90 97 87 75
53 38 37 32 27 22 18 17 17 17 16 15 12 11 10 10 10 10 10 10 11 11 11 12 14 16 18 15 12 11 11 10 10 10 11 11 22 46 40 51 65 70 74 90 84 88 90 95 88
45 39 30 24 20 18 18 22 27 25 23 20 18 14 13 13 12 11 12 15 20 22 24 24 27 29 31 35 37 33 26 16 13 13 12 12 20 35 62 60 66 81 84 81 80 82 87 95 86
33 27 24 23 21 20 24 29 25 21 19 17 15 18 16 15 18 24 23 18 17 18 20 22 28 30 32 34 31 29 36 41 31 21 17 15 14 31 60 65 56 71 76 83 82 85 96 95 52
24 24 26 31 31 27 26 28 22 20 16 17 22 16 24 25 25 19 20 28 28 29 37 35 27 21 23 41 38 35 37 42 50 43 28 22 25 70 27 74 65 73 75 76 78 89 90 53 48

GFSSGP_500_rhum_060.txt.gz
RH
30 26 23 21 21 20 18 18 17 17 18 20 22 22 26 27 26 26 25 26 30 31 30 25 24 27 21 16 11 10 8 6 4 3 3 3 3 3 4 4 6 8 8 8 8 8 8 8 8
28 25 22 21 21 17 16 16 16 15 14 14 16 17 18 18 19 18 20 20 24 25 22 20 19 22 22 19 16 15 14 13 12 9 8 6 5 4 4 4 5 6 7 8 8 8 9 10 11
29 27 25 21 19 18 17 18 15 14 13 13 13 13 13 13 14 15 15 16 19 18 16 16 14 14 14 14 15 15 16 16 16 15 15 14 12 10 8 8 7 6 7 8 8 8 9 10 12
30 29 26 25 19 18 20 18 14 11 12 12 11 11 10 11 12 13 13 13 13 13 12 12 12 12 12 12 12 12 12 12 12 12 13 14 16 17 16 15 11 8 6 6 7 8 9 10 11
33 28 25 24 21 18 18 20 14 11 11 12 10 10 10 9 10 12 12 11 11 10 11 11 10 10 10 10 11 11 11 12 12 12 12 12 13 12 13 16 17 15 12 10 9 8 8 10 12
34 28 23 20 20 20 20 22 18 13 12 11 10 9 10 12 12 11 11 11 11 10 11 12 12 12 11 10 10 11 11 12 13 12 12 12 13 13 14 15 17 17 16 14 11 10 10 11 14
32 27 23 20 18 19 25 23 22 15 12 12 9 8 7 8 10 10 11 11 12 13 12 12 13 13 11 11 11 10 11 12 14 13 13 13 13 15 15 18 19 19 18 16 15 15 15 17 21
34 30 22 19 19 19 26 22 24 16 12 12 9 6 6 7 6 6 6 7 10 11 9 12 13 14 14 13 11 11 11 12 12 14 14 14 16 16 16 16 16 18 19 18 18 17 19 21 23
44 32 20 18 20 21 27 25 23 16 13 10 8 5 6 6 5 6 5 8 9 8 11 12 12 13 15 15 14 14 16 14 15 15 15 16 16 16 16 19 18 18 18 19 21 22 22 22 23
49 29 22 24 26 24 31 24 20 16 13 10 7 5 7 7 6 7 7 8 12 12 11 10 11 12 12 13 16 23 14 18 21 18 14 15 15 16 18 20 22 22 21 20 20 21 23 24 26
46 32 28 27 34 34 35 26 19 15 12 9 7 6 7 8 8 7 7 8 8 8 8 8 9 11 13 23 33 24 13 12 12 15 14 13 14 15 18 19 21 22 22 23 23 24 25 28 28
22 34 27 30 38 38 40 28 19 15 12 9 8 6 7 9 9 17 10 8 9 13 9 9 8 10 12 15 16 14 11 10 17 15 12 12 13 12 13 14 16 16 22 25 26 26 29 30 30
20 17 17 18 22 29 33 25 19 14 11 9 8 8 8 9 9 20 20 11 9 10 13 12 10 13 20 25 11 9 8 9 12 11 12 10 8 7 8 11 17 20 22 26 28 28 26 30 32
24 21 18 19 20 19 21 19 16 13 11 10 8 9 9 9 10 10 13 11 9 9 10 10 10 11 15 27 11 8 7 10 9 11 10 8 8 9 9 10 15 20 21 22 26 32 33 32 32
19 21 21 22 20 16 16 15 12 16 14 12 11 12 10 9 9 10 11 11 10 25 8 9 12 14 15 19 17 23 12 9 8 13 11 9 9 12 12 11 10 12 18 20 24 33 38 42 40
24 18 20 24 22 17 16 11 12 14 14 14 13 11 8 8 9 10 11 10 8 9 10 9 9 12 13 16 20 20 19 25 21 19 24 22 20 15 13 10 10 16 20 22 29 33 40 48 47
27 19 15 20 24 23 16 11 12 13 14 14 13 11 9 8 8 10 11 10 8 9 9 8 15 12 15 19 20 25 30 40 44 46 47 39 33 29 11 13 17 23 22 20 24 30 42 48 48
23 22 19 18 18 20 18 12 12 13 13 13 14 14 13 11 10 11 11 11 8 9 9 8 7 6 8 14 22 33 42 45 49 72 74 67 50 39 27 26 36 42 34 18 19 23 33 34 36
29 26 25 24 19 14 14 12 14 16 14 14 13 14 14 12 11 9 10 11 8 8 9 9 7 6 6 7 8 12 30 38 46 50 53 59 61 59 60 57 57 52 54 34 33 32 32 37 38
34 29 26 24 22 17 14 11 11 12 12 13 13 13 12 12 10 9 10 11 10 8 8 9 8 7 6 6 7 8 10 17 35 52 63 73 76 76 82 86 84 92 77 69 64 47 51 52 45
54 35 32 26 24 19 17 13 14 13 10 9 9 9 10 10 10 9 9 10 9 8 9 9 9 8 7 7 7 7 8 9 13 33 44 45 64 62 80 90 90 86 81 80 78 82 84 93 91
100 97 60 40 24 19 17 12 16 15 13 11 8 7 7 8 9 9 8 11 11 10 12 10 9 9 9 10 9 9 10 11 13 16 18 28 38 43 66 80 80 79 69 66 66 73 77 89 95
98 100 100 85 46 25 19 13 18 15 13 12 10 8 7 8 8 10 11 11 10 10 12 12 10 10 11 10 10 12 12 13 14 14 15 13 14 34 48 39 52 57 60 64 66 72 83 81 88
76 84 75 40 25 20 19 15 19 15 14 13 11 10 9 10 12 12 13 12 12 13 16 16 16 15 14 13 12 12 11 10 10 9 9 11 11 10 12 29 52 63 59 46 59 60 67 84 85
38 27 24 22 20 18 20 18 21 18 16 17 18 16 13 14 15 15 15 15 16 17 17 16 15 14 13 11 10 9 8 8 7 6 5 6 7 19 21 28 32 48 55 55 53 63 73 84 85
38 31 24 22 20 22 23 22 24 21 19 20 19 18 16 16 16 16 15 14 14 13 13 12 11 10 9 8 8 8 7 7 6 6 6 5 5 8 14 34 55 71 62 63 63 70 82 79 85
64 53 35 31 26 31 29 26 27 22 18 16 15 14 13 13 12 12 11 11 10 10 10 9 10 10 11 10 10 10 9 8 7 8 7 7 6 7 12 29 45 58 94 76 85 89 93 94 90
66 56 47 34 36 34 27 23 22 20 17 15 14 14 14 13 11 10 9 9 10 11 11 12 13 17 21 24 23 23 23 20 19 17 14 14 12 12 13 18 58 70 71 81 85 82 95 94 96
56 67 49 41 31 27 23 25 28 23 18 19 18 15 14 12 11 11 11 12 11 12 18 23 24 21 21 26 30 32 33 34 34 34 36 37 27 18 16 17 25 43 68 86 75 94 90 89 91
68 54 41 31 26 25 33 31 27 23 22 19 18 17 15 14 16 21 28 26 24 18 16 18 28 31 27 18 13 15 17 23 43 43 39 34 37 49 35 23 18 18 53 55 75 91 82 69 77

GFSSGP_500_rhum_063.txt.gz
RH
78 60 36 26 25 36 36 34 42 44 42 36 35 36 35 34 31 29 29 26 27 29 28 25 25 21 17 14 12 10 9 9 8 7 6 4 3 3 3 3 4 4 5 6 8 8 8 8 8
69 67 46 29 26 24 23 22 22 23 24 24 26 25 26 27 25 25 26 24 23 24 24 21 19 19 19 17 17 16 16 15 14 13 13 11 9 8 7 5 4 4 4 4 5 7 8 8 8
55 65 48 34 27 24 22 22 20 20 19 18 19 20 20 19 19 19 20 19 19 19 18 18 16 16 15 16 15 14 14 14 14 14 14 14 14 14 13 11 9 9 8 7 6 6 7 8 8
52 53 52 36 31 24 24 22 20 18 17 16 16 15 15 15 15 14 14 16 16 16 15 14 13 13 12 12 12 12 12 12 11 12 11 12 11 11 12 13 14 14 14 12 10 8 8 8 8
44 49 46 42 31 24 25 25 20 17 17 16 16 14 14 13 12 12 12 13 13 13 13 12 11 10 10 10 9 9 8 9 9 9 10 10 10 10 11 11 12 13 14 15 14 13 11 10 9
37 53 45 46 32 27 25 28 22 17 16 16 15 14 13 12 12 13 12 10 10 11 12 12 12 10 10 9 8 8 7 8 9 9 9 9 10 10 10 11 11 13 14 15 15 14 14 13 13
37 40 46 41 29 29 28 28 24 18 16 16 14 14 13 12 13 13 13 13 13 13 13 13 14 12 10 8 8 7 6 6 7 8 9 10 10 10 10 11 12 13 15 17 18 17 16 16 16
46 38 40 38 33 26 30 28 30 20 16 15 13 13 14 13 14 13 12 14 15 16 14 14 13 13 12 10 9 8 7 8 8 9 9 9 11 11 11 10 11 12 13 14 16 17 18 18 20
60 40 33 36 30 26 29 29 30 27 20 15 15 12 13 12 10 8 10 10 11 12 13 13 13 13 11 10 10 9 10 11 12 10 10 12 12 12 11 11 11 12 12 13 14 16 17 18 20
77 45 33 32 29 28 32 28 30 26 23 19 15 13 13 12 8 6 8 8 8 10 11 11 10 10 10 10 11 12 14 16 23 15 14 16 14 10 10 10 11 11 11 13 15 17 19 20 21
83 56 39 35 31 30 30 27 25 28 24 20 16 14 13 11 7 6 8 10 15 12 12 11 10 10 10 10 11 12 20 35 23 14 10 10 13 11 10 9 10 12 12 13 15 16 19 20 21
66 65 59 48 44 31 35 29 25 26 25 20 17 14 13 9 10 14 13 14 12 12 10 10 8 8 7 7 10 12 21 22 19 14 10 14 13 10 9 9 9 8 9 13 18 19 20 21 22
57 47 50 65 56 43 40 33 27 26 23 19 16 14 12 8 11 19 19 22 21 18 12 10 13 11 10 10 11 15 14 12 10 8 7 12 10 9 7 7 7 7 9 15 17 16 16 17 20
32 42 25 50 63 52 43 41 29 26 23 21 17 14 11 9 9 11 15 20 29 32 14 13 11 10 11 11 11 14 20 18 8 7 7 9 11 9 7 7 9 7 8 10 9 10 11 16 24
32 28 23 24 29 33 30 30 24 31 30 21 18 14 11 10 9 11 11 13 14 21 19 10 13 13 11 11 21 17 15 21 13 9 8 9 11 8 7 9 11 11 8 7 10 15 16 18 23
34 26 24 22 25 22 19 20 18 22 22 21 18 14 11 10 10 12 11 12 13 12 10 9 13 23 10 12 23 35 40 32 18 24 19 10 13 18 16 15 14 11 8 9 18 20 17 18 21
35 28 23 22 24 22 23 29 20 16 18 19 18 16 13 11 10 12 12 11 11 11 10 10 9 14 12 10 23 29 30 30 42 35 29 31 27 34 34 30 23 11 10 16 26 26 17 14 19
28 26 23 20 21 22 20 17 17 15 15 17 17 17 15 14 13 11 9 9 10 10 10 9 8 9 9 11 19 34 26 34 43 37 35 56 69 70 69 51 34 29 23 31 41 42 37 26 28
32 31 31 30 22 18 21 16 14 14 16 16 18 17 17 14 13 10 8 7 7 8 9 8 8 10 9 8 8 15 15 19 36 40 54 59 62 80 80 80 64 58 56 57 57 60 58 49 55
36 32 31 29 25 18 16 23 20 18 17 16 16 15 14 14 14 13 11 10 9 8 8 10 8 9 10 10 10 8 8 12 22 32 45 54 60 74 77 88 88 82 76 76 80 88 85 76 76
47 35 31 30 27 24 19 14 16 16 16 16 14 14 14 13 14 14 12 11 9 9 8 9 10 8 9 11 10 8 8 8 9 10 13 23 34 54 70 70 85 82 89 86 84 88 94 78 77
77 44 37 32 28 24 22 19 22 16 13 12 12 12 12 12 11 11 10 10 10 9 8 8 11 10 8 9 10 9 8 9 10 10 12 12 15 18 33 51 51 64 74 83 89 80 74 75 80
100 96 52 39 31 26 22 20 20 16 14 14 12 10 10 9 8 8 8 8 8 8 8 8 10 10 10 10 11 10 9 9 11 12 13 15 16 16 17 19 37 45 56 79 72 65 60 67 69
99 99 97 58 36 24 21 19 23 17 15 14 13 12 12 11 10 9 8 8 8 8 8 8 9 10 11 12 14 15 16 14 12 12 14 15 17 19 19 30 39 40 42 53 36 50 63 72 79
95 97 99 100 74 45 33 28 24 18 15 14 13 12 11 11 10 9 9 10 9 10 11 11 11 12 13 14 15 14 15 14 13 12 12 12 13 13 14 17 25 31 42 60 60 64 65 67 76
95 96 90 80 62 40 29 24 21 19 17 15 14 14 13 12 11 11 11 12 12 12 14 15 16 15 15 15 14 14 14 13 11 10 9 9 8 8 9 9 9 12 35 49 59 72 75 86 86
91 64 46 36 33 28 26 23 25 23 19 17 16 16 16 15 14 14 14 15 14 13 12 11 10 9 9 9 9 8 8 8 8 8 8 9 10 9 9 11 12 17 25 44 56 88 87 95 92
82 61 49 36 31 34 31 30 27 24 22 19 17 16 16 15 14 13 12 12 11 10 10 9 9 10 10 11 12 13 14 16 17 19 18 18 18 17 15 15 16 18 26 40 55 63 97 92 86
72 63 62 54 42 42 38 30 26 22 20 19 18 16 15 14 13 12 11 10 9 10 11 12 12 15 20 22 22 22 22 25 30 33 34 34 31 32 31 32 34 30 22 21 23 37 55 71 84
82 84 68 61 52 41 32 26 22 21 20 19 17 15 14 12 11 11 11 10 10 11 14 20 18 22 28 30 29 25 20 20 18 18 24 31 48 53 48 42 39 38 48 49 36 23 19 20 50

GFSSGP_500_rhum_066.txt.gz
RH
95 90 66 52 50 59 56 52 54 47 42 34 32 30 27 26 27 26 25 25 26 27 26 26 25 23 20 17 13 9 8 7 7 8 7 6 6 5 4 4 3 3 3 4 4 4 5 6 7
74 83 87 61 48 42 50 58 63 59 54 48 46 43 39 36 32 30 31 29 28 28 27 25 22 22 21 18 18 17 15 14 14 13 12 12 12 11 11 10 9 6 5 6 6 5 5 5 6
87 57 84 76 50 38 33 39 51 50 48 49 45 44 40 33 31 27 28 27 25 24 22 20 18 17 16 17 16 15 14 14 14 14 13 13 13 13 13 13 12 12 11 11 10 8 8 6 5
82 76 54 77 56 37 29 29 30 28 27 31 32 28 28 26 24 24 25 24 22 20 18 16 15 15 14 14 12 12 12 12 12 11 12 11 11 11 11 12 11 11 12 13 13 13 12 11 10
77 76 57 55 65 42 29 29 26 23 22 22 21 20 20 21 20 19 19 18 17 16 16 15 13 12 10 9 8 8 8 9 8 8 7 7 7 7 8 9 9 9 10 11 12 13 14 13 13
73 60 63 44 63 47 31 30 27 23 22 20 19 18 17 16 15 15 14 14 14 14 15 15 12 11 10 8 8 8 8 8 8 6 6 6 5 6 6 6 7 8 8 10 12 15 16 15 15
86 43 58 56 49 54 35 32 28 25 22 21 19 18 16 15 14 13 14 14 13 13 14 14 13 12 11 9 8 7 6 6 5 5 5 5 6 6 6 7 7 8 9 10 12 14 16 16 16
84 48 41 52 54 52 37 34 35 26 25 20 20 18 17 14 13 14 14 13 14 14 13 13 13 14 13 10 9 8 6 6 5 6 6 6 6 7 8 8 8 8 8 9 10 10 12 14 14
83 70 42 38 52 49 36 37 37 32 26 23 19 19 17 15 14 15 14 14 14 14 15 15 14 13 11 11 9 8 6 6 7 8 8 9 9 7 8 10 9 7 7 8 9 9 11 12 14
88 72 47 34 38 48 42 37 41 35 29 25 22 19 19 16 15 15 14 12 12 13 11 11 11 11 10 10 9 8 8 8 8 10 11 17 10 9 9 7 6 7 7 8 9 11 12 13 15
88 70 53 37 35 42 55 40 39 38 31 29 24 18 18 17 16 16 14 12 10 8 9 8 8 9 10 10 9 9 9 8 10 16 23 20 14 9 8 10 8 7 7 8 9 10 10 12 12
66 81 84 54 42 42 51 64 37 38 34 31 25 21 18 16 17 18 16 11 10 8 9 10 12 12 13 11 10 9 7 9 12 16 18 17 13 8 8 9 8 7 6 6 8 9 11 12 11
33 59 79 90 56 47 54 70 53 37 36 30 26 23 19 17 17 17 14 15 11 11 12 14 12 12 11 9 9 10 15 9 10 12 12 10 7 6 9 8 7 6 6 6 7 9 12 10 10
33 41 58 83 80 69 63 69 65 41 35 30 26 22 19 18 17 14 10 14 16 18 17 19 18 11 9 11 11 10 11 10 11 14 18 15 7 6 8 9 8 7 7 9 8 8 7 9 12
40 34 40 52 84 77 81 71 62 46 39 34 26 21 18 18 17 14 10 13 16 19 23 29 34 25 13 13 11 12 20 26 17 16 11 17 11 7 8 10 8 7 8 10 11 8 7 14 14
51 40 34 41 61 82 69 69 64 42 38 33 26 22 20 20 18 13 12 12 12 11 11 13 21 25 20 14 14 14 12 12 20 28 49 34 20 21 8 8 15 12 12 13 12 7 8 20 18
67 42 38 42 57 60 57 67 61 41 36 36 32 25 22 22 19 14 12 12 11 11 11 11 11 12 11 10 11 26 21 13 18 29 33 38 43 34 26 19 21 24 24 23 14 9 12 26 30
52 41 37 44 39 40 26 36 47 39 26 28 32 31 26 23 20 15 12 11 11 11 11 11 11 11 10 10 10 10 12 13 18 32 40 35 44 48 34 34 38 48 41 36 32 23 22 36 44
62 47 36 36 31 38 25 23 29 34 24 20 21 24 22 19 18 15 12 12 11 11 10 11 11 11 10 10 10 10 10 10 10 12 38 35 40 52 57 64 69 77 83 83 64 52 50 58 63
68 46 37 36 33 29 29 24 20 24 27 22 19 17 18 17 16 14 13 11 12 11 10 10 10 10 11 11 12 11 11 10 9 12 18 25 30 48 56 65 71 72 84 85 84 82 76 74 82
79 45 39 36 33 31 26 35 37 23 20 20 20 16 16 16 14 13 12 11 11 10 10 10 10 9 8 9 12 10 9 10 10 10 11 12 21 30 48 56 67 66 77 79 87 92 85 82 86
71 44 38 36 34 30 27 22 20 22 20 19 16 14 14 15 15 14 13 12 11 10 9 10 10 10 9 8 9 11 10 10 11 10 10 10 11 14 22 25 32 35 50 67 80 90 92 84 89
90 55 40 37 33 30 28 26 20 18 17 18 25 22 16 15 14 13 12 11 11 10 10 9 9 9 9 8 8 10 10 10 12 12 11 10 10 10 14 21 36 27 33 31 39 58 64 70 78
100 88 55 39 34 31 27 26 24 22 19 16 14 15 15 13 12 11 10 9 9 8 7 7 7 7 8 8 8 9 10 11 13 16 14 12 11 11 11 14 22 29 35 41 51 55 54 64 69
100 99 82 56 43 33 29 26 22 21 19 17 15 14 12 12 11 11 10 10 9 8 8 7 6 7 7 8 10 12 13 14 16 18 17 18 18 18 18 18 20 27 30 48 49 54 67 71 75
98 93 98 92 60 44 37 29 24 23 18 17 15 14 13 12 11 11 10 10 10 9 9 8 8 10 12 13 14 14 16 16 16 15 14 12 12 11 14 18 22 24 24 28 41 54 56 66 73
100 100 98 100 100 96 67 47 35 27 21 18 16 14 13 12 12 12 12 12 11 10 10 10 12 13 13 12 10 10 9 9 8 9 9 10 11 12 13 14 14 16 17 16 18 19 42 58 63
100 94 93 99 96 86 44 34 28 25 21 18 17 16 16 16 15 14 13 12 12 12 12 11 10 10 9 8 8 10 11 12 13 14 16 19 21 22 23 24 26 27 26 23 23 26 33 46 63
98 97 76 68 67 39 34 30 26 24 24 22 20 19 18 17 16 14 14 13 12 12 11 10 9 9 10 12 14 16 18 20 22 25 30 37 41 43 45 44 38 38 42 47 52 50 38 29 30
96 90 73 62 50 42 39 34 30 26 26 24 22 21 20 17 16 15 14 12 11 10 9 10 11 12 14 16 20 15 15 15 17 19 19 20 22 23 22 23 24 29 34 40 55 55 55 62 53

GFSSGP_500_rhum_069.txt.gz
RH
91 77 68 69 65 59 47 45 35 32 29 24 22 21 20 17 18 20 17 17 16 18 19 21 21 20 18 16 14 10 8 6 5 5 6 6 6 6 6 6 5 4 4 3 3 3 3 3 4
97 92 82 74 66 62 60 62 47 49 35 31 30 27 26 27 21 22 24 26 24 25 26 25 24 22 21 20 18 17 17 16 14 13 12 12 12 12 12 11 11 11 11 10 8 7 8 7 6
96 97 93 83 71 60 58 63 63 62 49 46 39 37 32 29 30 30 32 32 31 29 27 24 21 18 18 16 16 16 16 15 14 14 14 13 13 12 12 12 12 12 12 13 12 12 12 12 10
98 96 94 85 71 59 56 55 58 58 60 59 53 54 48 45 40 37 37 33 31 29 26 21 18 16 15 16 15 14 12 12 12 12 11 11 11 10 10 9 10 10 10 11 11 12 12 13 13
97 98 94 84 76 74 62 52 42 46 55 59 58 54 50 46 41 36 34 31 28 25 22 19 17 15 13 12 11 10 9 8 7 7 6 6 5 5 5 5 6 5 6 6 7 9 11 13 13
78 89 84 81 72 76 76 55 41 33 34 45 40 40 40 36 33 28 27 26 25 20 18 17 17 14 11 9 7 7 7 7 6 6 5 4 4 4 4 4 4 4 5 5 6 6 9 12 15
49 80 72 78 68 68 82 65 42 32 29 29 27 25 25 25 22 21 22 22 19 17 16 16 17 13 10 8 7 6 6 6 4 4 3 3 3 4 4 4 4 5 5 5 5 6 7 8 11
59 48 72 86 74 56 66 75 49 34 30 28 24 22 21 20 19 18 17 15 15 14 14 15 15 13 11 9 8 7 5 4 4 4 4 4 4 4 4 5 6 5 6 7 6 5 5 6 7
94 56 53 70 74 63 60 80 55 39 31 27 25 24 20 19 18 16 16 15 15 13 13 13 13 13 12 10 9 7 5 4 5 5 5 5 4 6 10 9 7 8 7 5 4 5 5 6 6
76 84 53 68 61 57 62 84 52 44 34 28 27 24 22 20 17 16 15 14 14 13 11 11 10 10 10 10 9 7 6 5 5 5 5 5 7 14 15 12 8 5 6 6 6 5 5 6 7
63 79 73 70 78 55 74 81 54 47 40 31 29 26 23 20 17 16 16 15 14 16 15 12 11 10 9 8 7 6 7 6 6 6 6 7 10 16 17 14 9 6 8 6 6 6 5 5 6
47 76 99 77 70 50 54 86 92 48 48 43 32 24 25 21 18 15 16 17 15 14 14 13 10 8 7 7 9 10 8 8 7 6 6 8 9 10 10 8 5 7 7 6 5 5 5 6 8
38 54 81 94 67 73 67 87 96 62 47 42 33 29 26 23 20 16 16 17 16 14 11 10 9 7 9 12 11 10 10 7 6 13 10 7 9 11 14 7 6 7 7 7 6 6 6 6 8
46 38 52 90 82 94 72 74 94 90 53 42 40 34 28 23 21 19 18 20 16 14 15 12 9 9 11 11 10 10 7 7 9 9 14 12 10 11 15 12 6 8 9 9 7 7 9 7 8
54 43 36 58 94 98 97 82 84 95 78 47 41 37 31 26 22 19 18 20 16 13 13 13 11 13 14 16 16 15 10 10 10 11 19 29 18 33 30 18 14 8 9 10 8 8 10 11 7
54 50 40 36 65 97 97 79 83 92 92 76 46 38 31 27 24 21 20 22 17 12 10 13 15 20 21 24 27 27 21 14 12 12 11 11 15 25 43 47 26 23 9 11 16 14 14 13 8
68 54 43 35 40 92 95 94 94 80 92 88 63 43 36 30 31 25 23 23 17 12 9 10 12 13 13 17 20 20 14 11 10 17 25 16 16 20 35 35 40 39 30 19 20 24 26 25 13
88 63 43 39 34 63 95 97 95 84 84 92 69 51 43 34 28 25 26 22 17 12 10 9 10 11 11 11 10 10 12 11 13 16 12 10 10 13 24 46 56 51 44 38 34 38 44 37 34
100 90 62 45 36 42 88 84 94 87 84 88 76 54 42 35 30 24 24 23 19 13 11 12 12 13 12 11 12 11 12 29 28 26 19 18 15 12 14 26 42 41 52 61 64 74 82 84 71
95 92 66 55 40 38 70 63 75 89 79 88 82 53 38 33 27 24 26 25 20 14 12 12 13 12 12 11 10 11 11 12 13 14 13 12 11 12 11 12 21 27 38 53 71 86 82 90 85
100 95 74 51 47 38 53 78 62 31 50 81 86 46 26 21 21 21 21 21 19 15 13 12 12 12 12 11 10 10 9 9 10 12 12 11 10 10 11 10 10 12 22 40 56 77 88 89 85
99 100 93 62 51 40 41 63 74 31 27 29 44 68 38 21 19 15 14 14 15 14 13 12 12 12 12 12 11 10 10 9 10 12 13 12 11 13 29 38 19 20 22 24 34 39 58 65 71
99 99 98 68 51 39 37 53 70 52 27 24 23 27 52 60 60 37 17 11 11 11 11 10 10 10 10 10 11 10 9 9 9 10 13 14 15 15 17 37 46 40 36 42 50 60 58 63 59
100 99 100 71 47 41 37 39 63 38 32 45 51 24 19 18 17 15 13 13 12 11 11 11 11 10 10 9 9 8 8 9 9 10 12 13 15 18 18 19 29 22 27 22 33 50 65 76 73
100 100 100 93 52 40 36 34 38 51 30 21 26 34 20 20 22 25 22 17 16 12 10 9 9 8 7 7 6 6 7 8 10 12 14 16 18 21 22 23 22 22 26 23 23 45 64 79 83
100 96 100 91 61 43 35 32 29 32 29 23 20 18 16 15 15 18 19 15 12 10 9 9 9 9 8 8 8 8 10 12 13 14 15 16 17 16 15 14 14 17 22 28 29 31 31 33 44
98 99 100 92 72 49 38 32 28 25 22 21 20 18 17 15 14 13 12 11 10 11 10 10 10 10 9 9 10 11 13 13 12 10 9 9 9 10 10 12 14 16 17 18 19 20 32 43 50
100 95 96 100 99 93 56 39 31 28 23 23 21 18 17 16 15 14 13 12 11 11 11 12 11 11 11 11 11 10 9 8 9 11 13 15 18 19 23 26 30 32 33 35 36 36 33 30 34
100 99 98 99 90 100 94 83 52 50 39 29 26 23 20 18 16 14 13 13 14 14 14 13 12 12 11 10 8 9 10 12 13 10 9 8 9 10 14 18 22 24 30 46 64 63 55 50 53
100 97 98 92 93 95 92 64 42 37 30 27 23 20 19 18 17 16 16 16 15 14 14 13 11 10 9 8 10 11 15 11 10 10 6 6 6 9 13 28 37 38 41 38 34 31 41 59 69

GFSSGP_500_rhum_072.txt.gz
RH
96 92 73 62 51 30 27 29 26 18 18 15 13 15 14 14 12 12 11 11 13 12 13 14 14 15 15 14 12 11 9 7 6 6 6 6 7 8 8 8 8 9 9 8 8 7 6 6 6
96 96 86 72 55 42 33 38 35 24 23 19 20 21 20 21 16 14 16 15 14 15 16 18 20 21 21 20 18 17 16 15 15 15 15 14 13 13 13 13 12 12 12 12 12 12 11 10 11
98 98 94 70 60 50 47 57 53 35 24 27 25 25 25 21 16 19 19 23 21 22 23 24 24 22 21 20 18 17 16 16 15 15 14 13 13 13 12 12 12 12 11 11 11 12 12 12 12
97 98 99 86 58 59 60 68 80 49 35 39 31 34 25 23 26 27 25 26 28 30 30 28 24 21 19 18 17 15 14 14 13 12 12 11 10 8 7 5 4 4 5 5 6 6 7 9 10
97 97 97 94 74 66 67 76 62 53 52 52 48 46 34 31 32 30 34 35 36 33 31 27 22 19 17 15 14 14 12 11 10 8 6 5 4 4 4 3 3 2 3 3 4 4 4 4 5
95 98 97 96 94 80 73 95 71 59 58 61 67 61 45 46 45 40 43 39 35 34 29 25 21 18 16 14 12 10 9 7 6 6 5 4 3 2 2 2 2 3 3 3 3 4 4 4 5
93 95 89 99 97 100 93 87 91 67 57 56 60 64 54 53 52 48 45 41 30 30 26 22 18 15 14 12 10 8 7 7 6 5 4 3 2 2 3 3 3 3 4 4 4 5 6 5 5
95 96 98 97 96 97 97 97 99 69 57 43 42 46 56 51 47 44 38 32 27 26 22 18 15 14 13 10 8 7 6 6 5 4 3 3 3 3 3 3 5 8 7 6 5 4 4 4 4
82 96 86 91 86 88 96 97 94 93 65 43 35 35 39 48 35 30 27 22 22 20 18 15 14 13 11 8 7 8 6 5 4 3 3 3 3 3 4 5 12 12 10 7 5 4 5 5 4
93 82 67 66 55 85 98 97 96 86 74 45 34 30 29 31 24 22 21 20 18 16 16 13 12 10 8 8 8 7 6 4 3 3 4 4 4 4 4 7 12 14 11 7 5 6 5 5 4
70 72 75 71 55 68 98 82 96 80 82 52 35 33 29 26 24 21 30 20 20 17 13 14 11 10 9 9 8 6 5 4 4 4 4 4 4 4 4 6 8 9 6 5 5 5 5 5 4
72 54 50 100 94 75 93 82 92 93 86 57 43 36 30 26 24 22 20 18 17 15 13 11 12 12 12 10 8 5 5 6 7 7 6 4 9 9 6 8 12 11 6 5 5 5 5 6 5
86 51 41 88 92 83 79 82 90 96 91 62 45 33 28 30 25 21 20 19 18 16 15 14 13 12 11 9 7 6 7 9 7 7 5 6 7 10 11 10 10 14 10 6 6 7 8 6 5
82 81 44 58 86 98 77 83 97 91 94 64 50 41 34 35 30 25 21 20 20 19 17 15 13 12 9 9 7 8 9 9 10 8 8 8 7 15 26 19 30 24 18 13 8 8 8 7 7
71 100 64 48 61 87 96 94 88 97 92 75 51 54 46 35 32 29 25 21 18 23 27 20 16 13 14 12 11 31 28 13 15 14 10 10 9 9 11 10 18 39 45 24 21 12 8 13 10
56 94 96 55 48 68 96 90 89 99 96 92 58 54 51 42 34 31 28 25 21 21 17 16 14 13 13 12 12 20 16 19 24 26 21 12 10 14 20 16 14 19 31 36 40 32 25 15 18
75 80 97 81 45 49 81 96 98 96 90 92 87 60 49 44 40 36 30 26 22 20 25 30 19 12 12 14 14 16 21 20 16 16 13 10 10 10 13 9 8 10 16 41 46 47 44 35 29
39 50 75 88 60 38 48 93 96 95 89 85 94 80 59 45 40 37 31 27 24 21 21 18 29 34 28 22 14 10 10 14 18 20 16 24 19 18 17 15 16 11 10 18 36 46 50 53 46
55 91 95 97 71 43 37 56 89 97 98 96 94 90 80 69 52 39 32 30 32 29 22 20 17 12 19 17 15 14 12 17 16 19 18 17 21 16 18 15 10 9 9 11 24 26 32 48 62
82 99 97 100 92 49 42 36 75 81 94 99 97 95 84 77 68 50 40 35 32 26 24 23 19 13 11 10 11 13 11 10 10 21 18 11 11 22 22 23 26 14 13 10 15 15 32 45 56
58 81 72 100 95 57 43 36 37 68 84 95 98 94 83 83 70 56 47 38 33 28 26 25 20 14 12 12 11 11 12 10 9 10 10 12 15 18 24 27 37 38 38 27 30 46 59 61 64
60 89 100 100 87 65 54 40 38 41 82 96 97 94 96 80 74 54 38 32 29 28 28 26 21 16 12 12 12 10 10 10 11 11 11 11 10 9 14 32 31 33 37 27 46 50 58 62 69
47 94 93 100 88 89 69 48 38 40 63 85 69 90 83 84 76 59 37 21 22 21 21 20 18 16 14 13 12 12 10 10 10 11 11 11 11 11 12 13 15 15 33 32 32 39 39 55 71
76 96 100 100 100 96 76 56 40 36 50 80 33 42 43 59 70 60 36 38 36 24 14 12 13 13 12 11 11 11 11 10 9 9 9 9 10 10 13 16 18 18 21 27 28 32 39 31 52
99 99 99 100 100 84 78 67 44 36 41 79 47 28 29 25 24 34 51 52 54 36 22 14 12 11 11 11 11 10 8 8 7 7 7 8 10 11 14 18 24 20 19 18 17 18 23 25 35
100 100 97 94 84 78 75 62 47 37 34 69 76 45 38 40 43 26 20 18 17 17 17 16 18 14 10 9 9 9 8 8 8 8 8 10 12 14 14 12 11 11 13 14 15 14 16 28 29
96 90 100 100 100 99 78 61 50 38 34 37 75 52 26 25 47 42 23 19 19 22 25 26 18 13 10 10 10 10 10 9 9 9 11 12 10 8 10 13 17 21 24 28 34 38 39 42 48
98 100 97 100 100 99 80 62 49 39 34 32 42 56 34 24 20 18 17 15 14 14 13 12 11 11 11 10 10 10 10 11 11 10 9 9 11 11 10 8 6 7 9 11 12 14 32 33 45
93 99 98 97 100 100 88 65 51 41 34 30 28 26 24 22 20 19 17 16 14 14 13 13 12 11 11 12 12 12 11 10 9 9 11 14 8 6 5 5 8 10 14 17 19 21 19 21 27
100 100 98 96 95 90 99 85 76 48 39 33 30 26 25 22 21 19 18 17 16 14 13 13 13 14 14 13 12 11 10 8 10 12 13 8 6 5 7 9 8 8 14 16 23 25 41 42 36

GFSSGP_500_rhum_075.txt.gz
RH
94 95 92 78 53 29 23 20 19 16 10 10 8 9 9 7 8 6 8 6 9 8 8 8 8 10 10 9 9 8 9 7 7 7 8 9 10 11 11 12 12 12 12 12 12 12 12 11 10
81 96 96 92 71 38 28 28 21 19 13 14 12 14 13 13 11 8 11 10 10 12 12 12 13 15 16 17 18 17 16 16 15 15 15 15 15 14 14 13 13 13 13 13 12 12 12 12 11
95 97 98 88 80 56 33 34 30 22 20 18 16 17 14 12 13 12 14 16 16 14 15 15 17 19 21 21 19 19 18 17 16 15 15 14 13 13 12 11 9 7 6 4 4 4 4 4 5
65 79 96 95 76 68 56 57 39 26 29 25 22 22 17 17 18 17 16 22 21 21 20 21 22 22 22 21 18 17 16 15 14 14 13 12 10 8 5 4 3 3 2 2 2 2 2 2 3
57 83 91 90 91 81 69 75 68 30 28 34 29 23 22 21 21 23 19 23 23 25 27 29 27 25 23 20 18 16 15 14 12 10 8 6 5 4 3 2 2 2 2 2 2 3 3 3 3
58 59 69 83 89 96 92 79 71 52 26 44 40 28 24 24 24 24 21 27 32 32 33 32 28 24 21 18 16 15 14 11 9 7 6 5 4 2 2 2 2 2 2 3 4 4 4 5 5
56 74 57 92 95 99 96 96 77 81 49 48 54 32 32 35 30 27 28 31 42 41 37 33 27 23 20 18 16 14 11 9 8 6 6 4 2 2 2 2 3 3 4 7 7 6 5 4 4
44 60 77 96 98 96 97 92 91 99 69 57 70 45 45 49 44 36 42 43 43 48 38 30 25 22 19 17 15 12 9 8 7 6 5 3 2 2 2 3 3 4 8 9 9 7 5 4 5
58 53 71 90 95 96 98 97 95 100 90 68 69 63 59 60 59 54 45 48 47 45 38 28 24 20 18 15 13 10 7 6 6 5 4 2 3 3 3 3 3 4 6 8 9 6 4 4 5
62 73 64 90 98 98 99 97 98 94 97 79 68 60 58 54 59 64 56 49 44 39 31 25 22 19 16 13 10 7 7 6 5 4 3 4 4 3 3 4 4 5 7 8 6 4 4 4 4
66 52 53 97 98 97 99 96 97 96 83 98 66 60 55 51 54 63 68 44 37 33 22 20 18 16 13 11 9 8 7 6 5 4 4 5 5 4 6 8 5 7 11 11 8 5 4 4 4
72 74 69 98 100 94 97 97 96 97 88 95 84 60 47 40 36 48 58 49 31 26 23 18 16 15 14 12 10 8 9 7 5 5 6 5 5 4 7 7 9 10 10 11 10 8 5 5 7
44 88 87 99 96 82 76 88 96 97 96 99 91 66 48 39 33 29 30 45 54 46 31 21 16 13 13 14 12 11 9 7 5 6 7 7 7 7 7 10 20 22 22 28 17 13 11 8 7
29 66 97 98 79 100 88 74 91 98 98 99 100 82 56 38 33 30 26 24 30 31 30 19 18 13 12 11 11 9 9 8 9 10 9 10 11 9 8 9 9 11 10 16 39 37 23 19 13
24 58 94 97 88 85 90 86 89 98 96 97 97 81 66 40 35 33 32 26 26 30 27 30 24 14 13 12 11 12 13 12 19 21 13 18 21 20 14 9 9 16 16 13 16 27 35 38 28
18 53 86 100 86 70 69 77 87 99 94 86 91 89 71 48 42 39 35 30 25 26 31 31 31 27 20 16 13 13 13 22 22 17 18 19 19 14 9 8 8 12 12 9 8 11 25 39 38
15 45 68 98 96 61 43 50 98 99 93 86 84 96 71 56 44 42 40 37 30 24 24 28 26 25 19 14 12 11 13 28 18 28 17 10 12 17 12 15 13 14 14 14 14 12 10 16 34
18 12 30 44 74 83 47 39 72 96 89 81 80 90 87 60 48 48 42 38 35 28 23 25 31 32 33 32 21 16 15 13 15 18 23 16 27 24 20 22 19 15 16 16 11 9 9 10 18
36 21 26 66 64 84 86 51 51 85 97 96 90 79 95 77 56 48 45 40 33 29 26 24 21 22 25 29 40 39 33 27 19 13 19 35 21 21 24 24 26 24 23 27 28 23 16 14 15
78 36 24 66 94 91 97 72 50 59 92 99 100 97 93 95 66 48 44 38 35 31 27 26 26 25 22 20 17 20 22 25 23 21 23 22 14 21 19 22 19 22 25 34 32 40 41 46 63
81 44 50 82 89 79 74 78 56 39 70 98 99 96 82 86 84 61 45 42 37 35 33 33 32 30 25 20 19 14 14 13 13 10 10 17 27 30 35 20 20 22 26 30 36 41 48 67 76
79 60 63 70 95 69 59 53 65 40 36 88 89 93 88 74 83 78 71 47 49 48 42 38 35 30 25 22 20 17 14 12 12 11 10 9 9 11 14 20 21 20 15 15 27 35 51 50 59
68 62 61 68 75 69 51 52 54 46 35 49 92 92 91 79 68 76 77 77 70 62 64 52 37 30 26 23 22 18 16 13 11 11 12 12 12 11 10 9 8 8 9 12 14 19 21 26 34
62 58 68 99 100 87 52 55 50 50 34 35 52 91 78 81 83 87 79 75 70 56 41 52 39 29 26 24 21 18 15 13 11 10 10 12 12 10 9 8 9 9 10 13 15 16 17 17 20
51 56 86 99 100 75 99 74 50 54 40 34 39 72 87 92 92 83 76 82 81 57 28 21 20 18 16 18 17 15 13 11 9 10 9 9 8 8 8 10 12 15 15 12 10 10 12 17 17
56 65 56 79 74 76 75 62 51 56 43 37 36 72 73 48 38 44 54 71 83 54 43 50 54 34 17 14 13 12 12 11 10 9 8 8 8 8 9 11 13 10 10 15 15 13 9 8 9
36 83 100 99 85 98 85 69 76 63 44 40 37 63 84 48 29 30 27 26 24 35 40 30 22 18 16 14 16 15 11 10 9 9 10 9 9 10 11 9 9 11 8 8 6 6 10 11 13
35 72 100 92 92 81 65 80 77 70 61 49 41 46 95 77 32 30 31 30 44 39 23 20 21 25 28 27 19 14 11 11 11 10 10 10 10 10 8 10 10 6 5 6 7 8 9 10 11
87 80 79 81 100 84 78 76 80 69 60 56 44 37 58 94 70 41 25 22 26 29 21 18 16 15 14 13 12 12 11 11 12 12 11 10 9 9 10 10 5 4 4 5 7 9 9 12 13
88 84 84 77 87 100 100 82 93 74 62 49 41 36 36 61 82 67 35 26 23 20 19 17 15 14 14 14 13 12 13 13 13 11 10 9 10 12 11 6 5 4 5 6 6 10 14 13 15

GFSSGP_500_rhum_078.txt.gz
RH
56 86 95 94 68 47 26 21 18 14 11 11 12 15 15 19 14 12 12 13 10 9 11 14 8 5 7 7 6 6 6 7 8 7 8 11 13 14 14 14 14 13 13 13 13 13 13 12 12
83 77 100 99 83 55 36 26 22 18 14 12 12 12 12 12 12 10 10 9 7 8 10 8 7 10 13 15 16 17 16 16 16 16 16 15 15 15 14 14 13 12 10 8 5 4 3 3 4
40 87 93 99 90 65 50 34 27 22 17 13 12 11 10 10 12 11 10 10 10 9 11 11 12 14 17 19 20 21 19 18 17 16 16 15 14 13 12 10 6 4 3 2 2 2 2 2 2
54 97 81 94 84 80 66 46 30 25 19 18 14 12 11 11 11 9 12 12 14 13 14 14 15 19 22 23 21 20 18 17 16 15 14 13 12 9 5 4 3 2 2 2 2 2 2 3 3
43 86 82 71 77 92 91 58 36 29 23 21 23 16 12 13 12 12 15 16 17 19 20 18 20 22 24 24 22 19 17 16 15 13 11 8 6 4 3 2 2 2 2 2 2 3 4 4 4
44 51 80 41 69 83 97 91 52 38 30 23 23 21 17 17 16 16 20 21 19 20 22 24 26 28 27 25 22 19 17 15 13 10 7 6 5 3 2 2 2 2 2 3 4 6 6 5 5
33 56 44 42 71 95 97 96 85 49 32 29 26 22 21 19 18 20 19 22 21 23 24 26 30 30 27 23 21 19 15 14 11 8 7 6 4 3 2 2 2 2 3 4 5 6 6 6 5
43 43 50 51 60 94 97 92 84 66 40 31 33 22 23 22 23 29 23 25 26 29 29 31 32 32 28 23 20 18 15 12 10 8 6 5 4 2 2 2 3 3 3 4 4 5 6 5 4
45 50 49 38 48 91 97 96 100 89 70 32 39 29 32 30 26 35 31 31 30 32 33 36 36 33 27 23 20 17 14 11 8 7 6 4 3 3 2 3 3 3 3 3 4 6 5 4 4
63 42 41 35 51 57 98 98 96 86 84 53 34 39 34 36 32 40 50 50 47 48 48 45 42 36 26 22 19 16 12 8 6 6 5 4 3 3 3 3 4 5 4 4 6 7 7 5 4
63 36 34 42 78 85 94 88 98 99 90 71 45 53 48 59 53 58 63 61 58 48 54 49 42 34 26 22 17 14 10 8 6 6 5 4 5 5 5 4 8 6 5 8 10 10 9 8 6
53 49 41 56 99 95 92 98 95 97 94 81 65 67 54 62 72 61 68 72 76 64 53 46 38 27 22 19 15 12 10 8 8 8 5 5 6 6 5 5 6 9 17 17 19 22 21 16 13
37 65 43 86 85 98 84 96 98 97 97 87 76 72 70 63 71 71 72 66 73 72 47 42 34 24 19 17 15 14 13 10 10 8 6 6 8 8 8 8 7 7 7 11 10 9 22 32 31
23 64 78 77 82 97 94 95 96 98 96 90 80 73 80 71 64 64 73 64 72 72 55 30 26 24 20 17 14 13 12 10 9 8 8 14 12 10 14 14 15 13 8 9 14 14 13 15 22
15 43 85 93 75 78 97 97 91 96 97 98 87 83 94 88 66 55 40 43 55 75 69 51 40 30 22 16 14 12 11 10 10 12 13 25 17 14 19 20 15 9 7 7 10 10 8 7 8
14 24 49 88 91 83 94 84 98 95 97 97 98 99 97 96 70 51 42 35 31 31 42 55 50 36 22 19 15 13 12 12 12 13 21 25 19 16 19 14 13 10 9 11 12 13 13 13 12
14 14 19 45 61 82 91 84 98 95 92 95 99 97 93 85 79 58 46 37 31 28 25 25 42 39 31 30 24 17 16 13 12 13 18 15 22 21 13 20 22 19 18 19 18 16 17 15 11
19 13 15 21 50 68 88 83 99 97 85 93 98 91 94 90 93 70 61 42 33 30 26 23 22 26 32 37 30 27 16 14 12 12 28 15 17 20 15 27 21 19 22 23 25 22 24 27 27
31 17 16 28 49 80 74 79 90 95 99 96 90 87 90 90 94 94 59 51 37 31 32 29 26 24 23 23 24 24 32 34 32 30 26 31 24 17 20 20 23 22 20 21 17 19 29 38 36
60 30 18 42 64 65 98 88 82 82 80 91 97 96 96 95 88 79 76 50 43 40 35 35 33 30 27 28 39 39 30 38 44 38 31 24 24 28 16 16 37 41 41 21 21 18 18 24 34
73 46 41 28 28 37 50 64 92 63 66 71 82 90 96 83 82 82 74 58 48 44 40 38 34 31 27 25 28 24 22 22 22 21 20 21 26 30 38 35 40 30 22 19 26 22 19 11 15
94 80 61 41 25 22 37 33 53 68 64 46 58 80 86 80 74 74 79 76 64 46 44 40 35 32 30 31 31 30 27 23 20 19 26 40 24 18 12 16 19 16 17 12 10 10 10 21 29
94 100 81 62 64 61 57 40 39 56 64 50 43 57 98 78 74 73 79 81 73 66 53 41 38 33 29 30 33 32 31 26 22 20 16 14 13 12 11 10 9 9 10 9 8 8 17 16 19
89 99 73 71 69 58 70 58 33 44 43 60 42 38 92 89 74 72 73 81 83 63 52 58 64 51 47 44 44 47 44 28 22 21 18 15 14 12 11 10 10 9 7 7 7 8 11 12 21
94 100 98 93 73 33 50 47 23 39 36 43 49 38 63 92 74 79 79 77 80 85 84 73 63 64 67 63 63 48 28 22 22 20 17 15 13 12 12 11 8 8 8 8 10 9 8 7 6
82 77 64 56 42 39 49 36 29 48 50 52 50 38 41 75 79 79 76 84 90 89 93 94 89 73 47 37 59 51 42 25 16 15 12 11 11 12 10 9 9 9 9 11 9 9 5 5 4
79 65 66 56 50 46 42 39 52 63 61 57 54 40 35 54 97 92 98 100 100 93 95 96 91 66 41 47 39 28 17 16 13 12 11 11 9 9 9 10 10 11 11 9 11 6 5 6 6
74 60 54 69 85 50 39 38 55 85 81 68 63 41 37 41 96 71 42 42 59 66 72 86 97 81 56 47 43 26 17 15 15 16 16 12 10 10 10 11 12 10 9 12 8 5 5 5 6
71 67 42 84 78 71 58 43 62 96 87 77 74 56 43 44 80 91 72 34 30 29 28 33 35 45 43 21 19 21 26 27 24 18 13 11 10 11 12 12 10 9 12 8 6 5 4 6 8
41 29 41 49 57 70 63 49 82 97 84 80 73 62 54 43 47 96 77 38 25 24 25 30 51 36 26 19 18 17 16 15 13 12 12 11 13 12 11 10 9 13 10 6 6 5 6 8 8

GFSSGP_500_rhum_081.txt.gz
RH
8 14 20 78 94 69 37 25 18 14 13 15 29 32 29 27 25 22 17 16 16 20 20 16 20 20 10 5 4 4 5 5 6 6 8 11 14 15 15 15 14 14 13 13 12 8 5 4 3
6 8 18 45 80 83 52 34 24 17 13 12 14 19 26 21 17 18 17 15 18 14 13 11 15 10 6 9 9 10 13 15 15 16 16 16 16 15 15 14 13 11 8 4 2 2 2 2 2
5 6 18 27 48 70 74 43 29 20 16 14 13 13 19 19 22 18 14 14 17 12 9 9 10 8 11 15 18 19 20 20 19 18 16 16 15 14 13 11 7 4 3 2 2 2 2 2 2
5 8 42 49 17 47 87 59 37 27 20 17 15 13 13 16 19 21 11 11 11 12 8 10 11 14 15 18 21 22 21 19 17 16 15 15 14 11 8 4 3 2 2 2 2 2 2 3 4
6 9 48 54 27 38 99 93 50 36 25 18 14 12 11 12 14 13 12 9 11 13 11 12 14 16 20 24 23 22 20 18 17 16 14 12 9 6 4 3 2 2 2 2 2 2 3 4 5
6 29 39 34 27 36 100 96 78 49 34 23 18 14 12 11 13 13 12 11 12 14 15 15 16 18 24 26 26 23 20 18 16 14 12 8 6 5 4 2 2 2 2 2 2 3 4 5 5
9 24 32 31 53 60 95 95 84 62 44 31 20 17 14 14 12 11 12 15 15 17 19 19 19 21 26 29 27 24 20 18 16 14 10 8 6 5 4 2 2 2 2 2 3 4 4 5 6
11 13 45 39 36 59 97 94 82 74 55 38 27 22 20 16 17 13 14 18 17 18 20 21 22 24 27 30 27 23 20 18 16 13 10 8 5 4 3 2 2 2 2 3 3 3 3 4 4
13 38 28 32 40 74 94 98 98 80 69 46 30 21 24 18 19 16 17 20 20 20 21 23 25 27 29 31 28 24 20 16 14 11 9 7 6 4 3 2 2 2 3 4 3 3 4 5 5
14 13 15 31 43 57 92 92 98 96 80 57 40 28 25 20 19 23 21 25 28 30 26 27 29 32 34 33 28 24 20 16 13 9 7 6 5 4 3 4 4 4 4 5 4 6 9 10 10
13 15 19 31 50 48 72 86 94 89 75 75 52 38 46 36 30 24 29 28 37 38 41 34 34 36 39 40 31 24 21 18 12 8 7 6 5 4 5 6 4 4 5 5 9 11 11 10 12
15 15 50 30 35 56 62 68 77 97 90 82 73 53 57 58 43 26 34 35 40 41 54 54 58 52 47 42 33 25 21 18 12 9 7 8 6 5 6 6 6 6 6 6 7 9 8 8 10
14 22 56 58 38 56 70 67 56 95 96 80 76 73 60 71 60 52 52 62 70 68 64 64 59 56 48 40 30 24 20 16 13 11 9 9 8 6 7 8 9 9 11 13 12 9 9 11 12
16 17 50 73 44 48 65 99 49 86 97 89 72 71 77 80 68 56 65 71 78 83 80 80 68 57 46 37 27 20 18 16 14 13 10 8 8 9 16 13 12 14 16 13 8 6 6 8 9
16 18 32 76 53 46 69 91 52 82 95 98 70 63 79 80 78 66 77 87 88 93 92 83 76 55 43 33 26 21 18 15 12 11 10 10 12 14 22 17 13 14 13 11 11 11 14 15 16
16 17 19 59 66 48 69 59 97 95 86 98 98 95 93 91 92 83 82 98 96 92 85 80 75 65 41 29 26 22 18 15 12 11 11 12 12 18 18 14 18 13 11 20 19 19 19 18 16
18 14 13 44 76 55 72 71 100 93 76 97 97 100 100 96 96 97 91 82 86 90 80 77 76 72 64 53 38 29 21 17 14 14 13 12 12 12 14 20 21 18 21 23 20 21 23 23 21
27 15 14 30 65 73 64 76 96 87 90 98 96 98 99 97 98 97 96 82 64 56 52 57 69 73 72 66 51 34 25 24 20 20 16 12 11 20 19 18 20 14 33 23 22 26 23 18 17
34 18 14 22 40 63 74 73 86 81 99 97 95 97 98 99 98 98 97 93 69 47 39 34 31 47 59 58 51 41 42 44 48 24 17 18 17 21 32 34 20 21 24 17 23 36 37 22 22
51 27 16 17 31 45 47 63 90 97 88 90 95 96 96 99 96 96 96 85 72 52 43 35 32 29 27 29 36 40 41 46 37 26 32 51 54 42 31 42 55 33 24 39 46 33 24 19 22
80 44 22 16 18 28 65 57 66 78 86 93 94 95 92 82 88 85 86 96 77 65 51 44 39 33 34 38 36 36 42 44 35 42 32 43 71 67 58 50 33 40 34 21 21 19 17 13 9
99 66 35 21 16 18 28 30 57 73 77 83 86 91 80 73 79 76 76 76 93 80 62 53 42 39 38 34 30 29 33 33 38 41 41 42 46 50 50 51 47 18 15 18 11 12 11 9 8
99 90 50 27 18 15 22 24 32 56 68 60 64 82 93 85 73 76 78 79 86 92 83 57 50 46 40 37 34 30 27 26 25 30 30 29 23 20 18 16 15 13 12 12 11 11 8 8 9
100 99 67 43 32 20 17 16 14 21 33 54 66 63 59 86 84 80 73 71 77 86 88 90 57 49 45 41 38 36 34 32 32 33 34 37 36 25 21 18 16 14 12 10 10 9 8 9 9
100 100 100 82 59 27 22 19 23 20 24 38 51 57 57 45 58 69 67 70 79 87 93 86 89 79 59 43 39 37 35 40 43 43 41 37 30 26 22 18 16 13 10 10 9 8 9 9 9
96 94 86 71 45 38 34 21 22 41 40 35 40 43 57 46 43 64 76 68 62 75 88 92 84 73 74 68 66 60 56 49 51 52 57 31 26 23 20 16 13 12 11 9 9 9 10 9 9
97 82 81 61 47 43 33 24 30 49 46 47 43 38 42 56 39 44 92 89 76 72 76 79 86 85 69 64 63 63 66 68 60 62 66 48 30 17 14 14 13 11 11 10 10 11 10 9 9
99 87 82 70 68 40 26 27 28 50 65 62 54 49 50 59 45 37 67 90 86 77 75 87 90 90 90 88 90 86 50 36 32 29 25 19 17 15 14 14 13 12 11 11 12 10 9 11 6
86 74 62 64 48 32 25 29 38 43 55 69 58 51 54 63 45 40 48 99 98 93 97 93 96 98 100 93 88 88 53 54 46 40 30 20 17 18 20 17 13 12 12 13 11 9 12 8 7
94 90 65 53 32 28 42 37 56 56 55 64 70 67 60 64 45 43 43 81 94 59 60 65 94 93 94 86 90 93 79 40 26 21 20 24 27 22 17 12 12 13 13 11 10 14 12 7 8

GFSSGP_500_rhum_084.txt.gz
RH
19 15 15 19 72 85 60 32 20 15 13 19 46 49 41 48 39 39 37 33 34 30 32 34 24 24 23 17 10 7 7 8 5 4 5 10 14 15 15 15 15 14 13 12 8 4 2 2 2
21 19 15 13 22 55 77 52 30 20 16 13 19 25 33 30 30 30 31 26 25 24 24 25 20 17 21 12 6 6 6 7 10 14 16 16 16 15 15 14 13 12 8 4 2 2 2 2 2
20 20 17 14 13 16 61 81 44 28 22 16 13 11 19 25 22 22 24 22 22 22 24 17 15 12 15 7 10 13 15 16 18 18 17 16 15 14 14 12 10 5 3 2 1 2 2 2 2
17 19 18 15 17 15 24 95 69 36 28 20 14 11 11 20 19 18 16 18 19 21 20 12 11 10 9 11 16 19 21 20 19 17 16 15 14 12 10 6 4 2 2 2 2 2 2 2 3
12 17 18 18 15 15 19 89 94 50 34 25 19 14 12 12 13 14 14 14 15 15 14 10 11 11 11 14 19 23 22 20 18 17 16 14 12 8 5 4 3 2 2 2 2 2 2 2 3
11 12 16 18 10 12 22 85 89 75 40 31 23 16 13 12 11 11 12 12 13 12 12 9 11 13 15 18 22 23 23 20 18 17 16 14 10 7 5 4 3 2 2 2 2 2 2 2 3
13 14 17 19 12 6 17 94 88 95 54 36 28 21 16 16 13 10 10 11 11 12 12 12 14 17 18 23 26 26 24 21 19 17 16 13 10 6 5 4 3 2 2 2 2 2 2 3 3
14 13 16 17 14 6 23 89 95 100 88 46 34 25 20 25 21 21 11 11 10 12 14 14 18 20 22 26 30 28 25 22 20 18 16 12 8 6 5 4 3 2 2 2 3 3 3 4 4
17 17 14 16 14 6 37 82 95 97 95 77 42 30 24 25 31 17 13 11 11 13 15 17 21 23 25 28 31 30 25 22 19 17 15 12 8 6 5 4 3 3 4 4 4 4 4 8 10
14 15 16 16 13 11 76 97 91 100 97 94 64 39 28 26 37 25 18 13 13 16 18 21 22 24 26 31 31 31 27 23 19 16 14 10 7 6 5 4 4 5 5 4 4 4 6 8 9
16 17 18 17 13 15 46 99 99 98 97 94 80 52 33 36 42 56 32 20 17 19 22 24 27 28 32 35 34 34 29 24 21 18 13 8 7 6 6 5 5 6 5 6 6 7 8 10 8
18 17 18 16 20 27 41 67 93 94 89 89 75 75 45 38 46 54 59 50 19 21 25 28 30 32 36 37 37 39 34 26 22 20 14 9 7 8 7 6 6 7 7 8 9 12 13 10 6
19 19 18 14 17 29 35 46 76 87 100 97 89 74 67 45 45 61 70 63 55 28 29 40 39 44 43 43 43 44 38 30 24 19 13 11 9 9 8 8 9 11 10 12 14 13 9 6 6
22 18 18 14 18 28 31 45 57 73 93 93 86 77 78 58 52 68 82 73 86 84 42 40 48 51 53 57 55 47 39 31 24 19 16 14 12 9 8 9 12 16 14 12 12 11 12 13 15
27 19 18 16 15 32 31 38 49 61 81 98 74 72 79 87 60 64 98 92 97 97 95 58 62 59 58 56 54 49 41 29 21 18 15 13 11 10 11 11 13 17 16 14 12 13 20 19 18
37 18 17 18 21 29 38 24 48 50 63 89 97 81 67 82 95 70 92 97 96 94 99 92 80 76 73 68 59 52 44 33 22 20 16 13 11 11 11 11 14 15 12 17 16 18 24 19 23
46 27 23 19 22 25 31 27 45 57 52 60 90 93 78 75 91 96 84 97 95 96 97 98 97 93 83 74 66 56 42 30 25 21 16 14 13 13 12 12 13 15 13 15 15 26 24 21 19
60 60 26 17 20 18 31 36 43 49 61 70 67 98 90 85 92 96 94 89 92 95 97 97 98 98 88 78 70 63 48 36 30 25 20 18 17 16 14 12 13 15 18 24 18 20 19 22 34
76 63 38 16 18 20 33 57 47 47 73 78 47 83 96 90 99 92 96 96 96 94 95 97 97 98 97 92 79 73 74 70 45 33 50 54 37 24 19 16 18 24 29 25 30 24 23 39 43
77 54 36 17 17 18 42 70 56 58 59 99 72 99 96 96 93 96 91 97 96 96 95 94 96 94 98 99 94 85 80 69 55 54 63 66 77 67 37 55 61 57 47 63 43 32 38 30 22
88 63 51 23 16 19 33 66 66 54 66 78 92 97 98 96 98 100 98 97 95 96 96 95 89 76 65 64 69 78 80 75 68 57 47 56 70 74 70 70 90 84 60 41 51 70 34 16 14
99 73 61 28 17 16 21 32 69 64 59 64 60 69 96 89 98 96 97 98 96 94 95 96 74 49 43 40 36 37 40 40 40 38 50 59 55 53 59 54 49 41 46 49 48 30 23 12 11
100 100 98 37 19 15 16 18 29 56 48 43 49 61 80 91 97 92 96 97 100 93 92 95 95 91 62 44 37 36 39 44 45 45 51 45 41 49 60 49 42 43 47 32 18 15 14 12 12
100 97 98 65 28 17 15 16 16 32 42 56 58 47 82 93 96 96 94 89 79 84 97 96 89 82 80 67 45 36 34 33 32 31 30 28 27 38 38 30 30 35 29 23 19 16 14 12 11
98 100 98 94 48 27 17 16 16 24 30 40 56 66 68 81 92 97 94 85 84 77 83 96 99 96 86 69 59 54 46 38 35 33 31 29 27 28 31 37 41 43 32 23 19 15 13 11 10
100 100 85 69 57 32 24 22 16 24 18 22 25 36 53 71 78 83 91 82 81 76 72 81 98 95 96 92 71 54 50 46 42 40 40 39 40 42 47 54 52 40 25 21 16 12 12 10 11
99 90 74 65 61 48 38 29 22 35 39 32 30 34 43 54 57 61 59 56 58 66 70 70 73 83 91 86 89 91 82 58 49 45 48 53 51 57 60 64 63 37 26 16 13 12 13 11 11
99 100 78 57 57 57 46 36 29 35 42 28 32 35 38 37 43 46 58 48 50 66 75 64 60 60 68 79 86 86 81 78 70 62 66 68 68 60 41 48 47 30 16 14 15 19 14 11 13
95 84 71 68 56 53 47 41 35 42 50 47 43 40 39 40 39 42 58 59 46 44 70 90 94 89 81 81 87 88 86 74 66 70 75 72 47 38 36 28 20 18 16 19 17 13 12 14 11
85 91 80 71 58 47 38 32 33 49 48 56 58 51 54 54 42 37 44 61 44 43 71 93 93 86 80 84 86 90 94 96 95 94 90 55 54 48 38 26 20 22 23 19 13 13 14 12 10

GFSSGP_500_rhum_087.txt.gz
RH
32 25 20 25 79 86 70 36 20 16 14 31 56 64 61 57 50 49 53 53 50 40 41 45 43 31 28 25 20 14 10 10 11 5 4 7 10 14 15 15 14 13 12 10 5 2 1 1 2
26 22 18 22 28 56 78 61 34 21 15 16 36 43 55 57 38 38 43 52 48 40 36 34 36 29 22 23 17 7 5 5 6 8 11 13 15 15 14 14 12 10 8 3 2 1 1 2 2
28 16 16 16 18 15 51 85 62 32 20 16 19 23 32 47 47 33 41 45 42 34 31 26 25 24 16 19 14 7 10 11 14 15 16 16 15 14 13 11 8 5 3 2 1 2 2 2 2
22 15 16 19 22 16 16 83 95 56 30 20 17 17 14 24 37 33 32 39 34 32 30 24 23 17 14 13 11 10 16 18 19 18 17 16 15 13 10 7 4 3 2 2 1 2 2 2 2
15 13 14 21 23 21 15 24 88 92 45 29 20 16 14 18 22 28 29 28 29 27 26 25 21 13 11 10 10 13 18 20 20 18 16 15 14 12 8 4 4 3 2 2 2 2 2 2 2
13 11 12 20 24 23 19 15 27 73 82 41 29 20 16 16 19 19 21 21 19 21 22 22 17 12 11 10 13 17 21 22 20 18 17 16 14 11 7 4 4 3 2 2 2 2 2 2 2
16 12 12 16 20 22 20 16 15 22 80 62 36 28 19 17 21 14 15 14 13 14 18 18 17 13 14 14 14 19 23 23 21 19 18 17 14 10 6 4 4 3 2 2 2 2 3 3 3
17 14 10 12 19 20 18 12 14 18 41 94 46 34 24 16 22 24 20 12 11 11 15 15 15 18 18 21 22 23 24 24 22 20 19 18 14 10 6 5 4 3 3 3 4 4 4 3 4
15 16 10 11 18 20 16 14 14 35 35 72 88 41 31 22 17 25 23 18 13 11 12 14 14 19 24 26 29 28 28 25 22 20 19 18 16 11 7 5 4 4 4 5 4 4 4 6 7
30 13 11 11 14 18 18 15 12 78 56 50 84 70 38 28 22 21 32 31 24 21 13 14 16 20 25 28 33 34 32 27 23 21 20 18 15 10 7 6 5 5 5 5 6 6 7 8 11
56 23 12 12 13 17 16 13 12 59 66 47 59 94 53 37 26 31 41 41 36 24 15 15 16 20 24 27 33 36 35 30 25 22 20 18 14 9 7 6 6 6 6 6 7 8 11 12 10
75 44 14 15 14 15 14 14 13 22 72 77 67 77 89 51 40 33 47 57 45 30 20 18 18 23 25 28 33 35 36 35 28 23 21 18 14 10 8 8 7 7 7 9 10 11 11 10 8
63 29 17 15 17 16 14 14 13 18 100 81 86 77 76 86 55 50 50 55 68 43 26 18 22 22 27 30 34 34 35 40 35 28 23 20 15 11 9 9 8 8 10 13 13 12 10 10 11
78 37 17 15 15 16 17 14 13 23 62 100 100 89 83 71 76 67 49 68 71 73 62 22 24 26 28 34 38 36 35 36 39 35 27 21 17 15 13 11 9 9 12 14 15 12 13 11 17
93 48 22 16 16 17 20 16 15 30 84 100 100 90 86 76 79 80 50 57 72 91 95 58 31 34 33 36 42 44 52 52 45 38 28 21 18 16 13 11 10 10 12 13 12 12 15 16 16
100 87 22 18 17 17 19 18 16 26 55 98 100 98 90 75 81 96 74 56 64 88 97 94 78 50 50 51 53 56 53 52 48 42 34 25 20 17 14 12 11 11 11 12 12 13 16 14 21
100 82 53 21 18 17 17 18 22 22 32 61 91 98 88 77 77 90 95 66 61 89 96 94 96 95 51 51 60 58 55 55 52 46 37 29 24 20 17 14 13 13 12 12 14 13 19 17 19
82 86 56 24 21 18 18 17 26 24 26 43 59 91 92 84 88 91 95 90 62 71 95 96 96 95 94 87 71 67 67 66 59 47 36 29 26 22 17 16 17 17 14 13 14 23 26 25 29
100 89 68 42 21 19 19 17 29 25 21 39 50 62 96 83 96 95 95 96 89 73 75 97 96 93 90 94 84 82 82 70 61 50 43 34 29 25 25 28 31 25 20 26 34 32 28 50 37
85 94 80 44 26 19 20 18 24 24 25 34 49 53 64 98 94 92 100 97 96 99 74 88 96 96 100 96 96 94 93 86 76 66 66 64 41 43 74 77 79 80 69 66 73 74 63 53 40
92 91 83 52 28 21 18 18 17 21 23 29 39 57 53 59 77 84 99 98 96 97 96 94 95 95 97 97 95 96 96 96 95 90 79 74 71 81 83 84 81 80 80 78 96 79 42 45 46
100 100 88 60 49 69 27 15 16 19 27 25 32 44 74 63 64 80 87 93 99 94 98 97 97 94 93 91 93 97 92 95 95 94 87 79 69 65 61 53 57 64 69 66 65 64 49 44 40
100 100 100 90 70 55 26 17 16 17 23 40 45 58 64 96 93 72 86 96 87 92 94 95 97 96 95 95 96 97 93 93 87 87 83 77 61 42 38 52 58 59 61 69 61 46 37 30 24
100 98 98 95 62 62 29 16 16 17 28 64 72 66 76 90 92 99 100 93 80 87 98 97 93 96 96 96 96 95 95 71 47 41 41 44 45 46 47 46 42 35 41 39 31 34 40 38 31
100 100 97 82 74 58 30 16 15 18 20 36 60 64 68 69 64 70 91 96 100 100 93 82 96 96 95 95 96 93 79 56 52 50 47 46 41 39 34 32 29 28 31 34 38 43 48 44 23
99 98 73 60 52 52 32 18 17 20 21 24 37 50 54 62 54 46 78 91 97 97 92 92 92 96 86 82 86 93 95 95 92 86 53 49 46 39 36 34 32 30 32 34 40 49 57 40 25
95 89 78 72 67 63 43 24 21 19 20 21 22 23 36 50 59 57 50 98 100 99 92 93 96 87 81 80 86 91 91 92 86 71 62 55 50 45 43 43 44 46 44 50 52 60 66 42 16
100 83 77 69 64 66 59 42 28 26 19 21 28 23 16 17 24 39 49 61 95 100 98 97 94 85 78 80 87 92 89 90 94 90 77 58 53 52 51 53 55 58 62 59 36 34 24 16 17
100 75 66 63 63 58 61 56 48 53 26 27 34 31 30 38 43 43 48 52 64 90 95 94 96 86 77 72 77 79 87 86 82 79 81 85 87 83 76 67 68 69 45 33 32 23 19 20 39
69 71 76 72 63 58 62 68 66 52 38 35 35 37 40 39 34 37 36 31 30 46 67 71 76 64 66 85 84 80 78 79 88 92 87 82 82 74 67 69 80 57 51 43 25 20 23 22 15

GFSSGP_500_rhum_090.txt.gz
RH
40 39 34 29 66 85 77 50 20 16 32 56 74 75 74 68 61 57 54 53 55 64 57 51 50 40 33 28 23 19 16 13 13 13 5 4 8 13 14 14 13 12 10 6 3 2 1 2 2
41 41 38 36 36 40 68 70 39 18 15 30 60 72 78 77 70 59 56 54 60 62 49 45 45 44 31 27 24 18 12 8 7 6 8 12 15 15 13 12 11 8 5 3 2 1 1 2 2
40 40 39 32 33 23 35 74 66 32 17 20 38 53 63 71 72 66 55 50 49 54 48 38 37 34 32 20 22 16 7 6 8 11 15 17 16 14 13 11 8 4 3 2 1 1 2 2 2
33 33 37 34 36 29 24 61 82 60 27 18 22 45 42 58 64 67 55 44 42 48 52 39 31 26 25 18 17 15 9 11 14 17 18 16 15 14 12 8 5 3 2 2 1 2 2 2 2
35 31 30 39 34 27 26 45 84 87 58 28 20 22 34 37 47 57 62 46 40 41 46 40 29 22 19 16 12 12 11 17 19 19 18 16 15 13 10 6 4 3 2 2 2 2 2 2 2
36 28 32 39 36 30 24 29 54 87 94 48 30 21 21 38 38 40 52 52 42 37 38 39 29 22 18 13 11 13 15 19 21 19 18 17 15 14 10 6 4 4 3 2 2 2 3 3 3
34 44 36 44 29 27 19 23 29 39 87 90 44 30 19 22 36 38 41 45 46 33 30 30 32 22 17 13 13 16 19 21 21 20 19 18 16 13 10 6 5 4 3 3 3 4 4 3 4
88 72 34 29 26 25 20 18 20 18 29 81 85 42 27 18 21 32 36 35 34 29 24 21 29 22 16 14 15 19 24 24 22 22 20 18 17 14 10 6 5 4 3 4 5 4 5 6 7
99 70 62 30 28 18 20 19 20 17 16 25 74 77 39 27 20 23 35 32 22 18 16 16 24 20 18 17 18 22 26 27 25 22 20 19 18 16 11 7 5 4 4 5 5 6 7 8 9
96 74 59 41 19 14 18 21 18 18 18 16 24 62 66 36 26 21 29 39 32 18 13 13 19 18 20 22 24 26 29 30 27 24 21 20 19 17 13 8 6 6 5 6 7 8 9 11 11
91 72 49 51 17 12 16 22 20 18 17 18 17 42 84 55 33 26 24 38 43 37 25 14 15 17 18 23 28 29 32 34 30 25 22 21 19 17 13 10 7 7 7 7 8 10 11 11 10
94 79 57 33 22 11 12 29 19 17 17 13 15 26 38 89 50 35 34 27 34 56 53 33 15 18 19 23 27 28 32 35 35 29 25 22 19 16 12 10 8 8 8 8 10 12 13 12 11
93 100 84 30 23 11 11 22 25 18 17 17 12 15 32 39 84 58 55 36 36 46 57 52 20 15 20 22 25 26 29 32 38 33 28 24 21 19 15 12 10 10 8 9 12 14 14 12 12
98 99 99 53 18 12 12 20 17 19 18 15 14 11 19 28 55 81 51 75 48 54 64 60 43 16 17 22 26 26 26 31 41 40 37 31 25 22 18 15 14 12 10 10 11 13 13 11 13
91 94 98 83 23 13 15 24 15 17 17 16 16 11 12 29 33 79 89 60 70 54 62 66 53 38 17 19 25 27 26 29 38 40 45 39 31 24 20 18 16 13 11 11 11 12 11 11 13
84 99 97 87 53 15 20 21 17 16 16 16 16 14 12 45 44 78 92 95 79 60 60 62 74 66 34 19 22 27 29 31 35 49 51 43 35 27 23 21 18 15 13 12 12 12 13 12 12
93 91 88 74 67 34 21 27 17 15 15 19 18 19 30 38 55 68 88 94 93 80 56 69 77 91 89 26 34 32 33 41 44 52 51 47 41 36 30 25 20 17 15 14 14 14 13 13 16
75 87 98 82 50 28 17 20 19 18 16 19 16 17 72 95 71 98 87 93 94 93 52 60 82 89 89 93 59 65 39 50 59 65 61 52 47 41 34 28 23 20 18 18 19 17 16 21 28
72 99 94 78 61 46 20 18 21 24 20 16 15 15 29 80 95 90 98 92 95 96 67 74 68 94 92 98 98 93 91 67 70 71 63 59 54 46 36 30 28 25 23 35 32 27 27 53 61
59 64 93 92 54 33 21 18 20 20 20 18 16 14 25 83 83 86 89 96 93 95 96 73 71 63 95 97 96 97 96 93 80 68 70 65 59 49 41 37 34 34 71 77 78 77 69 69 80
92 75 90 97 85 66 21 19 19 18 18 20 19 15 19 36 82 100 92 86 100 97 95 94 80 69 63 84 94 93 97 96 97 96 96 77 77 77 74 83 57 66 83 85 77 71 71 77 71
99 84 95 99 80 67 33 20 19 18 18 19 18 18 23 36 48 82 96 90 100 95 97 92 99 90 68 72 96 97 96 96 97 96 95 95 95 96 96 93 81 81 75 64 52 65 66 63 66
100 96 100 100 96 76 66 41 20 20 18 17 17 21 30 45 52 52 66 99 98 91 98 93 89 91 98 94 97 97 98 96 96 96 96 96 96 96 96 93 91 79 72 40 54 54 50 53 52
100 100 100 100 100 69 77 58 22 24 19 16 19 28 41 42 45 56 63 71 87 90 90 95 95 92 92 85 88 95 97 95 96 96 95 95 96 96 91 80 63 44 42 45 44 37 31 36 34
100 100 100 99 90 70 65 46 39 34 15 17 20 36 52 53 62 53 62 88 66 64 73 89 95 98 93 94 88 97 92 100 98 94 95 96 94 73 48 44 45 51 52 42 34 32 33 34 36
100 92 93 68 61 63 66 50 48 26 17 17 19 32 67 58 64 76 69 88 91 87 78 84 86 88 91 97 99 97 96 97 96 95 92 97 95 88 58 52 55 60 46 40 38 37 37 45 48
100 90 80 78 66 57 60 56 45 19 16 17 16 17 34 64 72 75 69 67 78 95 98 100 99 99 93 95 93 91 93 96 95 96 98 99 90 70 70 74 58 55 63 60 48 41 42 53 52
100 98 81 75 72 68 64 64 43 21 17 17 17 18 20 32 46 58 60 54 56 70 93 91 90 93 99 97 94 96 82 80 77 77 86 91 93 94 93 90 90 86 70 49 50 56 57 66 47
78 78 79 73 82 76 69 70 57 32 22 20 19 18 23 22 21 37 53 54 55 53 71 91 94 99 90 86 84 89 86 88 86 80 80 84 88 90 88 86 77 62 58 61 74 75 66 59 38
74 84 83 89 90 91 82 76 72 51 28 36 38 26 26 32 34 30 26 26 36 57 70 72 91 99 99 93 96 100 96 86 82 78 77 81 81 82 83 83 84 85 84 78 71 66 72 54 43

GFSSGP_500_rhum_093.txt.gz
RH
30 36 50 71 84 84 74 54 27 21 60 66 82 89 80 74 89 76 67 57 53 52 70 61 50 44 37 32 27 23 18 15 12 13 12 7 5 10 14 14 12 11 9 5 2 1 1 1 2
30 30 44 75 66 65 71 67 58 22 35 58 92 96 92 78 72 64 58 59 57 56 68 63 53 48 40 33 28 24 19 14 12 11 8 5 10 14 14 13 11 8 4 2 2 1 1 2 2
31 31 36 46 40 38 40 77 68 47 19 49 90 96 94 77 77 68 62 56 54 54 56 54 46 45 44 33 26 24 16 10 7 7 8 12 14 15 14 12 9 5 3 2 1 1 2 2 2
31 34 35 40 31 21 39 100 74 78 32 22 60 97 78 90 88 77 71 62 53 50 53 53 38 39 37 35 21 20 15 8 7 10 14 16 16 15 13 11 6 4 3 2 2 2 2 2 2
30 39 38 37 35 33 56 62 35 78 77 26 24 63 69 83 93 91 83 72 64 51 48 53 43 33 28 26 23 15 15 12 15 17 18 17 16 15 13 10 6 4 3 2 2 2 2 3 3
48 47 51 38 40 38 66 40 23 63 85 57 26 22 30 64 82 85 86 78 68 53 44 48 48 35 24 20 19 13 14 15 20 19 18 17 16 15 14 10 6 4 3 2 2 3 4 4 3
68 54 53 42 43 44 64 35 35 56 77 91 49 25 19 41 61 75 79 80 71 60 44 44 42 33 23 19 15 12 13 17 21 20 19 18 17 16 14 9 6 4 4 3 4 4 4 5 7
79 76 50 52 36 50 45 36 40 44 74 80 94 45 24 18 34 59 59 72 67 64 51 36 39 32 24 18 15 12 14 18 22 22 20 19 18 17 14 10 6 5 4 4 5 5 6 8 9
98 92 73 48 51 58 51 35 33 46 36 80 92 84 39 23 22 42 62 62 54 51 46 38 33 29 24 20 15 13 14 18 22 23 22 20 19 18 16 12 8 6 5 5 6 7 8 10 12
97 93 82 66 44 68 96 35 29 28 29 68 90 89 81 38 24 25 42 60 53 44 37 31 33 27 23 20 16 14 15 20 25 24 23 21 19 19 17 12 8 7 6 6 7 8 10 12 12
96 79 91 94 87 96 97 58 29 36 29 31 51 68 89 68 38 29 34 44 46 51 38 28 26 23 25 20 17 15 16 23 27 28 25 22 21 20 18 16 12 8 7 8 8 9 11 12 13
87 67 100 97 96 82 95 94 28 24 25 32 23 37 43 70 57 40 32 35 43 37 56 41 22 20 22 20 18 19 22 24 31 31 28 25 22 21 19 17 15 11 9 9 9 10 12 13 13
74 100 100 100 91 97 90 83 28 22 29 22 18 17 22 34 46 64 43 33 35 38 42 72 35 25 16 23 18 19 24 24 30 35 32 28 25 22 20 18 16 13 11 11 9 10 12 13 13
67 100 99 91 90 98 98 61 40 21 33 20 20 20 19 20 29 42 81 49 44 39 56 51 48 52 40 16 18 18 22 24 27 36 36 34 29 25 22 20 17 15 14 12 11 11 12 13 13
88 77 95 95 82 76 97 72 21 22 28 20 20 19 18 18 20 24 46 91 70 60 66 64 73 60 58 55 23 17 20 23 24 30 40 42 41 35 29 24 20 18 16 14 12 12 12 12 12
99 90 91 98 100 76 57 56 18 23 29 21 19 17 16 16 14 16 30 65 93 81 67 48 60 63 68 64 50 27 23 22 24 28 38 41 46 45 37 29 23 20 17 16 15 14 12 12 13
100 92 94 100 100 98 55 36 35 18 26 25 18 18 18 17 16 12 18 42 82 92 76 66 48 59 70 80 73 57 33 27 24 26 35 38 47 52 43 34 27 23 20 18 17 15 15 15 15
97 95 85 97 95 96 80 32 32 20 17 21 22 18 19 19 18 14 12 34 63 86 84 81 69 62 72 71 90 84 69 60 35 26 32 38 56 65 53 43 37 30 24 21 18 18 21 24 24
97 100 100 94 89 98 89 33 25 21 17 17 18 17 18 20 20 20 12 29 62 92 82 86 86 81 75 80 81 90 98 92 84 47 32 36 47 60 55 50 45 37 28 23 22 28 52 66 70
84 79 98 100 97 98 100 69 25 23 22 16 17 16 17 22 20 19 12 33 52 89 100 94 92 93 80 61 76 89 90 92 94 93 72 35 42 50 51 54 52 44 32 30 28 61 84 85 79
100 75 72 91 84 99 100 100 42 22 25 19 16 15 20 24 19 20 13 57 98 79 92 100 96 93 92 56 56 90 98 97 96 93 94 93 73 58 49 61 62 57 60 62 49 82 88 81 60
100 98 93 98 76 93 95 91 70 24 24 21 18 16 19 18 16 17 10 18 96 99 93 98 94 96 92 91 59 52 71 92 91 94 96 96 94 90 88 91 93 89 84 94 93 93 84 92 54
99 96 100 80 94 100 96 86 51 22 18 19 22 20 20 19 18 17 12 21 53 96 90 79 90 93 90 94 95 77 66 52 83 95 96 94 90 96 97 96 97 96 95 96 96 95 80 42 52
100 98 100 100 100 100 98 80 44 23 30 21 21 18 18 20 19 20 15 22 38 79 84 83 82 87 97 96 84 87 92 76 69 70 83 96 96 99 97 96 96 97 96 95 91 86 51 47 66
100 100 100 100 98 85 97 83 57 27 30 23 19 19 18 18 17 16 15 20 44 57 97 98 90 95 99 97 97 79 82 98 96 91 97 97 97 97 98 94 95 96 95 72 57 50 52 73 83
100 100 100 96 84 88 89 67 69 50 23 24 20 19 17 16 17 20 23 23 33 55 63 74 94 99 94 90 94 82 92 98 97 95 94 95 89 96 96 95 90 91 90 84 68 55 89 70 51
100 100 98 93 100 100 72 60 60 60 32 22 21 16 16 17 20 31 40 44 32 46 53 76 76 82 93 88 84 84 91 94 97 92 94 96 93 96 97 95 94 96 96 90 79 82 92 81 91
99 99 100 97 93 100 82 67 61 56 49 43 29 20 16 16 18 39 50 48 57 84 74 81 90 67 61 65 68 76 83 85 91 94 95 94 97 95 93 92 93 92 87 83 82 95 96 93 60
99 90 99 100 100 100 89 79 71 68 47 36 17 17 17 18 19 32 56 62 71 81 69 74 80 86 99 98 95 94 86 74 89 87 92 91 91 85 90 81 80 86 95 94 84 82 73 59 59
97 90 100 100 100 100 100 82 68 64 56 23 17 17 18 18 22 21 24 45 53 64 69 64 72 74 83 98 98 98 98 97 96 94 95 96 94 93 88 83 82 80 79 83 88 90 86 84 83

GFSSGP_500_rhum_096.txt.gz
RH
80 100 98 99 96 90 65 35 28 36 64 98 92 78 92 95 95 79 64 61 58 57 56 59 50 44 40 36 32 28 20 14 14 11 12 10 8 6 10 11 12 11 9 6 2 1 1 1 2
60 90 98 100 91 71 78 55 36 35 60 73 80 92 94 76 67 66 58 61 63 56 50 63 55 48 42 37 34 28 24 18 15 12 12 6 6 10 13 13 11 9 6 3 2 1 1 1 2
43 70 85 98 86 60 39 80 54 35 24 26 85 98 90 80 67 96 72 61 64 58 52 64 68 57 45 39 34 29 24 18 13 9 10 6 10 14 14 12 10 7 4 2 2 1 1 2 2
42 52 87 73 59 38 34 73 91 69 33 25 72 97 77 77 80 79 72 67 66 61 53 54 63 52 46 44 36 28 24 17 8 6 7 10 15 15 14 12 9 5 3 2 2 2 2 2 3
48 59 77 58 39 30 58 94 97 74 62 35 38 87 87 97 95 92 79 69 65 61 52 53 56 45 39 41 38 27 22 16 10 9 14 16 16 16 14 12 9 6 4 3 2 2 3 4 3
71 69 71 60 36 34 72 99 92 53 78 86 30 39 74 98 96 95 88 78 73 69 60 50 50 50 36 33 32 30 19 16 12 14 17 18 17 16 15 13 9 5 4 3 3 3 4 4 6
60 95 76 62 45 40 89 86 97 46 54 85 60 27 37 85 97 97 96 89 85 73 67 56 44 46 45 32 22 22 21 14 13 14 16 18 18 17 16 13 8 5 4 3 4 4 5 7 9
74 96 83 61 54 50 70 66 81 61 42 81 97 52 31 47 83 96 99 84 97 82 72 64 44 37 42 37 22 16 15 13 14 16 18 19 19 18 16 14 10 6 5 4 5 6 7 9 12
72 82 95 81 54 49 80 79 79 70 35 73 86 71 39 31 45 76 90 79 92 82 71 65 56 39 35 33 23 17 13 11 12 16 20 20 20 18 18 16 12 8 6 5 6 7 8 11 12
81 90 81 79 64 59 91 98 80 62 31 53 78 69 71 35 28 46 66 68 76 66 62 52 54 50 34 29 24 20 14 12 12 16 21 22 21 19 19 17 13 9 7 6 7 8 9 12 13
96 78 67 96 91 86 98 93 96 51 38 43 70 75 73 89 35 28 49 60 61 56 52 44 36 43 40 29 22 19 16 13 14 16 22 24 22 21 20 19 17 12 10 8 8 9 10 11 13
93 62 80 100 98 93 95 96 97 54 57 45 56 71 91 83 91 37 29 36 49 57 62 44 36 32 36 30 24 18 14 12 14 20 24 26 25 22 21 20 20 17 14 11 11 11 11 12 13
82 83 72 99 98 87 98 84 97 71 93 51 42 66 79 92 89 88 44 34 34 53 49 38 30 31 38 31 30 19 15 13 14 20 26 30 28 26 23 22 21 19 17 14 13 13 12 12 13
78 98 79 99 100 86 98 99 97 98 88 63 35 37 50 74 81 90 92 65 39 47 51 47 44 71 36 35 28 24 31 16 15 22 26 33 34 31 27 24 22 21 18 15 15 14 12 12 13
97 76 95 96 93 96 95 91 97 79 100 77 44 34 37 38 46 66 71 88 91 54 62 80 43 45 56 46 54 59 37 23 16 21 23 32 34 36 33 29 26 24 21 19 17 15 13 12 12
100 69 67 83 97 100 99 87 86 98 98 81 42 27 30 24 30 26 30 54 74 94 52 41 98 84 60 44 57 77 82 51 38 24 24 26 32 34 41 40 37 32 25 21 18 16 14 14 14
100 92 58 80 96 99 96 100 89 98 99 89 34 25 24 21 22 20 19 24 54 80 83 82 41 61 56 59 64 72 83 84 59 33 26 24 26 32 38 45 46 40 31 24 21 19 17 16 16
100 89 71 64 87 97 93 95 100 94 94 85 33 23 22 21 22 21 19 19 26 63 90 79 88 76 65 72 66 55 67 91 82 45 33 30 27 28 34 38 52 46 42 35 30 24 20 19 20
100 100 100 86 97 100 99 92 98 95 95 92 39 26 26 21 20 18 17 16 18 31 44 88 82 81 94 64 46 54 71 94 93 87 74 63 49 32 32 33 44 54 52 46 42 32 26 24 37
100 98 100 100 92 98 94 98 100 96 77 86 30 26 25 19 18 18 19 18 17 20 33 42 90 83 74 83 88 60 64 66 80 92 96 96 90 48 30 28 37 47 56 50 50 41 33 28 39
100 82 100 98 95 90 100 99 100 96 76 55 58 23 24 18 18 19 20 20 20 19 16 12 42 81 94 73 83 98 82 72 78 86 90 90 95 95 95 89 69 62 67 66 62 55 43 42 56
100 82 100 100 95 85 78 86 94 91 72 39 25 24 22 21 19 18 20 22 22 22 20 35 18 50 89 88 78 94 94 97 94 90 88 96 94 96 97 96 97 96 95 96 93 86 88 94 98
95 84 98 90 96 100 100 99 98 100 77 50 18 13 16 17 17 16 18 22 24 18 22 37 39 40 65 90 91 94 95 98 97 85 72 94 95 94 95 95 95 98 95 97 95 96 96 96 96
100 80 100 91 98 100 85 82 99 74 62 25 23 20 17 15 16 17 19 24 22 16 14 15 31 68 99 69 84 88 96 97 96 96 96 93 79 69 84 95 95 97 95 95 97 96 96 97 97
100 100 100 98 100 69 88 96 88 88 95 44 24 23 20 17 16 18 21 25 22 19 15 16 30 48 88 98 94 86 79 96 80 83 97 98 95 92 85 87 91 97 96 100 97 97 96 96 90
100 94 95 100 98 100 82 86 96 81 76 83 55 46 35 25 20 21 22 24 21 19 14 11 15 44 68 89 83 69 63 95 97 96 98 96 95 97 93 98 97 97 97 97 96 91 95 92 95
100 89 98 70 93 100 76 70 99 68 66 45 23 21 20 20 21 19 24 24 19 17 15 14 15 34 49 84 94 84 73 83 91 97 97 100 90 92 90 93 95 95 93 95 97 94 88 84 72
87 87 88 86 90 100 83 94 100 96 74 26 25 23 20 23 21 21 18 18 17 17 21 22 28 35 54 80 79 91 91 95 98 99 94 85 88 93 81 84 87 92 94 89 84 80 78 82 84
86 85 100 100 100 98 100 97 70 88 82 50 23 22 23 19 18 18 16 13 11 28 44 46 44 68 67 79 81 67 85 88 88 87 79 73 77 78 85 90 99 91 90 93 93 76 73 86 94
91 83 89 93 99 94 100 77 79 64 64 95 70 37 29 26 42 25 15 14 12 33 60 65 72 84 83 91 81 79 72 70 90 92 90 74 68 62 71 86 83 81 74 75 75 77 81 88 90

GFSSGP_500_rhum_099.txt.gz
RH
94 100 94 90 94 77 40 28 30 45 88 91 85 90 89 93 68 89 72 63 56 58 50 45 43 41 40 38 40 34 30 15 14 12 11 11 9 6 8 12 12 11 9 7 3 1 1 1 2
98 98 94 97 88 82 57 35 27 41 69 83 98 96 81 95 79 92 85 62 60 58 55 47 47 48 45 41 38 34 29 24 15 14 12 11 6 6 11 12 12 10 7 4 2 1 1 1 2
96 97 94 100 89 61 66 53 34 47 44 56 85 84 77 96 76 74 96 73 68 66 58 49 46 54 48 42 37 34 29 25 18 14 12 10 7 10 13 12 11 8 5 3 2 2 1 2 2
83 99 93 93 72 59 54 73 59 47 41 42 83 82 74 79 95 95 96 75 69 68 61 51 46 61 58 46 40 35 31 26 20 12 9 9 11 14 14 13 11 7 4 3 2 2 2 3 3
56 97 99 80 62 52 76 87 90 74 40 36 48 56 86 97 87 88 83 96 76 70 62 56 50 66 60 49 44 38 31 26 20 10 8 9 14 15 15 13 11 7 4 3 2 2 3 4 5
61 97 91 90 54 55 72 93 93 77 56 44 36 54 76 99 91 87 96 94 78 72 65 59 52 53 53 42 41 41 31 23 20 11 8 12 14 16 15 14 12 8 4 3 3 4 4 6 8
52 90 97 88 59 65 83 99 75 83 94 57 45 33 44 86 90 82 97 97 85 73 66 62 52 48 51 42 33 32 32 20 17 13 12 14 17 16 16 15 11 7 5 4 4 5 6 8 12
45 99 85 76 76 66 90 97 71 74 78 94 52 30 26 50 92 82 94 92 84 79 73 70 64 55 44 47 41 28 21 22 15 14 15 17 18 18 17 16 13 8 5 4 5 6 8 10 13
44 82 87 66 76 81 92 90 72 84 87 78 90 52 33 51 71 89 95 95 95 94 83 79 72 62 44 38 42 37 19 16 15 13 16 17 19 19 18 17 15 10 6 5 6 6 8 10 13
44 75 97 67 80 77 97 94 100 87 83 83 66 66 59 38 48 61 88 97 94 91 86 79 73 66 54 37 35 34 23 16 12 12 16 19 20 20 19 19 17 12 8 6 6 7 8 11 13
47 59 92 99 94 73 96 96 98 98 76 53 59 55 82 62 46 46 68 84 93 90 82 72 67 66 63 48 33 31 26 20 14 12 14 22 24 22 21 19 19 16 12 9 8 8 9 10 12
53 77 82 100 100 95 97 95 98 84 100 66 62 74 82 95 82 48 40 61 62 70 69 55 43 48 46 52 40 31 25 20 16 13 13 20 25 25 23 21 20 20 18 15 12 11 11 12 12
56 80 95 100 98 97 98 94 97 91 91 54 47 61 88 87 95 80 53 34 52 59 57 56 44 37 29 35 39 32 26 20 17 14 13 15 22 27 26 23 22 21 21 20 17 15 16 14 13
44 69 100 100 98 97 98 90 90 98 82 49 52 44 57 95 90 91 77 47 30 37 52 54 56 40 30 28 38 36 26 23 17 16 15 18 22 28 30 28 25 23 22 21 19 17 16 15 13
53 64 100 98 86 100 98 97 72 92 82 56 57 60 53 65 90 86 82 82 60 33 38 57 70 61 38 54 61 41 42 30 24 28 19 22 25 25 33 35 31 28 25 24 22 19 18 15 13
83 76 96 97 88 95 98 93 77 97 96 57 53 68 66 57 80 82 83 87 95 90 66 42 52 68 56 97 61 56 60 60 65 40 23 20 27 28 29 35 38 37 37 33 27 22 20 17 16
99 79 88 99 96 100 96 93 97 90 97 93 87 69 64 45 50 68 72 86 94 93 94 89 54 47 51 46 57 43 60 62 77 77 58 40 26 25 27 29 33 39 44 41 38 32 26 22 20
93 98 94 97 99 96 88 99 98 94 96 94 88 76 62 43 39 42 56 63 66 72 71 95 84 92 88 90 97 95 53 56 76 74 77 72 40 30 27 27 27 30 40 43 43 43 40 34 30
81 100 90 97 100 98 87 97 100 98 97 99 97 66 62 68 40 39 37 35 32 35 44 71 76 70 54 70 65 54 50 62 67 67 72 80 77 71 50 35 29 26 28 34 44 54 56 48 41
98 100 100 96 100 99 99 98 99 94 100 98 98 95 54 59 45 36 31 22 19 23 31 43 77 82 71 60 63 63 72 74 52 48 61 70 81 94 95 72 82 78 34 28 35 51 64 65 58
100 98 100 99 86 93 98 100 100 98 94 96 94 88 95 58 39 31 27 21 21 24 21 29 56 75 95 69 66 81 85 94 98 89 50 61 66 88 97 96 96 96 90 60 74 76 59 62 77
97 94 87 96 100 97 98 92 93 87 99 100 90 74 86 74 34 26 25 23 21 20 19 21 27 55 79 87 83 81 72 58 72 96 97 94 85 88 92 96 96 96 97 96 96 96 97 96 96
98 83 95 100 100 97 100 98 85 97 98 91 89 85 79 69 48 25 22 20 20 19 20 20 20 20 19 34 46 54 50 72 61 60 74 94 95 95 95 95 93 93 95 96 95 97 97 98 97
60 100 97 100 95 86 88 94 82 81 71 67 65 73 74 65 48 25 22 18 20 21 23 24 24 24 24 37 62 52 24 32 69 77 84 82 80 76 84 84 93 91 94 90 94 96 95 96 93
99 100 100 100 98 100 100 100 97 70 77 57 61 63 56 54 74 35 27 18 19 21 26 32 29 24 31 31 40 64 73 61 59 74 84 96 93 97 94 88 97 94 96 96 96 95 96 95 96
98 100 94 93 81 66 96 93 77 98 74 48 47 54 47 22 31 45 31 21 18 17 20 23 29 27 24 30 25 22 34 65 73 78 98 95 85 65 76 94 99 90 97 96 93 96 98 96 98
100 99 76 74 86 79 53 49 59 60 72 49 50 62 53 29 20 16 17 16 16 17 20 22 24 25 18 14 13 14 26 60 71 86 96 87 85 97 100 96 98 99 96 91 88 88 98 92 89
99 98 99 73 81 77 60 76 61 58 59 48 65 58 29 28 26 24 22 20 19 18 21 25 26 24 16 15 12 30 44 56 70 81 94 78 76 82 90 95 95 96 88 80 85 89 90 94 87
100 96 100 90 84 82 76 64 69 59 76 80 77 79 61 41 37 35 37 28 21 24 27 24 26 19 16 16 16 20 33 54 86 93 87 94 97 98 98 94 88 94 93 82 76 82 87 84 83
86 97 96 70 60 66 67 81 83 82 97 78 62 40 50 51 20 19 20 26 31 29 20 15 12 13 25 32 56 70 60 62 75 82 79 73 75 84 84 79 74 77 76 80 75 94 80 85 87

GFSSGP_500_rhum_102.txt.gz
RH
50 88 100 100 93 81 74 39 35 59 97 96 91 92 87 76 74 81 80 67 57 55 49 46 46 45 42 36 43 41 35 19 13 11 10 11 9 8 6 8 10 10 9 7 3 1 1 1 2
73 91 100 99 94 84 67 46 35 42 96 90 97 73 98 77 66 78 79 90 59 60 54 50 45 40 37 36 38 40 36 30 17 14 12 12 9 7 9 11 11 10 8 4 2 1 1 2 2
45 100 99 93 97 61 62 55 35 48 82 82 96 90 98 80 76 96 67 82 64 62 54 50 45 41 42 44 42 38 35 30 26 16 13 12 7 8 12 13 12 10 7 4 2 2 2 2 3
42 99 98 93 90 46 44 66 39 61 75 87 88 97 83 74 82 96 91 81 67 65 58 54 48 41 45 46 43 38 34 28 24 20 13 11 9 9 13 14 12 9 5 4 2 2 2 3 3
44 65 98 95 68 49 41 78 54 62 78 86 60 86 97 90 83 83 81 82 78 66 62 58 51 44 53 52 46 42 35 30 23 19 10 9 10 12 14 14 13 9 6 4 2 2 3 4 6
48 49 97 92 61 51 54 79 97 61 58 81 52 64 95 94 84 74 82 82 90 76 68 63 57 50 63 63 51 45 39 28 22 16 9 8 11 14 15 15 13 10 6 4 3 3 4 6 9
62 42 70 90 66 55 65 96 94 88 64 50 48 40 65 81 90 86 96 96 85 82 71 66 60 56 55 61 47 41 40 29 20 16 12 12 14 16 16 16 14 10 6 4 4 4 5 8 12
78 41 71 98 63 48 80 100 73 85 90 64 46 31 36 62 96 93 95 95 96 93 76 68 63 55 52 55 49 36 29 28 19 16 16 16 18 18 17 17 15 11 8 5 4 5 6 10 13
77 58 53 99 93 64 77 100 80 98 98 93 50 32 34 51 92 97 94 90 95 89 79 72 66 61 56 47 47 47 35 21 20 16 16 18 20 19 19 18 17 14 10 6 5 6 7 10 13
100 65 89 97 75 99 100 95 93 98 91 88 82 44 34 32 58 89 94 93 95 89 93 79 74 71 65 56 42 41 42 28 17 14 15 18 20 20 20 19 18 17 13 8 6 6 7 9 12
100 80 64 84 98 100 100 83 98 97 98 84 95 82 39 27 38 57 90 95 94 97 94 86 81 80 75 66 51 37 38 33 20 15 14 17 20 21 21 21 20 18 16 12 9 7 8 9 10
100 78 70 98 98 97 98 98 93 96 95 72 83 89 86 61 33 64 51 93 97 94 97 89 84 84 78 70 63 48 35 32 26 19 14 15 18 23 24 22 21 20 19 16 13 11 10 11 11
85 72 51 99 98 98 89 98 90 93 76 70 75 87 83 88 56 41 72 84 89 92 86 92 82 72 65 63 56 53 44 33 26 21 17 15 17 22 26 26 24 22 21 20 19 17 14 14 15
84 65 48 88 98 99 99 93 97 92 97 63 63 89 84 79 91 92 66 98 87 65 66 73 71 62 47 43 40 38 41 35 28 23 19 16 17 22 27 30 27 26 24 23 22 21 20 18 18
95 70 56 100 99 98 98 87 97 84 78 82 58 65 86 85 79 96 94 82 90 52 49 60 72 67 52 46 36 35 40 36 29 26 21 20 20 23 28 33 36 34 31 28 26 25 24 22 21
100 76 52 81 98 99 98 97 93 98 71 83 80 74 71 68 83 96 92 84 93 89 49 42 34 55 56 54 40 30 48 48 52 38 32 32 29 24 28 30 33 39 41 40 37 36 33 29 24
100 65 67 60 99 98 98 99 96 82 76 66 63 65 67 65 72 95 98 91 88 85 94 70 71 77 83 72 84 49 97 66 74 65 61 60 46 35 26 25 26 28 31 37 43 47 48 45 38
99 81 72 65 96 100 100 98 96 80 90 98 77 72 70 74 73 69 77 88 99 86 83 87 69 66 64 48 40 49 93 44 46 62 60 67 70 64 53 35 23 21 24 27 29 35 39 44 51
87 100 62 74 84 95 100 97 98 100 99 97 81 60 62 54 88 76 68 78 89 87 84 83 79 98 96 95 96 73 94 92 98 66 58 68 63 63 63 60 43 28 26 26 23 22 25 34 48
68 88 98 81 98 96 97 94 98 97 98 79 86 90 92 72 78 83 64 52 63 73 82 88 82 72 73 90 97 93 85 79 81 75 68 76 75 70 61 65 68 78 76 80 94 96 85 33 31
75 73 94 98 97 99 99 98 98 99 99 98 98 97 99 99 95 88 67 52 49 47 54 71 62 56 62 73 86 98 92 89 80 72 67 72 74 76 67 56 64 89 97 96 96 97 96 92 93
93 84 100 99 100 98 100 96 88 94 99 95 98 98 98 93 96 88 56 46 44 48 56 60 58 45 35 63 62 99 92 94 96 89 91 95 85 95 98 87 89 96 96 96 97 97 96 97 97
100 100 98 99 91 95 95 90 100 99 97 94 86 98 98 100 99 81 73 48 44 44 45 61 42 46 35 34 50 66 46 51 74 63 79 67 63 70 90 97 96 96 94 93 95 96 96 96 97
96 94 100 93 100 97 89 94 100 95 83 91 100 98 98 96 89 95 84 60 40 41 42 39 43 49 26 22 45 46 36 38 53 72 84 95 95 96 95 92 96 91 96 99 83 90 95 95 92
100 98 99 100 100 85 82 93 100 96 97 90 96 97 94 85 98 83 73 52 36 34 43 36 50 56 55 49 45 53 49 29 35 64 69 83 90 94 93 95 93 98 96 98 93 97 98 91 89
96 95 100 100 87 82 77 71 96 89 95 88 90 90 92 94 92 72 59 63 35 36 41 35 52 50 53 52 57 51 43 37 34 28 32 46 73 81 80 76 84 96 94 97 83 99 97 97 94
61 89 100 88 80 100 86 94 82 68 68 85 80 80 62 64 56 56 49 60 40 38 44 44 38 43 53 53 48 38 28 22 19 16 16 18 17 35 72 71 74 88 82 94 84 98 95 94 95
89 90 100 99 92 87 86 93 78 67 66 47 48 51 44 38 34 37 34 47 45 27 29 26 22 22 33 41 32 24 25 23 15 13 12 13 22 44 66 64 72 81 85 95 94 98 90 96 95
59 82 77 70 65 79 61 56 53 61 47 64 76 59 38 39 41 43 34 44 63 41 28 22 18 17 20 22 25 27 27 23 16 14 12 14 27 56 70 67 68 83 80 75 83 87 99 95 95
100 69 49 52 40 42 49 40 35 33 35 39 41 49 50 36 54 57 32 24 22 22 21 19 18 18 21 24 28 28 27 16 12 14 19 29 38 64 70 71 76 75 75 81 83 91 95 94 89

GFSSGP_500_rhum_105.txt.gz
RH
10 38 55 90 86 85 57 55 50 42 88 96 98 82 85 86 74 57 51 53 50 52 44 41 40 44 45 42 40 36 38 19 14 10 11 11 10 9 6 7 10 10 10 7 4 2 1 2 2
8 40 75 87 92 89 61 42 60 46 74 85 99 100 72 88 71 69 64 58 52 56 54 49 44 46 45 44 36 36 42 36 21 14 12 11 10 9 7 9 10 11 9 6 3 2 1 2 2
9 38 76 100 96 81 48 34 49 49 62 83 94 96 99 74 81 80 63 76 70 56 54 55 50 46 43 40 33 30 38 37 31 20 15 12 11 7 8 11 12 11 9 5 3 2 2 2 3
23 29 93 100 95 60 40 37 44 61 60 92 76 96 97 95 90 85 70 80 76 78 62 57 54 49 42 39 39 38 38 36 29 24 16 14 11 8 9 12 13 11 8 4 3 2 2 3 4
15 32 53 98 88 62 45 49 57 87 84 79 74 91 98 97 84 84 82 72 70 93 70 59 56 51 47 42 44 42 39 35 28 23 17 12 10 10 11 13 13 12 8 5 3 2 3 4 6
15 39 45 92 97 63 54 59 72 89 97 87 75 68 95 93 92 80 69 71 75 76 72 66 60 54 46 48 51 46 41 34 30 22 15 9 10 11 13 14 14 13 10 5 3 3 4 5 8
15 31 40 58 98 90 67 77 81 92 95 92 67 61 87 96 86 87 83 94 85 79 72 72 64 58 49 55 60 51 44 37 27 23 14 10 11 15 16 16 16 14 9 5 4 4 4 6 11
26 18 35 52 91 96 60 74 96 97 96 83 68 52 62 68 92 96 100 98 92 88 84 77 72 63 53 56 64 49 41 40 27 20 17 14 14 17 18 17 16 15 10 6 4 4 5 7 12
33 23 20 46 68 96 99 94 100 99 98 86 75 51 56 93 94 98 94 83 98 96 89 81 73 62 55 51 59 50 38 28 27 19 17 17 17 18 18 18 18 16 13 9 5 5 6 8 11
37 29 19 34 51 88 100 99 99 100 98 97 76 66 68 69 82 90 81 93 96 95 80 88 78 66 59 52 50 51 46 37 23 19 17 17 18 19 19 19 20 18 17 12 8 6 6 7 9
37 33 26 24 54 86 98 96 99 97 98 84 62 57 53 65 69 82 100 94 92 97 94 96 92 71 65 62 58 46 42 44 34 20 15 16 18 20 20 20 21 20 19 17 13 9 7 8 9
78 34 24 23 50 74 98 98 98 95 94 77 60 62 67 61 70 70 96 88 96 97 94 95 92 80 77 75 70 60 42 38 38 28 18 15 16 19 22 23 22 21 20 19 16 13 10 9 9
98 95 21 24 50 100 100 98 99 87 93 84 68 77 62 76 89 64 75 96 96 96 89 94 98 88 86 87 80 71 63 44 35 32 25 19 16 17 19 23 25 24 22 21 19 18 16 14 13
96 89 88 36 67 99 95 96 100 64 92 89 72 94 90 74 92 69 54 60 79 93 96 95 97 98 91 91 82 72 62 56 46 32 26 22 19 17 20 24 28 29 27 25 23 22 22 22 20
98 97 100 49 73 98 95 99 98 73 90 96 76 89 95 97 93 70 61 61 63 79 95 91 97 93 90 80 69 57 47 43 42 37 29 24 21 19 17 19 24 29 32 33 31 29 28 26 26
100 100 100 82 86 97 99 97 96 92 82 74 77 78 92 96 96 97 89 72 84 79 95 70 72 82 71 59 51 48 42 38 39 36 31 27 25 23 20 20 22 25 28 32 35 36 36 36 37
100 87 92 77 79 100 97 100 97 99 71 93 78 76 79 85 96 94 96 88 94 97 82 90 72 51 96 92 40 35 37 36 39 42 40 37 38 35 34 27 23 23 25 25 25 28 32 36 39
100 83 90 99 78 97 94 98 100 98 87 87 88 89 73 77 81 95 96 96 93 96 97 91 84 39 41 44 29 34 32 31 36 67 54 56 58 66 63 58 50 40 28 22 20 23 26 26 26
100 64 100 100 92 100 98 92 99 97 97 88 100 100 97 100 87 91 96 95 97 96 96 94 96 66 77 76 74 62 61 56 62 98 51 62 78 64 70 70 71 66 68 66 55 44 45 44 60
100 80 100 100 98 93 98 98 97 98 96 92 90 98 99 100 86 77 80 96 96 97 94 96 95 94 96 96 95 88 97 81 62 65 97 85 92 70 62 63 66 70 79 83 80 86 92 96 93
100 95 100 100 96 99 97 98 95 97 100 97 91 92 97 90 93 81 71 85 97 96 95 94 96 90 96 92 96 96 96 96 89 91 96 89 83 76 66 63 70 76 78 71 52 65 90 96 96
88 84 96 100 94 97 99 96 97 96 96 84 87 92 82 85 81 72 70 72 86 93 95 97 97 96 94 95 93 94 97 96 96 94 94 93 96 94 90 87 89 88 93 95 93 95 95 95 96
69 59 78 97 100 97 96 99 92 96 96 98 84 90 88 70 61 65 65 67 88 77 81 100 92 93 75 92 75 95 80 79 92 97 95 84 63 63 77 75 94 96 97 95 96 96 96 98 97
91 50 77 91 96 97 99 100 100 93 100 99 98 95 99 87 69 62 70 74 87 81 72 76 77 92 95 86 65 82 57 90 90 85 57 54 80 96 96 96 96 97 97 95 92 94 95 96 97
100 81 82 100 100 92 98 92 88 99 100 99 98 99 98 99 95 92 81 82 87 86 88 78 80 74 69 66 66 69 66 60 64 57 61 58 72 79 49 52 40 45 54 71 82 80 93 94 91
100 97 100 91 83 88 79 93 93 88 98 89 89 99 97 94 97 99 97 98 88 78 75 63 64 68 65 64 67 66 48 62 61 64 65 57 37 30 27 26 24 24 28 41 67 73 77 89 88
100 82 90 80 75 77 77 74 74 80 94 94 83 88 96 94 97 98 96 95 94 88 88 84 66 60 58 56 73 80 66 68 63 60 43 31 23 20 16 14 13 13 13 16 20 49 70 73 82
100 99 79 72 81 61 64 57 54 62 71 96 96 96 93 95 94 91 92 94 86 80 71 66 54 43 46 53 62 74 78 66 57 38 26 24 24 23 19 15 13 12 11 11 18 34 50 52 65
66 100 100 85 84 85 88 81 77 71 62 81 94 96 94 91 88 82 94 93 92 72 67 50 42 43 44 43 52 67 61 62 48 32 26 26 27 26 22 17 13 10 10 13 23 51 63 65 74
58 48 80 94 96 95 86 90 71 62 57 69 74 76 78 72 70 66 58 88 76 58 59 56 53 40 44 49 68 42 54 40 24 24 28 28 28 26 14 10 10 14 21 24 33 42 55 61 82

GFSSGP_500_rhum_108.txt.gz
RH
3 3 4 29 61 50 56 50 33 56 68 96 99 92 78 84 72 54 53 62 49 45 37 37 36 36 38 36 39 38 34 20 12 10 9 9 9 9 7 6 9 9 10 8 5 2 1 1 2
4 4 4 21 68 70 44 36 42 37 53 96 97 97 80 73 75 68 74 67 57 48 48 37 38 43 46 44 40 38 32 36 28 17 12 11 10 10 8 8 9 10 9 8 4 2 1 2 2
5 5 6 26 81 43 42 36 39 34 58 74 96 86 87 70 75 79 79 77 58 53 54 49 40 46 50 48 45 38 33 36 39 29 18 14 11 10 8 8 9 10 10 7 4 2 2 2 3
8 8 6 14 66 48 60 48 54 51 62 62 63 96 91 91 80 87 87 79 70 66 64 58 52 46 48 47 44 37 28 30 39 36 26 16 13 10 7 8 9 11 10 7 5 3 2 2 4
14 11 8 8 35 96 77 68 76 71 64 83 54 64 95 99 77 85 90 85 75 71 68 66 59 54 50 45 42 37 34 33 37 34 27 19 13 11 9 10 11 12 11 8 6 3 2 4 5
18 16 11 8 15 91 86 75 97 89 70 88 80 52 73 96 85 90 100 91 84 75 75 72 68 61 53 48 42 41 41 39 37 31 25 18 12 10 11 12 14 14 13 9 4 3 3 4 7
19 21 14 10 15 87 89 71 100 100 76 91 89 62 56 94 98 91 94 98 90 89 86 91 72 65 57 50 43 40 43 40 35 31 24 18 10 11 12 14 15 15 14 8 5 4 4 5 8
26 28 17 14 12 40 100 88 94 98 94 93 97 86 64 75 96 86 95 94 96 88 77 94 74 68 62 53 45 48 46 42 35 29 25 16 12 12 14 16 16 16 15 9 6 4 5 5 9
36 38 22 14 14 17 96 70 99 99 97 97 99 86 76 70 89 96 91 91 78 76 78 79 73 69 64 56 51 55 52 43 41 28 21 18 15 16 17 18 18 18 17 13 9 5 5 6 8
52 40 29 18 14 16 34 99 94 100 97 98 73 89 88 75 82 91 77 77 64 71 76 80 75 68 68 61 53 63 53 43 36 34 23 18 18 18 18 18 19 19 19 17 13 8 6 6 7
68 53 46 29 17 15 27 86 100 99 97 89 86 90 100 71 89 87 97 91 95 100 93 93 82 73 70 62 54 57 56 43 35 28 25 20 17 19 19 18 19 20 20 19 17 13 9 7 7
59 55 56 38 25 16 17 45 98 98 86 97 73 89 93 63 54 87 95 93 95 87 100 94 95 80 71 62 54 51 48 47 44 36 25 18 16 18 20 20 21 21 21 20 19 17 15 12 10
31 30 32 45 30 20 15 47 97 97 92 94 93 79 84 71 66 63 78 97 94 96 97 86 96 90 76 69 67 64 56 45 40 39 37 26 18 15 15 19 21 24 24 23 22 21 19 18 17
31 30 34 31 37 21 14 42 94 93 94 74 96 77 73 90 81 89 90 86 76 92 95 96 95 90 92 87 80 76 70 64 51 36 34 33 28 21 16 15 17 20 24 26 25 24 23 23 23
43 70 83 54 38 24 38 36 86 93 98 81 88 91 73 80 91 85 95 73 79 89 96 97 94 94 94 96 90 83 77 70 61 54 42 30 27 24 20 17 15 16 19 22 26 28 28 28 28
98 100 90 80 41 34 28 27 97 97 96 98 89 90 89 77 98 94 74 93 83 81 89 96 94 91 84 88 91 82 71 60 51 45 43 41 31 25 21 18 17 16 16 18 22 25 27 29 29
100 87 86 78 54 82 20 36 96 99 97 66 92 80 95 85 92 97 91 88 77 78 72 85 98 95 96 94 81 79 62 49 40 35 33 31 33 29 26 23 21 20 19 17 19 22 22 21 21
95 100 100 94 100 38 18 38 99 97 96 98 94 75 91 86 93 95 96 93 94 76 62 60 96 94 95 91 71 70 51 40 37 32 32 31 38 39 36 34 34 39 39 40 44 45 36 28 24
98 100 100 99 100 58 30 74 98 98 98 100 88 67 86 89 88 97 95 96 97 97 93 80 72 71 68 77 80 98 96 36 30 34 36 70 80 58 61 59 60 56 54 57 60 59 63 69 76
100 100 85 87 100 90 49 93 96 98 99 99 95 74 90 91 83 98 96 96 96 96 96 96 96 84 88 82 74 94 78 42 47 52 59 64 92 56 60 86 74 59 56 58 59 66 69 67 52
100 100 100 84 100 98 82 99 98 98 97 98 79 64 78 97 97 97 96 96 97 96 94 95 94 96 92 94 96 75 67 54 69 66 60 70 96 98 88 82 83 74 68 67 76 78 80 71 74
99 100 97 92 99 100 99 100 99 97 98 100 97 91 82 88 91 97 97 95 96 96 97 93 92 91 90 95 95 96 96 96 95 96 97 95 96 96 94 84 77 79 72 80 87 95 96 97 94
100 95 97 100 96 100 100 97 94 98 99 97 98 99 93 93 97 98 96 93 86 92 94 96 95 86 98 96 96 96 96 95 96 96 97 95 97 93 60 63 76 77 83 91 97 96 98 95 97
88 90 84 95 100 100 97 100 99 99 96 97 89 92 99 93 86 88 95 92 74 60 58 94 93 96 94 94 95 96 95 90 96 95 93 64 74 73 92 95 96 97 96 96 80 67 78 83 85
50 63 87 84 93 95 96 99 99 92 98 99 89 97 85 99 86 87 84 82 80 75 69 90 96 95 97 93 96 97 96 99 96 96 97 90 90 92 79 82 77 50 34 25 20 15 14 16 21
48 44 76 88 80 71 95 100 97 94 95 90 79 94 97 88 100 94 87 84 88 77 65 67 80 89 93 92 95 88 97 96 96 93 78 61 61 64 56 47 35 28 23 19 15 12 12 12 11
70 56 93 100 84 69 76 69 97 94 92 96 96 98 97 99 100 90 82 91 75 67 75 82 91 90 81 80 78 85 75 65 70 64 47 59 66 56 50 30 25 25 23 20 18 17 15 12 11
99 96 96 87 83 66 61 56 62 76 83 82 100 98 98 96 98 79 84 98 84 92 96 89 79 81 80 82 72 59 56 55 65 66 74 63 61 57 38 26 26 26 25 22 20 17 13 8 8
93 69 59 74 62 51 50 67 52 62 69 67 79 97 98 98 99 100 96 98 100 100 94 97 100 100 96 84 75 60 53 54 56 70 75 67 64 53 39 25 25 26 25 24 18 14 9 8 12
88 100 91 80 80 81 61 57 45 49 58 66 71 91 100 100 90 97 98 98 99 94 86 85 77 77 81 82 80 58 49 50 50 59 73 73 62 47 24 26 27 26 27 18 10 7 16 29 27

GFSSGP_500_rhum_111.txt.gz
RH
3 2 2 2 2 2 1 3 14 29 31 59 76 78 80 75 57 45 48 60 54 52 45 35 29 27 34 37 36 34 27 13 10 8 7 8 8 9 8 7 7 7 8 8 6 4 2 1 2
4 3 2 2 2 2 1 2 7 38 42 68 94 87 96 88 64 56 59 59 66 58 52 42 32 30 31 40 37 37 36 30 18 12 10 9 9 9 8 8 8 8 8 8 6 4 2 2 2
3 3 2 2 2 1 2 3 15 46 62 68 92 98 98 86 67 55 65 59 64 68 55 44 40 34 32 43 42 41 39 32 34 29 20 14 11 10 9 8 8 9 9 8 6 5 2 2 3
3 2 3 2 2 2 3 3 28 62 72 77 79 97 67 97 73 64 69 67 64 67 66 50 47 42 38 41 46 46 41 34 33 37 34 23 15 12 10 8 8 9 10 9 7 5 2 2 3
2 2 2 2 2 4 4 4 19 58 85 84 87 90 85 93 98 77 84 74 72 70 65 62 53 51 47 46 45 47 42 31 33 38 38 31 21 15 11 9 9 10 11 10 8 5 3 3 4
2 3 2 3 5 7 8 8 13 52 86 90 99 95 88 97 96 97 96 78 80 81 69 69 61 54 50 48 47 45 41 32 29 35 37 33 24 16 12 10 10 11 12 12 8 5 3 4 5
3 3 3 6 10 11 12 12 30 47 85 94 88 89 91 83 87 98 98 84 74 84 72 73 67 60 55 54 49 44 38 37 36 37 34 27 21 13 11 12 12 12 13 13 8 5 4 4 6
4 4 4 11 18 13 16 15 97 58 76 98 92 75 84 70 88 97 96 94 70 81 76 78 74 68 62 58 53 46 39 37 38 37 32 25 20 12 11 12 14 15 14 14 10 6 4 5 6
5 6 6 15 22 24 23 14 73 95 73 100 91 73 84 100 93 94 97 94 76 77 80 83 79 78 70 63 56 48 41 39 40 37 33 26 19 12 12 14 16 16 16 16 13 9 6 5 6
14 21 20 38 37 29 30 17 22 80 94 98 95 72 72 99 87 88 90 94 85 81 76 99 97 89 77 66 59 50 46 44 43 38 31 26 21 15 16 15 16 17 17 17 17 14 9 6 6
33 24 49 54 48 41 30 18 22 100 100 82 98 70 69 86 76 89 94 96 100 98 99 99 99 98 82 70 61 52 50 50 45 42 36 26 21 19 18 17 17 18 19 19 18 18 15 10 8
50 49 63 70 61 46 29 17 15 72 98 87 97 66 67 90 69 72 90 96 96 97 98 96 99 97 85 73 65 57 53 52 48 40 35 32 27 20 18 19 19 19 20 21 20 20 19 18 16
57 60 56 65 69 52 33 20 24 61 99 100 98 76 61 74 72 92 81 95 96 96 96 98 97 99 95 80 68 59 52 54 52 41 33 28 24 22 18 18 18 18 20 21 21 21 21 20 20
62 56 42 41 44 58 37 19 26 30 99 98 81 90 64 80 72 90 76 97 95 96 86 97 98 96 96 84 72 61 53 49 53 49 42 36 28 21 17 15 15 15 16 19 21 22 23 23 23
51 58 50 39 29 41 42 24 16 24 86 98 94 83 70 78 78 96 82 98 97 96 97 97 93 97 97 88 72 61 54 48 44 41 38 37 36 33 28 22 18 16 16 17 20 24 27 29 31
61 60 50 46 41 34 45 19 21 20 92 96 100 84 76 86 90 97 94 86 84 94 97 96 91 98 96 88 85 70 62 55 52 48 44 39 32 28 28 26 24 20 18 17 18 21 25 26 25
84 66 56 52 61 51 41 21 22 16 74 97 76 66 96 86 97 97 92 96 88 93 89 93 95 96 96 94 90 84 72 64 60 55 51 49 46 41 34 27 24 22 19 18 17 16 17 18 18
95 70 69 78 100 95 38 30 22 17 95 100 93 76 75 92 96 96 95 96 95 96 90 86 96 97 97 94 91 76 68 71 67 59 50 43 38 34 34 33 29 26 24 25 28 33 35 37 45
73 83 98 66 95 75 52 49 28 29 85 96 97 58 70 87 90 97 97 96 95 92 81 77 94 97 96 80 89 83 89 75 62 48 37 28 26 27 31 35 40 44 48 49 50 49 47 50 61
75 100 78 77 87 96 67 100 29 51 92 98 91 59 60 74 84 95 96 96 92 83 74 79 64 89 90 97 97 96 82 67 60 48 37 29 28 24 26 41 47 43 48 53 56 49 48 56 64
90 100 100 100 100 82 90 100 66 79 98 99 100 80 54 58 64 90 91 82 87 78 72 80 63 65 86 96 97 90 88 72 62 49 29 26 34 40 57 76 63 66 78 93 78 70 72 92 88
100 94 84 100 100 96 73 48 99 85 97 99 89 92 62 49 62 84 94 89 96 96 93 96 97 73 76 79 91 95 89 94 86 77 40 32 40 72 74 93 97 96 97 88 86 94 95 94 97
100 98 70 88 100 100 64 80 70 77 92 94 93 93 70 48 69 83 89 86 97 96 96 97 96 89 96 94 96 94 95 96 96 94 95 94 94 93 95 97 97 84 87 95 97 96 96 95 93
86 100 80 85 100 100 100 100 91 93 99 99 100 98 94 50 62 71 83 88 92 97 95 97 96 96 96 96 96 97 96 96 96 98 99 96 97 96 95 96 96 94 97 97 92 95 85 59 17
97 73 98 96 100 100 99 87 91 92 98 100 99 97 98 61 70 70 95 93 96 95 98 97 95 96 96 96 96 96 96 97 96 98 97 97 97 96 94 97 97 95 95 54 35 32 24 21 17
57 99 97 88 100 100 100 98 93 78 89 95 93 98 86 97 82 76 85 90 97 95 98 97 96 95 93 96 96 97 96 96 96 95 97 96 97 97 97 95 87 69 48 34 29 27 25 23 19
54 100 99 82 92 82 91 97 90 93 97 98 99 100 100 91 75 78 83 77 96 88 94 97 94 92 92 96 96 96 95 96 98 96 96 97 96 92 66 65 57 54 47 41 34 26 23 23 21
97 100 99 99 70 71 87 86 91 82 99 96 96 86 98 80 90 88 88 86 77 87 84 86 78 74 73 66 86 95 95 95 95 95 96 94 93 61 49 53 57 53 46 36 26 24 23 24 21
100 100 92 89 75 51 64 62 69 64 87 94 91 94 97 95 90 84 88 85 81 85 79 75 73 74 72 66 67 74 74 82 89 93 95 89 63 60 66 69 63 58 49 30 25 23 23 26 14
97 100 100 94 65 66 54 65 67 57 67 79 94 96 99 97 98 96 92 87 73 85 82 77 74 72 70 69 64 56 64 77 96 82 69 60 55 50 64 70 68 59 42 24 24 22 25 16 7

GFSSGP_500_rhum_114.txt.gz
RH
5 4 3 2 3 2 2 2 2 2 2 14 24 58 76 95 90 58 44 51 52 61 61 54 46 34 26 25 36 25 19 14 13 13 10 7 7 8 7 7 8 8 8 8 7 5 3 2 2
5 5 3 3 3 2 2 2 2 2 2 8 26 52 76 98 83 76 56 51 56 59 69 61 45 33 26 24 35 31 27 16 11 9 8 7 7 8 8 8 8 8 8 8 7 6 4 2 2
6 5 4 3 3 2 2 2 2 2 2 9 25 47 92 96 95 97 72 59 63 65 66 62 51 36 27 28 34 37 36 31 20 13 11 10 8 9 9 8 8 8 8 8 8 6 5 2 2
6 6 4 3 3 2 2 2 2 2 3 5 34 42 79 89 96 93 100 66 72 76 68 65 53 42 32 32 36 39 41 38 36 31 24 19 17 12 10 8 8 8 8 8 8 7 5 2 3
7 6 4 3 3 2 2 2 2 2 4 5 26 36 64 82 92 97 87 88 77 82 74 62 56 47 40 35 40 43 41 40 35 35 36 31 28 22 15 10 8 8 9 9 9 7 5 3 4
7 5 3 3 2 2 2 2 2 3 5 5 19 33 55 67 90 94 77 84 84 86 76 64 56 51 48 42 41 47 45 43 37 35 39 36 33 25 17 12 10 10 10 10 10 7 5 3 4
5 4 3 3 2 2 2 3 3 5 8 7 24 42 59 70 92 84 97 73 81 85 74 65 61 55 53 50 46 48 46 44 38 30 33 36 34 25 15 12 11 11 12 11 10 7 5 4 5
4 3 3 2 2 2 3 5 6 9 8 8 19 58 52 65 86 77 92 97 96 77 84 69 61 58 57 53 50 50 48 43 39 32 33 34 31 24 16 13 12 12 13 12 11 8 6 5 5
4 3 2 2 3 4 6 7 10 14 12 10 23 98 73 62 81 68 78 97 92 63 77 69 61 59 63 57 54 50 47 44 39 37 37 35 28 24 16 12 12 13 14 14 13 12 8 6 5
4 3 3 5 5 6 11 15 21 22 15 13 34 88 92 63 74 80 59 95 81 84 83 76 69 65 67 62 59 56 50 46 42 39 38 34 28 24 16 12 13 13 15 16 16 15 13 10 7
5 5 9 9 10 10 19 23 34 42 17 14 28 76 99 78 68 83 69 96 89 96 98 89 73 67 70 68 64 60 54 49 43 41 38 34 29 25 17 15 14 14 16 17 17 17 17 15 12
8 18 20 18 22 30 39 41 31 52 23 46 71 95 100 81 62 82 92 96 97 95 95 96 97 87 80 76 71 67 60 51 48 45 42 34 27 25 21 18 17 16 17 18 19 18 18 18 17
29 39 41 36 38 56 65 51 35 44 26 65 81 99 96 90 64 75 83 95 93 96 96 95 98 100 96 90 82 73 64 57 51 47 43 39 32 24 21 19 18 19 18 18 19 19 19 20 20
50 51 57 60 52 66 68 64 54 32 28 24 91 99 87 90 62 60 80 100 79 95 96 96 96 98 92 95 92 78 66 59 54 48 43 34 33 30 28 24 21 20 18 18 19 20 20 20 21
44 38 40 55 66 60 60 64 47 32 24 40 88 98 84 71 66 53 71 95 76 92 96 98 95 92 98 100 91 80 68 61 58 52 47 38 32 27 24 21 20 18 17 17 18 18 19 21 22
58 57 47 38 41 62 58 38 51 38 26 27 59 98 62 78 73 52 82 97 71 96 97 96 93 91 92 96 94 83 72 63 58 54 52 48 41 37 32 28 25 21 19 18 18 20 19 19 20
82 65 76 59 58 61 52 34 39 42 27 19 68 97 61 94 81 57 73 97 95 92 94 96 89 85 79 82 96 84 76 63 56 51 47 45 41 38 36 33 30 28 25 22 19 17 16 15 16
62 73 84 74 100 87 63 34 36 43 34 18 93 81 53 88 98 66 74 96 96 94 96 95 95 73 77 71 87 85 74 64 56 51 48 45 42 39 36 33 30 28 25 23 22 20 19 21 25
66 65 68 71 91 67 69 52 40 51 32 22 98 87 63 73 86 91 92 96 96 97 95 93 96 87 73 69 82 89 77 67 63 64 64 62 57 52 48 44 39 36 32 30 27 24 25 44 47
84 87 97 100 87 42 92 80 38 55 30 41 90 100 93 82 88 94 96 93 96 95 97 96 96 96 96 85 86 92 91 91 94 79 73 68 58 50 41 35 30 27 24 24 32 34 42 52 44
95 100 97 68 65 87 76 61 34 43 17 22 48 81 95 84 82 94 92 93 96 96 96 96 95 93 98 100 93 94 89 92 93 88 81 61 48 39 33 32 26 26 35 49 41 46 58 61 69
100 100 80 90 99 77 70 96 39 37 19 38 67 82 100 100 74 88 88 96 96 95 96 97 99 94 88 96 96 96 97 83 92 94 79 66 52 45 40 28 28 57 77 70 68 88 91 88 90
97 99 100 100 100 98 46 100 100 52 43 71 100 100 91 65 67 71 93 96 95 96 96 97 95 90 98 96 95 97 91 87 96 97 92 85 66 61 51 58 60 93 95 96 96 97 97 97 94
100 98 100 100 100 100 66 100 100 90 82 93 87 100 93 51 48 71 83 96 96 96 96 96 97 97 91 82 75 97 98 94 94 99 95 93 86 90 94 94 94 96 97 97 97 96 73 88 76
91 76 97 100 100 100 100 89 100 85 60 91 89 100 82 36 44 61 62 82 97 96 96 97 95 97 97 99 95 88 94 96 96 96 96 95 94 93 96 95 97 97 97 97 95 77 34 31 27
99 94 96 100 100 100 100 100 83 78 86 97 90 92 59 25 36 53 66 90 97 96 94 96 96 97 97 96 96 96 96 94 97 97 96 96 97 93 95 97 97 96 96 98 68 44 34 31 28
95 96 95 100 97 100 100 100 94 77 93 96 92 99 99 40 40 68 73 91 97 99 96 97 96 97 96 95 96 96 96 97 95 96 96 96 97 96 97 97 96 95 93 87 61 47 40 38 31
100 79 76 86 93 99 100 95 89 85 91 99 99 94 97 71 49 61 59 79 90 95 96 97 96 96 96 96 97 96 96 96 96 96 96 96 97 97 97 94 96 92 78 66 56 51 46 32 26
97 100 95 86 76 94 94 99 88 91 92 99 98 98 90 98 73 57 70 89 84 91 98 97 95 96 99 96 92 93 93 91 91 96 96 96 95 96 97 94 94 94 90 72 61 59 49 27 23
100 95 94 76 92 75 62 86 74 71 80 97 97 100 99 94 96 86 79 87 85 83 90 95 99 97 96 90 80 84 95 90 96 94 99 95 96 93 86 79 78 74 80 75 69 60 44 23 26

GFSSGP_500_rhum_117.txt.gz
RH
14 9 5 5 7 6 4 3 3 2 2 2 2 2 8 18 52 86 50 38 41 39 53 55 51 48 37 26 24 29 23 26 27 27 21 10 8 6 6 6 7 8 8 8 7 6 4 2 2
18 11 7 6 7 7 4 3 3 3 2 2 2 2 4 8 43 42 98 46 45 41 52 59 56 52 42 28 25 28 24 18 17 16 14 9 7 8 7 7 8 8 8 8 7 6 5 2 2
20 17 10 8 7 6 4 4 3 3 2 2 2 2 3 7 42 34 81 63 56 45 54 64 61 58 46 31 27 30 29 20 14 10 9 8 7 7 8 8 8 8 8 8 8 7 5 3 2
22 20 14 10 8 7 5 4 3 3 2 2 2 2 2 10 34 28 80 89 59 55 58 72 69 61 52 35 30 31 32 31 21 13 12 10 9 9 9 9 8 8 8 8 8 8 6 4 3
28 26 19 14 10 8 6 4 3 3 3 2 2 2 2 8 12 18 57 96 65 62 60 64 71 65 55 40 34 32 34 34 36 35 26 19 17 14 12 11 9 8 9 8 9 8 7 4 3
30 29 24 18 12 8 6 4 3 3 2 2 2 2 2 6 7 21 37 96 72 66 68 65 62 65 56 42 39 36 36 36 39 38 35 35 28 23 20 15 11 9 10 10 9 8 7 5 4
33 28 21 15 10 7 5 4 3 3 2 2 3 2 2 4 5 12 26 56 97 59 76 71 71 65 57 46 43 41 41 43 40 39 34 31 37 31 25 20 14 11 11 11 10 9 8 5 4
24 18 15 11 7 5 4 4 3 2 2 2 3 2 2 4 3 10 36 16 95 64 81 86 81 70 59 51 48 44 48 47 44 40 34 30 36 35 30 21 14 12 12 11 10 9 8 5 5
15 12 10 8 6 4 4 4 3 2 2 2 3 3 2 6 4 38 34 30 56 96 73 96 77 79 60 54 53 50 45 48 47 42 37 30 30 34 31 21 14 13 13 12 12 11 9 7 6
12 10 8 6 5 4 4 3 3 2 2 2 3 3 2 33 3 39 43 46 36 96 77 98 80 74 66 54 57 54 46 44 43 42 39 34 33 33 27 20 15 13 12 13 13 13 13 11 8
9 7 5 4 4 3 3 2 3 3 2 3 3 5 5 11 30 16 60 65 38 93 94 96 89 69 66 57 56 53 47 44 43 41 39 37 36 33 26 21 15 13 14 14 15 14 15 14 13
6 5 4 4 3 3 3 3 4 5 3 5 7 7 11 35 26 14 49 69 58 85 81 92 94 73 64 60 56 57 54 50 46 43 41 38 36 32 25 23 16 15 14 15 16 15 15 16 15
4 4 4 4 4 4 6 7 13 12 12 17 14 10 18 28 29 19 38 70 66 78 96 87 97 88 88 73 67 62 59 56 51 47 43 41 37 30 26 24 18 18 16 16 17 18 18 18 18
4 4 5 6 8 14 24 24 31 26 28 29 25 10 14 27 50 41 42 62 96 79 96 97 98 96 99 83 74 69 64 61 55 50 47 44 40 32 26 25 22 20 19 19 19 18 18 18 19
8 10 12 12 20 27 47 41 41 35 53 51 35 30 16 52 59 75 47 67 79 84 92 96 96 95 97 86 79 75 70 66 61 55 49 46 42 38 32 26 23 21 20 20 20 20 20 20 20
26 32 28 32 47 39 45 32 48 57 61 57 30 47 20 84 99 94 62 61 80 96 97 90 96 96 96 86 84 82 77 73 67 58 52 46 41 39 32 29 28 26 25 23 22 20 16 14 15
48 56 72 52 61 55 65 45 44 59 54 60 33 42 26 59 96 92 58 64 82 98 96 95 96 96 92 93 95 90 82 77 71 62 56 52 41 38 30 28 27 24 22 20 19 18 19 18 17
42 68 65 82 68 65 100 74 59 50 40 52 41 38 36 88 90 96 64 79 81 93 96 98 95 96 96 97 97 93 86 85 73 64 60 55 48 44 38 34 33 31 30 29 27 24 22 20 19
56 53 42 61 92 90 96 97 62 46 35 39 39 33 43 83 100 92 82 88 67 95 96 96 96 96 95 94 91 85 86 85 76 67 60 56 51 47 46 40 39 36 32 29 27 25 24 24 23
91 95 91 61 63 74 84 84 79 47 64 53 43 31 56 83 95 76 88 70 68 92 96 96 94 95 95 94 92 96 94 90 81 69 60 54 51 46 42 40 38 36 37 38 33 30 30 32 44
100 100 100 100 100 90 60 66 49 30 55 84 68 40 70 87 98 92 92 75 72 92 93 95 96 96 99 95 93 90 91 88 83 74 64 55 50 48 50 51 51 50 44 37 32 32 43 45 49
94 100 98 77 90 51 59 70 19 23 45 59 48 22 36 82 100 100 91 78 53 89 92 97 97 96 96 92 83 90 88 88 80 67 58 56 71 81 67 64 55 45 39 29 30 54 68 74 86
90 97 95 96 87 100 100 100 67 34 46 42 35 30 32 73 99 96 71 64 74 94 97 96 96 95 96 91 83 93 92 92 85 84 75 82 93 94 79 63 47 41 38 38 56 87 94 96 98
100 100 100 100 84 91 100 100 100 90 71 32 33 67 61 81 97 78 65 48 87 94 96 97 97 97 96 96 95 93 95 96 94 92 89 91 97 94 75 59 55 64 69 83 91 98 98 97 94
93 98 100 100 90 89 100 100 100 100 84 100 77 69 79 84 97 56 72 80 96 95 96 98 96 96 97 97 96 100 91 90 88 97 94 96 94 91 81 74 78 87 90 90 97 97 96 94 77
89 100 100 100 100 88 93 96 100 100 100 74 71 93 93 86 83 58 82 94 95 95 96 96 97 95 97 96 96 96 92 90 95 97 96 96 91 89 83 85 84 96 93 94 97 97 93 94 93
79 82 100 100 100 100 100 100 100 100 100 81 88 96 82 73 55 52 76 79 78 93 97 96 96 96 96 97 96 96 99 98 96 97 96 96 96 96 94 88 96 96 96 97 97 95 91 74 43
48 53 78 99 100 100 100 100 100 99 98 87 97 96 46 35 35 49 79 81 89 86 92 97 96 96 96 96 96 96 96 97 97 97 96 96 97 97 95 95 97 96 96 96 96 95 91 88 63
82 57 76 99 90 100 100 100 100 99 99 100 90 78 46 29 34 56 58 67 87 87 94 96 97 99 97 96 97 96 96 97 96 97 96 96 97 97 97 96 96 97 97 97 96 92 93 87 66
76 72 93 93 100 98 100 100 99 100 100 100 100 99 89 46 44 40 41 49 73 79 97 94 96 96 97 97 98 95 94 97 96 93 98 96 96 96 97 98 96 96 96 92 90 92 90 82 71

GFSSGP_500_rhum_120.txt.gz
RH
18 15 13 13 11 9 7 6 7 5 3 3 3 2 2 3 24 54 17 85 61 31 49 68 58 57 43 38 31 23 30 29 28 30 28 20 11 6 5 6 7 8 8 8 7 6 4 2 2
18 15 14 14 14 12 8 7 7 6 4 3 3 3 2 2 5 2 3 14 66 59 43 48 60 54 48 40 35 24 30 26 25 27 27 20 9 7 6 6 7 8 8 8 8 7 5 2 2
20 18 17 15 15 15 11 7 8 8 5 3 3 3 3 3 3 2 2 4 34 48 54 46 51 53 50 43 38 27 30 23 22 24 22 18 9 7 8 7 7 8 8 8 8 7 6 3 2
27 23 21 20 18 19 16 11 7 7 7 4 4 3 3 3 3 2 2 3 8 85 55 54 45 54 52 47 42 31 28 26 20 18 12 10 8 8 8 8 8 8 8 8 8 8 6 4 3
31 31 28 24 22 22 20 16 10 8 8 5 4 3 3 3 3 2 2 2 3 19 63 57 52 54 56 52 45 38 27 33 24 22 15 11 10 9 9 9 9 9 8 8 8 8 7 6 4
35 35 33 30 26 26 26 23 17 10 9 6 4 4 3 4 3 4 2 2 2 11 63 70 55 54 63 56 46 44 30 34 31 29 25 19 16 16 15 13 11 10 9 9 8 8 8 6 4
45 40 38 34 30 29 28 26 22 15 11 8 5 4 4 4 3 2 2 2 3 4 52 84 62 61 70 61 50 46 36 33 35 35 30 32 32 30 28 25 19 16 12 10 10 9 8 7 6
53 48 43 39 37 34 29 26 22 18 14 8 5 4 4 4 3 4 29 15 2 3 18 56 80 68 68 70 56 49 40 34 34 36 36 33 29 29 32 33 27 22 15 12 11 9 9 8 6
73 55 48 46 41 34 26 21 16 15 14 9 5 4 4 3 3 2 2 23 42 10 15 71 82 71 64 65 64 54 45 37 34 33 40 39 33 29 32 34 32 24 16 13 12 10 10 9 7
71 60 53 46 38 30 20 15 14 12 9 6 5 4 4 3 2 2 2 2 30 42 30 60 65 77 69 62 66 57 47 42 40 35 39 42 36 30 30 31 32 25 17 14 12 10 11 10 9
73 62 54 43 31 20 17 14 11 9 7 6 5 4 3 2 2 2 2 2 9 45 42 51 98 98 75 61 68 60 48 44 42 43 40 41 39 33 30 31 30 23 16 14 12 12 12 12 12
72 62 51 38 26 18 13 11 9 8 6 5 4 3 3 2 2 2 2 2 2 44 47 43 97 80 84 89 79 67 56 48 47 44 44 40 40 37 35 32 28 22 17 15 13 13 12 12 13
76 59 46 34 22 14 9 8 6 5 4 4 3 3 3 2 2 2 2 2 2 30 62 47 89 80 95 97 88 83 60 56 54 47 44 44 40 38 36 33 28 23 17 16 14 14 15 15 16
45 32 20 12 7 5 5 4 4 3 3 3 3 3 2 3 3 2 2 2 2 8 93 60 69 84 95 95 93 90 70 64 60 52 46 45 44 40 36 34 29 24 19 17 16 15 17 18 18
10 8 5 4 4 4 5 4 3 3 3 4 4 3 4 4 3 3 2 4 2 29 98 68 76 94 96 96 92 89 78 75 63 55 50 49 48 43 38 35 30 26 23 20 20 20 20 19 19
4 4 4 4 5 6 9 5 4 6 11 14 10 9 11 10 7 5 4 10 3 25 94 98 62 96 93 98 92 86 86 77 66 59 59 53 50 45 43 39 33 28 24 21 20 20 20 21 21
6 4 4 4 6 11 14 25 8 15 23 32 24 31 31 20 14 9 12 10 6 26 94 98 86 96 94 92 95 87 88 78 67 66 62 56 52 47 44 37 35 32 28 26 25 24 23 20 16
9 15 20 14 11 25 12 14 22 58 66 47 30 53 48 28 19 16 74 81 26 22 92 99 83 94 96 96 93 94 95 78 71 70 67 61 55 49 45 41 39 33 27 25 24 20 20 20 23
42 59 57 72 45 22 43 35 56 70 67 54 55 53 47 43 29 30 26 68 43 29 96 97 98 93 84 94 94 90 86 80 76 74 69 64 56 47 43 41 34 30 24 23 24 28 28 28 24
63 69 91 90 99 74 54 56 95 65 66 64 52 41 50 52 40 38 43 25 34 35 96 100 95 96 94 95 96 96 93 83 82 77 71 65 60 53 49 37 32 31 29 33 36 32 30 29 28
64 46 72 61 100 89 48 58 69 68 51 45 39 56 46 48 39 54 46 47 49 46 88 97 97 96 97 96 96 94 92 84 82 78 76 71 72 59 52 46 37 37 40 39 35 34 37 37 32
66 56 68 70 64 64 64 90 100 60 33 29 66 100 90 48 41 50 36 100 60 72 89 99 96 96 96 97 97 96 91 80 82 88 84 85 78 64 55 47 44 46 40 40 43 46 44 34 40
70 74 97 100 70 71 96 100 70 29 31 47 56 94 93 82 56 38 60 99 99 63 87 96 96 96 96 97 95 95 97 96 95 95 95 94 72 60 47 61 90 44 62 56 50 46 38 49 66
66 94 100 100 76 94 100 100 100 71 86 48 41 62 72 62 57 42 35 99 63 82 82 96 97 97 96 97 97 98 97 95 93 94 92 87 80 66 74 84 57 56 91 62 54 45 49 74 93
94 98 100 99 86 100 100 100 100 100 100 92 53 28 35 48 29 56 73 98 61 80 77 87 96 94 96 93 96 96 94 96 96 97 91 86 73 68 81 81 65 92 93 71 59 62 93 95 97
100 100 100 100 100 100 100 100 100 94 95 95 78 63 80 58 40 42 85 84 67 66 83 93 92 98 97 96 96 96 97 97 97 95 94 83 80 80 85 69 82 93 86 90 90 96 96 98 97
100 100 100 84 93 100 100 100 100 100 100 98 88 100 100 45 49 56 80 97 74 86 94 95 96 94 95 95 96 96 96 97 94 97 98 95 97 93 94 87 93 96 95 95 95 96 96 97 97
78 100 100 100 100 99 100 99 100 100 100 100 100 93 79 66 66 75 85 92 82 97 96 96 96 96 96 96 96 95 96 96 96 97 96 97 97 95 94 94 99 96 94 95 95 95 96 97 96
58 99 100 92 98 100 95 100 100 100 100 100 89 67 54 50 54 55 72 79 96 92 92 96 97 96 96 96 96 97 96 96 97 95 97 96 97 97 97 98 96 94 94 98 97 96 98 97 95
86 82 99 94 100 98 97 100 100 100 100 100 100 97 96 39 48 61 65 85 95 96 96 98 94 96 95 96 96 96 97 96 96 97 97 96 97 96 98 96 96 96 96 97 93 97 97 96 92